[[{"header":{"parameterUnit":"m.s-1","parameterCategory":1,"la1":31.0,"la2":29.5877,"lo1":-88.7671,"lo2":-86.6584,"dx":0.0162,"dy":0.0185,"nx":115,"ny":88,"refTime":"2022-12-12T18:00:00:Z","depth":0,"parameterNumber":2,"parameterNumberName":"U-component_of_WINDS"},"data":[0.0,0.0,0.0,0.0,0.0,0.0,0.0,0.0,0.0,0.0,0.0,0.0,0.0,0.0,0.0,0.0,0.0,0.0,0.0,0.0,0.0,0.0,0.0,0.0,0.0,0.0,0.0,0.0,0.0,0.0,0.0,0.0,0.0,0.0,0.0,0.0,0.0,0.0,0.0,0.0,0.0,0.0,0.0,0.0,0.0,0.0,0.0,0.0,0.0,0.0,0.0,0.0,0.0,0.0,0.0,0.0,0.0,0.0,0.0,0.0,0.0,0.0,0.0,0.0,0.0,0.0,0.0,0.0,0.0,0.0,0.0,0.0,0.0,0.0,0.0,0.0,0.0,0.0,0.0,0.0,0.0,0.0,0.0,0.0,0.0,0.0,0.0,0.0,0.0,0.0,0.0,0.0,0.0,0.0,0.0,0.0,0.0,0.0,0.0,0.0,0.0,0.0,0.0,0.0,0.0,0.0,0.0,0.0,0.0,0.0,0.0,0.0,0.0,0.0,0.0,0.0,0.0,0.0,0.0,0.0,0.0,0.0,0.0,0.0,0.0,0.0,0.0,0.0,0.0,0.0,0.0,0.0,0.0,0.0,0.0,0.0,0.0,0.0,0.0,0.0,0.0,0.0,0.0,0.0,0.0,0.0,0.0,0.0,0.0,0.0,0.0,0.0,0.0,0.0,0.0,0.0,0.0,0.0,0.0,0.0,0.0,0.0,0.0,0.0,0.0,0.0,0.0,0.0,0.0,0.0,0.0,0.0,0.0,0.0,0.0,0.0,0.0,0.0,0.0,0.0,0.0,0.0,0.0,0.0,0.0,0.0,0.0,0.0,0.0,0.0,0.0,0.0,0.0,0.0,0.0,0.0,0.0,0.0,0.0,0.0,0.0,0.0,0.0,0.0,0.0,0.0,0.0,0.0,0.0,0.0,0.0,0.0,0.0,0.0,0.0,0.0,0.0,0.0,0.0,0.0,0.0,0.0,0.0,0.0,0.0,0.0,0.0,0.0,0.0,0.0,0.0,0.0,0.0,0.0,0.0,0.0,0.0,0.0,0.0,0.0,0.0,0.0,0.0,0.0,0.0,0.0,0.0,0.0,0.0,0.0,0.0,0.0,0.0,0.0,0.0,0.0,0.0,0.0,0.0,0.0,0.0,0.0,0.0,0.0,0.0,0.0,0.0,0.0,0.0,0.0,0.0,0.0,0.0,0.0,0.0,0.0,0.0,0.0,0.0,0.0,0.0,0.0,0.0,0.0,0.0,0.0,0.0,0.0,0.0,0.0,0.0,0.0,0.0,0.0,0.0,0.0,0.0,0.0,0.0,0.0,0.0,0.0,0.0,0.0,0.0,0.0,0.0,0.0,0.0,0.0,0.0,0.0,0.0,0.0,0.0,0.0,0.0,0.0,0.0,0.0,0.0,0.0,0.0,0.0,0.0,0.0,0.0,0.0,0.0,0.0,0.0,0.0,0.0,0.0,0.0,0.0,0.0,0.0,0.0,0.0,0.0,0.0,0.0,0.0,0.0,0.0,0.0,0.0,0.0,0.0,0.0,0.0,0.0,0.0,0.0,0.0,0.0,0.0,0.0,0.0,0.0,0.0,0.0,0.0,0.0,0.0,0.0,0.0,0.0,0.0,0.0,0.0,0.0,0.0,0.0,0.0,0.0,0.0,0.0,0.0,0.0,0.0,0.0,0.0,0.0,0.0,0.0,0.0,0.0,0.0,0.0,0.0,0.0,0.0,0.0,0.0,0.0,0.0,0.0,0.0,0.0,0.0,0.0,0.0,0.0,0.0,0.0,0.0,0.0,0.0,0.0,0.0,0.0,0.0,0.0,0.0,0.0,0.0,0.0,0.0,0.0,0.0,0.0,0.0,0.0,0.0,0.0,0.0,0.0,0.0,0.0,0.0,0.0,0.0,0.0,0.0,0.0,0.0,0.0,0.0,0.0,0.0,0.0,0.0,0.0,0.0,0.0,0.0,0.0,0.0,0.0,0.0,0.0,0.0,0.0,0.0,0.0,0.0,0.0,0.0,0.0,0.0,0.0,0.0,0.0,0.0,0.0,0.0,0.0,0.0,0.0,0.0,0.0,0.0,0.0,0.0,0.0,0.0,0.0,0.0,0.0,0.0,0.0,0.0,0.0,0.0,0.0,0.0,0.0,0.0,0.0,0.0,0.0,0.0,0.0,0.0,0.0,0.0,0.0,0.0,0.0,0.0,0.0,0.0,0.0,0.0,0.0,0.0,0.0,0.0,0.0,0.0,0.0,0.0,0.0,0.0,0.0,0.0,0.0,0.0,0.0,0.0,0.0,0.0,0.0,0.0,0.0,0.0,0.0,0.0,0.0,0.0,0.0,0.0,0.0,0.0,0.0,0.0,0.0,0.0,0.0,0.0,0.0,0.0,0.0,0.0,0.0,0.0,0.0,0.0,0.0,0.0,0.0,0.0,0.0,0.0,0.0,0.0,0.0,0.0,0.0,0.0,0.0,0.0,0.0,0.0,0.0,0.0,0.0,0.0,0.0,0.0,0.0,0.0,0.0,0.0,0.0,0.0,0.0,0.0,0.0,0.0,0.0,0.0,0.0,0.0,0.0,0.0,0.0,0.0,0.0,0.0,0.0,0.0,0.0,0.0,0.0,0.0,0.0,0.0,0.0,0.0,0.0,0.0,0.0,0.0,0.0,0.0,0.0,0.0,0.0,0.0,0.0,0.0,0.0,0.0,0.0,0.0,0.0,0.0,0.0,0.0,0.0,0.0,0.0,0.0,0.0,0.0,0.0,0.0,0.0,0.0,0.0,0.0,0.0,0.0,0.0,0.0,0.0,0.0,0.0,0.0,0.0,0.0,0.0,0.0,0.0,0.0,0.0,0.0,0.0,0.0,0.0,0.0,0.0,0.0,0.0,0.0,0.0,0.0,0.0,0.0,0.0,0.0,0.0,0.0,0.0,0.0,0.0,0.0,0.0,0.0,0.0,0.0,0.0,0.0,0.0,0.0,0.0,0.0,0.0,0.0,0.0,0.0,0.0,0.0,0.0,0.0,0.0,0.0,0.0,0.0,0.0,0.0,0.0,0.0,0.0,0.0,0.0,0.0,0.0,0.0,0.0,0.0,0.0,0.0,0.0,0.0,0.0,0.0,0.0,0.0,0.0,0.0,0.0,0.0,0.0,0.0,0.0,0.0,0.0,0.0,0.0,0.0,0.0,0.0,0.0,0.0,0.0,0.0,0.0,0.0,0.0,0.0,0.0,0.0,0.0,0.0,0.0,0.0,0.0,0.0,0.0,0.0,0.0,0.0,0.0,0.0,0.0,0.0,0.0,0.0,0.0,0.0,0.0,0.0,0.0,0.0,0.0,0.0,0.0,0.0,0.0,0.0,0.0,0.0,0.0,0.0,0.0,0.0,0.0,0.0,0.0,0.0,0.0,0.0,0.0,0.0,0.0,0.0,0.0,0.0,0.0,0.0,0.0,0.0,0.0,0.0,0.0,0.0,0.0,0.0,0.0,0.0,0.0,0.0,0.0,0.0,0.0,0.0,0.0,0.0,0.0,0.0,0.0,0.0,0.0,0.0,0.0,0.0,0.0,0.0,0.0,0.0,0.0,0.0,0.0,0.0,0.0,0.0,0.0,0.0,0.0,0.0,0.0,0.0,0.0,0.0,0.0,0.0,0.0,0.0,0.0,0.0,0.0,0.0,0.0,0.0,0.0,0.0,0.0,0.0,0.0,0.0,0.0,0.0,0.0,0.0,0.0,0.0,0.0,0.0,0.0,0.0,0.0,0.0,0.0,0.0,0.0,0.0,0.0,0.0,0.0,0.0,0.0,0.0,0.0,0.0,0.0,0.0,0.0,0.0,0.0,0.0,0.0,0.0,0.0,0.0,0.0,0.0,0.0,0.0,0.0,0.0,0.0,0.0,0.0,0.0,0.0,0.0,0.0,0.0,0.0,0.0,0.0,0.0,0.0,0.0,0.0,0.0,0.0,0.0,0.0,0.0,0.0,0.0,0.0,0.0,0.0,0.0,0.0,0.0,0.0,0.0,0.0,0.0,0.0,0.0,0.0,0.0,0.0,0.0,0.0,0.0,0.0,0.0,0.0,0.0,0.0,0.0,0.0,0.0,0.0,0.0,0.0,0.0,0.0,0.0,0.0,0.0,0.0,0.0,0.0,0.0,0.0,0.0,0.0,0.0,0.0,0.0,0.0,0.0,0.0,0.0,0.0,0.0,0.0,0.0,0.0,0.0,0.0,0.0,3.4835,0.0,0.0,0.0,3.4118,0.0,0.0,0.0,0.0,0.0,0.0,0.0,0.0,0.0,0.0,0.0,0.0,0.0,0.0,0.0,0.0,0.0,0.0,0.0,0.0,0.0,0.0,0.0,0.0,0.0,0.0,0.0,0.0,0.0,0.0,0.0,0.0,0.0,0.0,0.0,0.0,0.0,0.0,0.0,0.0,0.0,0.0,0.0,0.0,0.0,0.0,0.0,0.0,0.0,0.0,0.0,0.0,0.0,0.0,0.0,0.0,0.0,0.0,0.0,0.0,0.0,0.0,0.0,0.0,0.0,0.0,0.0,0.0,0.0,0.0,0.0,0.0,0.0,0.0,0.0,0.0,0.0,0.0,0.0,0.0,0.0,0.0,0.0,0.0,0.0,0.0,0.0,0.0,0.0,0.0,0.0,0.0,0.0,0.0,0.0,0.0,0.0,0.0,0.0,0.0,0.0,0.0,0.0,0.0,0.0,0.0,0.0,0.0,0.0,0.0,3.5678,3.5566,3.5982,3.5645,3.4364,0.0,0.0,0.0,0.0,0.0,0.0,0.0,0.0,0.0,0.0,0.0,0.0,0.0,0.0,0.0,0.0,0.0,0.0,0.0,0.0,0.0,0.0,0.0,0.0,0.0,0.0,0.0,0.0,0.0,0.0,0.0,0.0,0.0,0.0,0.0,0.0,0.0,0.0,0.0,0.0,0.0,0.0,0.0,0.0,0.0,0.0,0.0,0.0,0.0,0.0,0.0,0.0,0.0,0.0,0.0,0.0,0.0,0.0,0.0,0.0,0.0,0.0,0.0,0.0,0.0,0.0,0.0,0.0,0.0,0.0,0.0,0.0,0.0,0.0,0.0,0.0,0.0,0.0,0.0,0.0,0.0,0.0,0.0,0.0,0.0,0.0,0.0,0.0,0.0,0.0,0.0,0.0,0.0,0.0,0.0,0.0,0.0,0.0,0.0,0.0,0.0,0.0,0.0,0.0,0.0,0.0,0.0,0.0,0.0,0.0,0.0,0.0,3.6535,3.6118,3.424,0.0,0.0,0.0,0.0,0.0,0.0,0.0,0.0,0.0,0.0,0.0,0.0,0.0,0.0,0.0,0.0,0.0,0.0,0.0,0.0,0.0,0.0,0.0,0.0,0.0,0.0,0.0,0.0,0.0,0.0,0.0,0.0,0.0,0.0,0.0,0.0,0.0,0.0,0.0,0.0,0.0,0.0,0.0,0.0,0.0,0.0,0.0,0.0,0.0,0.0,0.0,0.0,0.0,0.0,0.0,0.0,0.0,0.0,0.0,0.0,0.0,0.0,0.0,0.0,0.0,0.0,0.0,0.0,0.0,0.0,0.0,0.0,0.0,0.0,0.0,0.0,0.0,0.0,0.0,0.0,0.0,0.0,0.0,0.0,0.0,0.0,0.0,0.0,0.0,0.0,0.0,0.0,0.0,0.0,0.0,0.0,0.0,0.0,0.0,0.0,0.0,0.0,0.0,0.0,0.0,0.0,0.0,0.0,0.0,0.0,3.711,3.569,3.7009,0.0,3.3624,0.0,0.0,0.0,0.0,0.0,0.0,0.0,0.0,0.0,0.0,0.0,0.0,0.0,0.0,0.0,0.0,0.0,0.0,0.0,0.0,0.0,0.0,0.0,0.0,0.0,0.0,0.0,0.0,0.0,0.0,0.0,0.0,0.0,0.0,0.0,0.0,0.0,0.0,0.0,0.0,0.0,0.0,0.0,0.0,0.0,0.0,0.0,0.0,0.0,0.0,0.0,0.0,0.0,0.0,0.0,0.0,0.0,0.0,0.0,0.0,0.0,0.0,0.0,0.0,0.0,0.0,0.0,0.0,0.0,0.0,0.0,0.0,0.0,0.0,0.0,0.0,0.0,0.0,0.0,0.0,0.0,0.0,0.0,0.0,0.0,0.0,0.0,0.0,0.0,0.0,0.0,0.0,0.0,0.0,0.0,0.0,0.0,0.0,0.0,0.0,0.0,0.0,0.0,0.0,0.0,0.0,0.0,0.0,0.0,0.0,3.6705,3.5656,3.6231,3.5543,0.0,0.0,0.0,0.0,0.0,0.0,0.0,0.0,0.0,0.0,0.0,0.0,0.0,0.0,0.0,0.0,0.0,0.0,0.0,0.0,0.0,0.0,0.0,0.0,0.0,0.0,0.0,0.0,0.0,0.0,0.0,0.0,0.0,0.0,0.0,0.0,0.0,0.0,0.0,0.0,0.0,0.0,0.0,0.0,0.0,0.0,0.0,0.0,0.0,0.0,0.0,0.0,0.0,0.0,0.0,0.0,0.0,0.0,0.0,0.0,0.0,0.0,0.0,0.0,0.0,0.0,0.0,0.0,0.0,0.0,0.0,0.0,0.0,0.0,0.0,0.0,0.0,0.0,0.0,0.0,0.0,0.0,0.0,0.0,0.0,0.0,0.0,0.0,0.0,0.0,0.0,0.0,0.0,0.0,0.0,0.0,0.0,0.0,0.0,0.0,0.0,0.0,0.0,0.0,0.0,0.0,0.0,0.0,0.0,0.0,3.6705,3.6806,3.6265,3.5825,3.4868,3.3448,0.0,0.0,0.0,0.0,0.0,0.0,0.0,0.0,0.0,0.0,0.0,0.0,0.0,0.0,0.0,0.0,0.0,0.0,0.0,0.0,0.0,0.0,0.0,0.0,0.0,0.0,0.0,0.0,0.0,0.0,0.0,0.0,0.0,0.0,0.0,0.0,0.0,0.0,0.0,0.0,0.0,0.0,0.0,0.0,0.0,0.0,0.0,0.0,0.0,0.0,0.0,0.0,0.0,0.0,0.0,0.0,0.0,0.0,0.0,0.0,0.0,0.0,0.0,0.0,0.0,0.0,0.0,0.0,0.0,0.0,0.0,0.0,0.0,0.0,0.0,0.0,0.0,0.0,0.0,0.0,0.0,0.0,0.0,0.0,0.0,0.0,0.0,0.0,0.0,0.0,0.0,0.0,0.0,0.0,0.0,0.0,0.0,0.0,0.0,0.0,0.0,0.0,0.0,0.0,0.0,0.0,0.0,0.0,3.6705,3.7449,3.7821,3.7719,3.64,3.4901,0.0,0.0,0.0,0.0,0.0,0.0,0.0,0.0,0.0,0.0,0.0,0.0,0.0,0.0,0.0,0.0,0.0,0.0,0.0,0.0,0.0,0.0,0.0,0.0,0.0,0.0,0.0,0.0,0.0,0.0,0.0,0.0,0.0,0.0,0.0,0.0,0.0,0.0,0.0,0.0,0.0,0.0,0.0,0.0,0.0,0.0,0.0,0.0,0.0,0.0,0.0,0.0,0.0,0.0,0.0,0.0,0.0,0.0,0.0,0.0,0.0,0.0,0.0,0.0,0.0,0.0,0.0,0.0,0.0,0.0,0.0,0.0,0.0,0.0,0.0,0.0,0.0,0.0,0.0,0.0,0.0,0.0,0.0,0.0,0.0,0.0,0.0,0.0,0.0,0.0,0.0,0.0,0.0,0.0,0.0,0.0,0.0,0.0,0.0,0.0,0.0,0.0,0.0,0.0,0.0,0.0,0.0,0.0,0.0,3.6028,3.6299,3.6671,3.711,3.569,3.4631,0.0,0.0,0.0,0.0,0.0,0.0,0.0,0.0,0.0,0.0,0.0,0.0,0.0,0.0,0.0,0.0,0.0,0.0,0.0,0.0,0.0,0.0,0.0,0.0,0.0,0.0,0.0,0.0,0.0,0.0,0.0,0.0,0.0,0.0,0.0,0.0,0.0,0.0,0.0,0.0,0.0,0.0,0.0,0.0,0.0,0.0,0.0,0.0,0.0,0.0,0.0,0.0,0.0,0.0,0.0,0.0,0.0,0.0,0.0,0.0,0.0,0.0,0.0,0.0,0.0,0.0,0.0,0.0,0.0,0.0,0.0,0.0,0.0,0.0,0.0,0.0,0.0,0.0,0.0,0.0,0.0,0.0,0.0,0.0,0.0,0.0,0.0,0.0,0.0,0.0,0.0,0.0,0.0,0.0,0.0,0.0,0.0,0.0,0.0,0.0,0.0,0.0,0.0,0.0,0.0,0.0,0.0,0.0,0.0,3.5994,3.6468,3.684,3.7077,3.5656,3.4597,0.0,0.0,0.0,0.0,0.0,0.0,0.0,0.0,0.0,0.0,0.0,0.0,0.0,0.0,0.0,0.0,0.0,0.0,0.0,0.0,0.0,0.0,0.0,0.0,0.0,0.0,0.0,0.0,0.0,0.0,0.0,0.0,0.0,0.0,0.0,0.0,0.0,0.0,0.0,0.0,0.0,0.0,0.0,0.0,0.0,0.0,0.0,0.0,0.0,0.0,0.0,0.0,0.0,0.0,0.0,0.0,0.0,0.0,0.0,0.0,0.0,0.0,0.0,0.0,0.0,0.0,0.0,0.0,0.0,0.0,0.0,0.0,0.0,0.0,0.0,0.0,0.0,0.0,0.0,0.0,0.0,0.0,0.0,0.0,0.0,0.0,0.0,0.0,0.0,0.0,0.0,0.0,0.0,0.0,0.0,0.0,0.0,0.0,0.0,0.0,0.0,0.0,0.0,0.0,0.0,0.0,0.0,0.0,3.525,3.6705,3.8125,3.8497,3.7922,3.64,3.4857,0.0,0.0,0.0,0.0,0.0,0.0,0.0,0.0,0.0,0.0,0.0,0.0,0.0,0.0,0.0,0.0,0.0,0.0,0.0,0.0,0.0,0.0,0.0,0.0,0.0,0.0,0.0,0.0,0.0,0.0,0.0,0.0,0.0,0.0,0.0,0.0,0.0,0.0,0.0,0.0,0.0,0.0,0.0,0.0,0.0,0.0,0.0,0.0,0.0,0.0,0.0,0.0,0.0,0.0,0.0,0.0,0.0,0.0,0.0,0.0,0.0,0.0,0.0,0.0,0.0,0.0,0.0,0.0,0.0,0.0,0.0,0.0,0.0,0.0,0.0,0.0,0.0,0.0,0.0,0.0,0.0,0.0,0.0,0.0,0.0,0.0,0.0,0.0,0.0,0.0,0.0,0.0,0.0,0.0,0.0,0.0,0.0,0.0,0.0,0.0,0.0,0.0,0.0,0.0,0.0,0.0,0.0,0.0,0.0,3.5994,3.7449,3.8362,3.8599,3.6671,3.5374,0.0,0.0,0.0,0.0,0.0,0.0,0.0,0.0,0.0,0.0,0.0,0.0,0.0,0.0,0.0,0.0,0.0,0.0,0.0,0.0,0.0,0.0,0.0,0.0,0.0,0.0,0.0,0.0,0.0,0.0,0.0,0.0,0.0,0.0,0.0,0.0,0.0,0.0,0.0,0.0,0.0,0.0,0.0,0.0,0.0,0.0,0.0,0.0,0.0,0.0,0.0,0.0,0.0,0.0,0.0,0.0,0.0,0.0,0.0,0.0,0.0,0.0,0.0,0.0,0.0,0.0,0.0,0.0,0.0,0.0,0.0,0.0,0.0,0.0,0.0,0.0,0.0,0.0,0.0,0.0,0.0,0.0,0.0,0.0,0.0,0.0,0.0,0.0,0.0,0.0,0.0,0.0,0.0,0.0,0.0,0.0,0.0,0.0,0.0,0.0,0.0,0.0,0.0,0.0,0.0,0.0,0.0,0.0,0.0,3.6848,3.8265,3.9109,3.9311,3.7388,3.6072,3.5532,0.0,0.0,0.0,0.0,0.0,0.0,0.0,0.0,0.0,0.0,0.0,0.0,0.0,0.0,0.0,0.0,0.0,0.0,0.0,0.0,0.0,0.0,0.0,0.0,0.0,0.0,0.0,0.0,0.0,0.0,0.0,0.0,0.0,0.0,0.0,0.0,0.0,0.0,0.0,0.0,0.0,0.0,0.0,0.0,0.0,0.0,0.0,0.0,0.0,0.0,0.0,0.0,0.0,0.0,0.0,0.0,0.0,0.0,0.0,0.0,0.0,0.0,0.0,0.0,0.0,0.0,0.0,0.0,0.0,0.0,0.0,0.0,0.0,0.0,0.0,0.0,0.0,0.0,0.0,0.0,0.0,0.0,0.0,0.0,0.0,0.0,0.0,0.0,0.0,0.0,0.0,0.0,0.0,0.0,0.0,0.0,0.0,0.0,0.0,0.0,0.0,0.0,0.0,0.0,0.0,0.0,0.0,0.0,3.8959,4.0438,4.0807,4.0052,3.8504,3.7071,0.0,0.0,0.0,0.0,0.0,0.0,0.0,0.0,0.0,0.0,0.0,0.0,0.0,0.0,0.0,0.0,0.0,0.0,0.0,0.0,0.0,0.0,0.0,0.0,0.0,0.0,0.0,0.0,0.0,0.0,0.0,0.0,0.0,0.0,0.0,0.0,0.0,0.0,0.0,0.0,0.0,0.0,0.0,0.0,0.0,0.0,0.0,0.0,0.0,0.0,0.0,0.0,0.0,0.0,0.0,0.0,0.0,0.0,0.0,0.0,0.0,0.0,0.0,0.0,0.0,0.0,0.0,0.0,0.0,0.0,0.0,0.0,0.0,0.0,0.0,0.0,0.0,0.0,0.0,0.0,0.0,0.0,0.0,0.0,0.0,0.0,0.0,0.0,0.0,0.0,0.0,0.0,0.0,0.0,0.0,0.0,0.0,0.0,0.0,0.0,0.0,0.0,0.0,0.0,0.0,0.0,0.0,0.0,0.0,4.0983,4.2879,4.3046,4.1439,3.9496,3.8033,0.0,0.0,0.0,0.0,0.0,0.0,0.0,0.0,0.0,0.0,0.0,0.0,0.0,0.0,0.0,0.0,0.0,0.0,0.0,0.0,0.0,0.0,0.0,0.0,0.0,0.0,0.0,0.0,0.0,0.0,0.0,0.0,0.0,0.0,0.0,0.0,0.0,0.0,0.0,0.0,0.0,0.0,0.0,0.0,0.0,0.0,0.0,0.0,0.0,0.0,0.0,0.0,0.0,0.0,0.0,0.0,0.0,0.0,0.0,0.0,0.0,0.0,0.0,0.0,0.0,0.0,0.0,0.0,0.0,0.0,0.0,0.0,0.0,0.0,0.0,0.0,0.0,0.0,0.0,0.0,0.0,0.0,0.0,0.0,0.0,0.0,0.0,0.0,0.0,0.0,0.0,0.0,0.0,0.0,0.0,0.0,0.0,0.0,0.0,0.0,0.0,0.0,0.0,0.0,0.0,0.0,0.0,0.0,4.0903,4.2758,4.443,4.4737,4.3564,4.1285,3.958,0.0,0.0,0.0,0.0,0.0,0.0,0.0,0.0,0.0,0.0,0.0,0.0,0.0,0.0,0.0,0.0,0.0,0.0,0.0,0.0,0.0,0.0,0.0,0.0,0.0,0.0,0.0,0.0,0.0,0.0,0.0,0.0,0.0,0.0,0.0,0.0,0.0,0.0,0.0,0.0,0.0,0.0,0.0,0.0,0.0,0.0,0.0,0.0,0.0,0.0,0.0,0.0,0.0,0.0,0.0,0.0,0.0,0.0,0.0,0.0,0.0,0.0,0.0,0.0,0.0,0.0,0.0,0.0,0.0,0.0,0.0,0.0,0.0,0.0,0.0,0.0,0.0,0.0,0.0,0.0,0.0,0.0,0.0,0.0,0.0,0.0,0.0,0.0,0.0,0.0,0.0,0.0,0.0,0.0,0.0,0.0,0.0,0.0,0.0,0.0,0.0,0.0,0.0,0.0,0.0,0.0,0.0,0.0,4.2735,4.424,4.5469,4.6013,4.5947,4.3389,4.1318,0.0,0.0,0.0,0.0,0.0,0.0,0.0,0.0,0.0,0.0,0.0,0.0,0.0,0.0,0.0,0.0,0.0,0.0,0.0,0.0,0.0,0.0,0.0,0.0,0.0,0.0,0.0,0.0,0.0,0.0,0.0,0.0,0.0,0.0,0.0,0.0,0.0,0.0,0.0,0.0,0.0,0.0,0.0,0.0,0.0,0.0,0.0,0.0,0.0,0.0,0.0,0.0,0.0,0.0,0.0,0.0,0.0,0.0,0.0,0.0,0.0,0.0,0.0,0.0,0.0,0.0,0.0,0.0,0.0,0.0,0.0,0.0,0.0,0.0,0.0,0.0,0.0,0.0,0.0,0.0,0.0,0.0,0.0,0.0,0.0,0.0,0.0,0.0,0.0,0.0,0.0,0.0,0.0,0.0,0.0,0.0,0.0,0.0,0.0,0.0,0.0,0.0,0.0,0.0,0.0,0.0,0.0,0.0,4.4215,4.5563,4.6839,4.7537,4.7504,4.4456,4.2323,0.0,0.0,0.0,0.0,0.0,0.0,0.0,0.0,0.0,0.0,0.0,0.0,0.0,0.0,0.0,0.0,0.0,0.0,0.0,0.0,0.0,0.0,0.0,0.0,0.0,0.0,0.0,0.0,0.0,0.0,0.0,0.0,0.0,0.0,0.0,0.0,0.0,0.0,0.0,0.0,0.0,0.0,0.0,0.0,0.0,0.0,0.0,0.0,3.7945,0.0,0.0,0.0,0.0,0.0,0.0,0.0,0.0,0.0,0.0,0.0,0.0,0.0,0.0,0.0,0.0,0.0,0.0,0.0,0.0,0.0,0.0,0.0,0.0,0.0,0.0,0.0,0.0,0.0,0.0,0.0,0.0,0.0,0.0,0.0,0.0,0.0,0.0,0.0,0.0,0.0,0.0,0.0,0.0,0.0,0.0,0.0,0.0,0.0,0.0,0.0,0.0,0.0,0.0,0.0,0.0,0.0,0.0,0.0,4.5517,4.7464,4.8166,4.8531,4.8431,4.6196,4.4115,0.0,0.0,0.0,0.0,0.0,0.0,0.0,0.0,0.0,0.0,0.0,0.0,0.0,0.0,0.0,0.0,0.0,0.0,0.0,0.0,0.0,0.0,0.0,0.0,0.0,0.0,0.0,0.0,0.0,0.0,0.0,0.0,0.0,0.0,0.0,0.0,0.0,0.0,0.0,0.0,0.0,0.0,0.0,0.0,0.0,0.0,0.0,0.0,0.0,0.0,0.0,0.0,0.0,0.0,0.0,0.0,0.0,0.0,0.0,0.0,0.0,0.0,0.0,0.0,0.0,0.0,0.0,0.0,0.0,0.0,0.0,0.0,0.0,0.0,0.0,0.0,0.0,0.0,0.0,0.0,0.0,0.0,0.0,0.0,0.0,0.0,0.0,0.0,0.0,0.0,0.0,0.0,0.0,0.0,0.0,0.0,0.0,0.0,0.0,0.0,0.0,0.0,0.0,0.0,0.0,0.0,0.0,4.393,4.6491,4.9294,4.9327,4.9293,4.926,4.7932,4.5957,4.317,0.0,0.0,0.0,0.0,0.0,0.0,0.0,0.0,0.0,0.0,0.0,0.0,0.0,0.0,0.0,0.0,0.0,0.0,0.0,0.0,0.0,0.0,0.0,0.0,0.0,0.0,0.0,0.0,0.0,0.0,0.0,0.0,0.0,0.0,0.0,0.0,0.0,0.0,3.5413,3.7301,0.0,0.0,0.0,0.0,0.0,0.0,0.0,0.0,3.8659,0.0,0.0,0.0,0.0,0.0,0.0,0.0,0.0,0.0,0.0,0.0,0.0,0.0,0.0,0.0,0.0,0.0,0.0,0.0,0.0,0.0,0.0,0.0,0.0,0.0,0.0,0.0,0.0,0.0,0.0,0.0,0.0,0.0,0.0,0.0,0.0,0.0,0.0,0.0,0.0,0.0,0.0,0.0,0.0,0.0,0.0,0.0,0.0,0.0,0.0,0.0,0.0,0.0,0.0,0.0,0.0,4.4307,4.4875,4.6724,4.999,5.0021,5.0021,4.9988,4.8696,4.6724,4.3972,0.0,0.0,0.0,0.0,0.0,0.0,0.0,0.0,0.0,0.0,0.0,0.0,0.0,0.0,0.0,0.0,0.0,0.0,0.0,0.0,0.0,0.0,0.0,0.0,0.0,0.0,0.0,0.0,0.0,0.0,0.0,0.0,0.0,0.0,0.0,0.0,0.0,0.0,0.0,3.9388,4.015,0.0,0.0,0.0,0.0,0.0,0.0,0.0,0.0,3.9984,0.0,0.0,0.0,0.0,0.0,0.0,0.0,0.0,0.0,0.0,0.0,0.0,0.0,0.0,0.0,0.0,0.0,0.0,0.0,0.0,0.0,0.0,0.0,0.0,0.0,0.0,0.0,0.0,0.0,0.0,0.0,0.0,0.0,0.0,0.0,0.0,0.0,0.0,0.0,0.0,0.0,0.0,0.0,0.0,0.0,0.0,0.0,0.0,0.0,0.0,0.0,0.0,0.0,0.0,0.0,4.4407,4.7087,4.9493,5.1744,5.1512,5.1347,5.128,4.9294,4.6924,0.0,0.0,0.0,0.0,0.0,0.0,0.0,0.0,0.0,0.0,0.0,0.0,0.0,0.0,0.0,0.0,0.0,0.0,0.0,0.0,0.0,0.0,0.0,0.0,0.0,0.0,0.0,0.0,0.0,0.0,0.0,0.0,0.0,0.0,0.0,0.0,0.0,0.0,0.0,0.0,4.0448,4.1475,4.2965,0.0,0.0,0.0,0.0,0.0,0.0,4.1044,4.0845,0.0,0.0,0.0,0.0,0.0,0.0,0.0,0.0,0.0,0.0,0.0,0.0,0.0,0.0,0.0,0.0,0.0,0.0,0.0,0.0,0.0,0.0,0.0,0.0,0.0,0.0,0.0,0.0,0.0,0.0,0.0,0.0,0.0,0.0,0.0,0.0,0.0,0.0,0.0,0.0,0.0,0.0,0.0,0.0,0.0,0.0,0.0,0.0,0.0,0.0,0.0,0.0,0.0,0.0,0.0,4.4474,4.8992,5.2018,5.35,5.2937,5.2572,5.2539,4.9793,4.6991,0.0,0.0,0.0,0.0,0.0,0.0,0.0,0.0,0.0,0.0,0.0,0.0,0.0,0.0,0.0,0.0,0.0,0.0,0.0,0.0,0.0,0.0,0.0,0.0,0.0,0.0,0.0,0.0,0.0,0.0,0.0,0.0,0.0,0.0,0.0,0.0,0.0,0.0,0.0,0.0,0.0,4.2932,4.5218,4.3462,0.0,0.0,0.0,0.0,4.1707,4.227,0.0,0.0,0.0,0.0,0.0,0.0,0.0,0.0,0.0,0.0,0.0,0.0,0.0,0.0,0.0,0.0,0.0,0.0,0.0,0.0,0.0,0.0,0.0,0.0,0.0,0.0,0.0,0.0,0.0,0.0,0.0,0.0,0.0,0.0,0.0,0.0,0.0,0.0,0.0,0.0,0.0,0.0,0.0,0.0,0.0,0.0,0.0,0.0,0.0,0.0,0.0,0.0,0.0,0.0,0.0,0.0,4.5818,4.8927,5.1785,5.4195,5.3665,5.3301,5.3235,5.0126,4.735,0.0,0.0,0.0,0.0,0.0,0.0,0.0,0.0,0.0,0.0,0.0,0.0,0.0,0.0,0.0,0.0,0.0,0.0,0.0,0.0,0.0,0.0,0.0,0.0,0.0,0.0,0.0,0.0,0.0,0.0,0.0,0.0,0.0,0.0,0.0,0.0,0.0,0.0,0.0,0.0,0.0,4.4423,4.4754,4.3992,4.3363,0.0,0.0,4.4754,4.5947,4.6742,0.0,0.0,0.0,0.0,0.0,0.0,0.0,0.0,0.0,0.0,0.0,0.0,0.0,0.0,0.0,0.0,0.0,0.0,0.0,0.0,0.0,0.0,0.0,0.0,0.0,0.0,0.0,0.0,0.0,0.0,0.0,0.0,0.0,0.0,0.0,0.0,0.0,0.0,0.0,0.0,0.0,0.0,0.0,0.0,0.0,0.0,0.0,0.0,0.0,0.0,0.0,0.0,0.0,0.0,0.0,4.2769,4.6219,5.0957,5.3937,5.509,5.4825,5.4659,5.4659,5.1493,4.8453,0.0,0.0,0.0,0.0,0.0,0.0,0.0,0.0,0.0,0.0,0.0,0.0,0.0,0.0,0.0,0.0,0.0,0.0,0.0,0.0,0.0,0.0,0.0,0.0,0.0,0.0,0.0,0.0,0.0,0.0,0.0,0.0,0.0,0.0,0.0,0.0,0.0,0.0,0.0,0.0,0.0,0.0,4.6444,4.5582,0.0,0.0,0.0,4.6344,4.5715,0.0,0.0,0.0,0.0,0.0,0.0,0.0,0.0,0.0,0.0,0.0,0.0,0.0,0.0,0.0,0.0,0.0,0.0,0.0,0.0,0.0,0.0,0.0,0.0,0.0,0.0,0.0,0.0,0.0,0.0,0.0,0.0,0.0,0.0,0.0,0.0,0.0,0.0,0.0,0.0,0.0,0.0,0.0,0.0,0.0,0.0,0.0,0.0,0.0,0.0,0.0,0.0,0.0,0.0,0.0,0.0,0.0,4.6786,5.2782,5.5885,5.5885,5.5719,5.562,5.5554,5.2724,0.0,0.0,0.0,0.0,0.0,0.0,0.0,0.0,0.0,0.0,0.0,0.0,0.0,0.0,0.0,0.0,0.0,0.0,0.0,0.0,0.0,0.0,0.0,0.0,0.0,0.0,0.0,3.0013,0.0,0.0,0.0,0.0,0.0,0.0,0.0,0.0,0.0,0.0,0.0,0.0,0.0,0.0,4.6344,4.7802,4.6908,4.6576,0.0,0.0,4.7669,4.6775,4.969,5.0518,0.0,0.0,0.0,0.0,0.0,0.0,0.0,0.0,0.0,0.0,0.0,0.0,0.0,0.0,0.0,0.0,0.0,0.0,0.0,0.0,0.0,0.0,0.0,0.0,0.0,0.0,0.0,0.0,3.0954,0.0,0.0,0.0,0.0,0.0,0.0,0.0,0.0,0.0,0.0,0.0,0.0,0.0,0.0,0.0,0.0,0.0,0.0,0.0,0.0,0.0,0.0,0.0,0.0,0.0,4.535,4.8289,5.3778,5.6614,5.6581,5.5984,5.562,5.5587,5.3545,5.0526,0.0,0.0,0.0,0.0,0.0,0.0,0.0,0.0,0.0,0.0,0.0,0.0,0.0,0.0,0.0,0.0,0.0,0.0,0.0,0.0,0.0,0.0,0.0,0.0,0.0,0.0,0.0,0.0,0.0,0.0,0.0,0.0,0.0,0.0,0.0,0.0,0.0,0.0,0.0,0.0,0.0,4.6344,4.7802,4.7338,4.8067,0.0,4.9723,4.8895,5.1446,5.3202,5.2572,4.757,0.0,0.0,0.0,0.0,0.0,0.0,0.0,0.0,0.0,0.0,0.0,0.0,0.0,0.0,0.0,0.0,0.0,0.0,0.0,0.0,0.0,0.0,0.0,0.0,0.0,3.1347,0.0,0.0,3.0696,0.0,0.0,0.0,0.0,0.0,0.0,0.0,0.0,0.0,0.0,0.0,0.0,0.0,0.0,0.0,0.0,0.0,0.0,0.0,0.0,0.0,0.0,0.0,0.0,4.5918,4.8389,5.3878,5.668,5.668,5.6415,5.6282,5.6282,5.4741,5.2124,0.0,0.0,0.0,0.0,0.0,0.0,0.0,0.0,0.0,0.0,0.0,0.0,0.0,0.0,0.0,0.0,0.0,0.0,0.0,0.0,0.0,0.0,0.0,0.0,0.0,0.0,0.0,0.0,3.8659,3.9388,3.8924,0.0,0.0,0.0,0.0,0.0,0.0,0.0,0.0,0.0,0.0,4.8531,5.0419,5.0452,0.0,0.0,5.1777,5.1413,5.1645,5.2539,5.1777,4.757,4.5914,0.0,0.0,0.0,0.0,0.0,0.0,0.0,0.0,0.0,0.0,0.0,0.0,0.0,0.0,0.0,0.0,0.0,0.0,0.0,0.0,0.0,0.0,0.0,0.0,0.0,0.0,0.0,0.0,0.0,0.0,0.0,0.0,0.0,0.0,0.0,0.0,0.0,0.0,0.0,0.0,0.0,0.0,0.0,0.0,0.0,0.0,0.0,0.0,0.0,0.0,0.0,0.0,4.6185,4.8389,5.3878,5.6812,5.7011,5.7011,5.7111,5.7309,5.6459,5.4349,0.0,0.0,0.0,0.0,0.0,0.0,0.0,0.0,0.0,0.0,0.0,0.0,0.0,0.0,0.0,0.0,0.0,0.0,0.0,0.0,0.0,0.0,0.0,0.0,0.0,0.0,0.0,0.0,4.0713,4.0978,3.9475,0.0,0.0,0.0,0.0,0.0,0.0,0.0,0.0,0.0,0.0,5.0286,5.181,5.1678,5.1545,5.1976,5.1711,5.1347,5.1015,5.1578,5.1115,4.8332,0.0,0.0,0.0,0.0,0.0,0.0,0.0,0.0,0.0,0.0,0.0,0.0,0.0,0.0,0.0,0.0,0.0,0.0,0.0,0.0,0.0,0.0,0.0,0.0,0.0,0.0,0.0,3.1728,0.0,0.0,3.119,0.0,0.0,0.0,0.0,0.0,0.0,0.0,0.0,0.0,0.0,0.0,0.0,0.0,0.0,0.0,0.0,0.0,0.0,0.0,0.0,0.0,0.0,4.6219,4.8423,5.3911,5.7044,5.774,5.7773,5.8104,5.8767,5.88,5.7122,5.3584,0.0,0.0,0.0,0.0,0.0,0.0,0.0,0.0,0.0,0.0,0.0,0.0,0.0,0.0,0.0,0.0,0.0,0.0,0.0,0.0,0.0,0.0,0.0,0.0,0.0,0.0,3.5512,3.7665,3.9355,0.0,0.0,0.0,0.0,0.0,0.0,0.0,0.0,0.0,0.0,4.8895,5.1214,5.1313,5.0121,4.9889,5.1214,4.9061,4.7901,5.0055,5.085,5.1048,0.0,0.0,0.0,0.0,0.0,0.0,0.0,0.0,0.0,0.0,0.0,0.0,0.0,0.0,0.0,0.0,0.0,0.0,0.0,0.0,0.0,0.0,0.0,0.0,0.0,0.0,0.0,3.6388,3.5613,0.0,0.0,0.0,0.0,0.0,0.0,0.0,0.0,0.0,0.0,0.0,4.4097,4.5102,0.0,0.0,0.0,0.0,0.0,0.0,0.0,0.0,0.0,0.0,0.0,0.0,4.7888,4.9324,5.5107,5.827,5.8502,5.8535,5.8634,5.8899,5.8899,5.7255,5.3678,0.0,0.0,0.0,0.0,0.0,0.0,0.0,0.0,0.0,0.0,0.0,0.0,0.0,0.0,0.0,0.0,0.0,0.0,0.0,0.0,0.0,0.0,0.0,0.0,0.0,3.9156,0.0,0.0,0.0,0.0,0.0,0.0,0.0,0.0,0.0,0.0,0.0,4.5715,4.8398,4.9359,5.0353,5.181,5.1612,5.1976,0.0,0.0,0.0,0.0,0.0,0.0,0.0,0.0,0.0,0.0,0.0,0.0,0.0,0.0,4.6601,4.3129,4.2191,4.1903,4.1431,0.0,0.0,0.0,0.0,0.0,0.0,0.0,0.0,0.0,0.0,0.0,0.0,0.0,0.0,3.9824,0.0,3.873,0.0,0.0,0.0,0.0,0.0,0.0,0.0,0.0,4.5644,4.7554,4.8458,4.9392,4.9092,0.0,4.6987,4.4365,0.0,0.0,0.0,0.0,0.0,0.0,0.0,0.0,4.899,5.0426,5.597,5.9032,5.9264,5.9297,5.9396,5.9661,5.9661,5.8535,5.626,5.4256,5.2066,0.0,0.0,0.0,0.0,0.0,0.0,0.0,0.0,0.0,0.0,0.0,0.0,0.0,0.0,0.0,0.0,0.0,0.0,0.0,0.0,0.0,0.0,0.0,4.0845,0.0,0.0,0.0,0.0,0.0,0.0,0.0,0.0,0.0,4.333,4.5649,4.8233,5.0651,5.1214,5.1446,5.1612,0.0,0.0,0.0,0.0,0.0,0.0,0.0,4.969,5.0187,4.9525,4.926,5.0154,5.1313,5.1691,5.0455,0.0,0.0,4.621,4.5018,4.4704,4.4448,4.4599,4.467,4.467,4.5109,4.5574,0.0,0.0,0.0,0.0,0.0,0.0,0.0,0.0,4.3625,4.2946,0.0,4.1982,0.0,0.0,0.0,0.0,0.0,4.3193,0.0,0.0,5.2084,5.3805,5.272,5.2686,5.2686,5.2624,5.0727,4.9358,4.8556,4.6553,0.0,0.0,0.0,0.0,0.0,0.0,4.9591,5.1896,5.6601,5.933,5.9993,6.0059,6.039,6.1053,6.1086,6.1053,6.092,5.7764,5.5613,5.4608,4.8286,0.0,0.0,0.0,0.0,0.0,0.0,0.0,0.0,0.0,0.0,0.0,0.0,0.0,0.0,0.0,0.0,0.0,0.0,0.0,0.0,4.1508,0.0,0.0,0.0,0.0,0.0,0.0,0.0,0.0,0.0,0.0,4.5185,4.7968,5.0717,5.2075,0.0,0.0,0.0,0.0,5.2175,4.8928,4.8299,4.8398,4.8564,5.0717,5.2904,5.4295,0.0,0.0,5.6879,5.604,5.504,5.3531,5.4984,5.5113,4.9589,4.8314,4.7698,4.6946,4.7363,4.7537,4.7721,4.94,5.093,4.7432,0.0,0.0,0.0,0.0,4.5321,4.6859,4.9508,4.9018,4.8301,4.7369,4.745,0.0,0.0,0.0,0.0,0.0,0.0,4.7925,5.0292,5.2287,5.4011,5.5497,5.553,5.5497,5.5497,5.4941,5.4808,5.5107,5.4509,4.9926,4.1883,0.0,0.0,0.0,0.0,5.2597,5.4722,5.8482,6.0589,6.0788,6.0788,6.0887,6.1119,6.1119,6.1119,6.1086,6.0092,5.8283,5.5613,5.309,0.0,0.0,0.0,0.0,0.0,0.0,0.0,0.0,0.0,0.0,0.0,0.0,0.0,0.0,0.0,0.0,0.0,0.0,0.0,4.0613,4.3462,4.4092,0.0,0.0,0.0,0.0,0.0,0.0,0.0,0.0,0.0,4.9458,4.9823,5.0353,0.0,0.0,5.0618,4.9558,5.128,5.2837,5.3367,5.3434,0.0,5.5554,5.4725,5.4394,5.5819,5.721,5.7972,5.7541,5.7117,5.6478,5.541,5.5207,5.4453,5.2607,5.3235,5.3935,5.3561,5.3134,5.2773,5.2382,5.2492,5.2636,5.1462,4.8836,4.7614,4.7945,4.9257,4.8846,5.0328,5.3073,5.2568,5.1934,5.1256,5.1531,4.9809,4.6578,4.652,0.0,0.0,0.0,5.0892,5.3545,5.4309,5.553,5.7077,5.7442,5.7574,5.7541,5.7276,5.7508,5.8237,5.7421,5.3684,4.7283,0.0,0.0,4.7776,5.1829,5.4855,5.6744,5.961,6.1119,6.1119,6.1384,6.1516,6.155,6.1815,6.198,6.198,6.198,6.0953,5.8893,5.7,5.4589,0.0,0.0,0.0,0.0,0.0,0.0,0.0,0.0,0.0,0.0,0.0,4.0613,3.7731,0.0,0.0,0.0,4.3529,4.3794,4.4257,4.5847,0.0,0.0,0.0,0.0,0.0,0.0,0.0,4.7139,5.032,5.2539,5.2572,5.2175,5.2142,5.2705,5.2638,5.2241,5.138,0.0,5.5222,5.5951,5.6316,5.7044,5.8601,5.8138,5.8038,5.9496,5.9827,6.0092,6.0357,6.0074,5.935,5.8387,5.7652,5.6765,5.5421,5.6675,5.7184,5.5418,5.491,5.467,5.4281,5.4281,5.4371,5.4808,5.4589,5.1731,5.1275,5.2437,5.2471,5.3341,5.4659,5.4692,5.4334,5.3686,5.4356,5.3075,5.042,4.9263,0.0,5.1918,5.2686,5.4343,5.6713,5.7442,5.7806,5.7839,5.8535,5.8899,5.8899,5.8204,5.827,5.8866,5.7133,5.5813,5.5081,5.5122,5.4395,5.3101,5.4822,5.6578,5.8141,6.0041,6.1086,6.1285,6.1914,6.2278,6.2278,6.2908,6.3272,6.3272,6.3272,6.3272,6.3173,6.0222,5.8108,5.7177,0.0,0.0,0.0,0.0,0.0,0.0,0.0,0.0,0.0,0.0,0.0,0.0,0.0,0.0,4.7835,4.969,0.0,5.032,4.8564,0.0,0.0,0.0,4.7007,4.9226,5.1413,5.2672,5.2572,0.0,0.0,5.4858,5.4858,5.5421,5.6945,5.7475,5.6978,5.4957,5.7111,5.8568,5.7342,5.774,5.8502,5.9463,6.0821,6.2245,6.3471,6.3736,6.3305,6.3595,6.3243,6.2468,6.0963,6.0924,6.0173,5.8279,5.8321,5.7812,5.4341,5.4192,5.461,5.461,5.5388,5.6107,5.7877,5.7808,5.7051,5.5996,5.4782,5.4782,5.5306,5.615,5.6183,5.6136,5.5954,5.6094,5.6079,5.5944,5.6196,5.6312,5.6326,5.6492,5.6658,5.6746,5.7442,5.7806,5.7839,5.8568,5.8899,5.8866,5.8701,5.9032,5.9694,5.9311,5.8727,5.8186,5.8589,5.7083,5.3837,5.5269,5.703,5.8952,5.9937,6.1252,6.2676,6.2908,6.3007,6.304,6.3173,6.3272,6.3272,6.3272,6.3272,6.3239,6.2529,6.1551,6.0303,5.3828,0.0,0.0,0.0,0.0,0.0,0.0,0.0,0.0,0.0,4.4953,4.0945,0.0,4.5682,0.0,5.2672,5.403,5.128,5.1512,0.0,0.0,4.9558,5.0021,5.2142,5.4328,5.5222,5.4129,5.5786,5.721,5.7773,5.7839,5.8601,6.0523,5.8601,5.6746,5.6282,5.8701,6.049,6.0258,6.1119,6.2013,6.2212,6.261,6.3206,6.3471,6.3405,6.3078,6.2468,6.1547,6.0551,5.9451,5.8613,5.7928,5.7528,5.7483,5.7334,5.6406,5.6735,5.7034,5.6526,5.6675,5.6855,5.8732,5.8458,5.9116,5.8492,5.706,5.7063,5.7087,5.721,5.7541,5.7674,5.7674,5.7674,5.7906,5.8303,5.8701,5.8502,5.7839,5.8138,5.7873,5.7243,5.827,5.8767,5.88,5.9529,5.9893,5.9893,5.9893,6.0092,6.049,6.049,6.0506,6.0521,6.0859,5.9767,5.7372,5.7144,5.7345,5.783,5.9452,6.1301,6.3206,6.3603,6.3093,6.1501,6.278,6.2647,6.1135,6.2033,6.2099,6.1135,6.1068,6.0784,5.9998,5.5375,5.287,0.0,0.0,0.0,0.0,0.0,0.0,0.0,0.0,0.0,0.0,0.0,4.8862,4.9558,5.4229,5.5686,5.2108,5.3069,5.393,5.403,5.3765,5.456,5.7044,5.8104,5.8469,5.7972,5.8999,6.0026,6.0755,6.0854,6.1384,6.2941,6.1682,6.0324,5.9926,6.1616,6.314,6.3504,6.42,6.4862,6.5127,6.5194,6.5094,6.4796,6.473,6.4421,6.3523,6.3231,6.2554,6.1002,6.0197,5.9631,5.8984,5.8351,5.8082,5.8381,5.8471,5.8171,5.7304,5.7094,5.7094,5.8773,5.8371,5.977,5.9944,5.9151,5.9375,5.8841,5.783,5.8416,5.8668,5.8767,5.8866,5.8933,5.9032,5.9131,5.8767,5.8138,5.8734,5.8634,5.8038,5.9363,5.9993,6.0026,6.0755,6.1119,6.1119,6.1185,6.1251,6.1251,6.1351,6.1616,6.2098,6.2182,6.18,6.095,5.937,5.792,5.678,5.9097,6.1235,6.3027,6.3524,6.2315,5.9405,6.1883,6.1899,5.8953,6.0625,6.0792,5.8886,5.8752,5.8819,5.8953,5.6794,5.5291,0.0,5.1866,0.0,0.0,0.0,0.0,0.0,0.0,0.0,0.0,5.35,5.3169,5.1214,5.5222,5.668,5.3632,5.4494,5.6183,5.8568,5.8403,5.9131,6.1649,6.155,6.1516,6.2212,6.2312,6.261,6.3206,6.3471,6.3802,6.4399,6.516,6.5028,6.4167,6.4829,6.579,6.6585,6.6651,6.6684,6.7214,6.7479,6.7247,6.6751,6.6337,6.6146,6.5213,6.539,6.5218,6.3426,6.2652,6.2383,6.1318,6.0116,5.9578,6.0027,5.9727,5.9039,5.7962,5.7663,5.7513,6.0041,6.0559,6.15,6.1465,6.0876,6.2057,6.0735,5.7756,5.732,5.7442,5.8038,5.8634,5.9231,5.9827,6.0423,6.0291,5.9595,5.9728,5.9396,5.8734,5.9595,5.9993,6.0059,6.0755,6.1119,6.1152,6.1682,6.198,6.198,6.2577,6.2429,6.1567,6.2038,6.111,5.902,0.0,0.0,0.0,6.0018,6.0702,6.16,6.0898,6.0111,5.9476,6.116,0.0,6.1093,6.1461,6.1494,6.106,6.1026,0.0,0.0,0.0,0.0,0.0,0.0,0.0,0.0,0.0,0.0,0.0,5.4361,5.4262,5.499,5.6216,5.6547,5.562,5.7442,5.8668,5.8601,5.88,5.8933,5.8899,5.9297,6.0059,6.1185,6.1682,6.2245,6.2974,6.3073,6.3372,6.4133,6.463,6.5061,6.5359,6.685,6.7645,6.6883,6.6982,6.7247,6.7413,6.7479,6.7479,6.7612,6.7678,6.7711,6.7321,6.6602,6.5837,6.4927,6.4089,6.3183,6.1995,6.1528,6.1588,6.1246,6.0894,6.0715,6.0894,6.0805,6.0475,5.9697,5.9518,5.9668,6.0535,0.0,6.1812,6.1848,0.0,6.1979,6.0994,5.889,5.9329,5.9431,5.9463,5.9827,6.0191,6.0556,6.0953,6.0887,6.0556,6.092,6.0688,6.0059,6.1119,6.1417,6.1086,6.1815,6.2179,6.2212,6.2543,6.2709,6.2742,6.3107,6.3192,6.2879,6.315,6.2999,6.2399,6.3785,6.3533,6.1465,6.1383,6.2,6.3278,6.3097,6.2149,6.0565,6.2532,0.0,0.0,0.0,0.0,0.0,0.0,0.0,0.0,0.0,0.0,6.0118,5.7886,5.6844,5.7797,5.7487,5.8138,6.0291,6.0456,5.986,5.8469,5.9661,6.0357,5.9993,6.0622,6.1218,6.1583,6.1616,6.1616,6.1616,6.1616,6.1914,6.2577,6.2709,6.314,6.4133,6.4332,6.473,6.5856,6.6254,6.6651,6.6982,6.7943,6.8705,6.8705,6.8705,6.8705,6.8705,6.8705,6.8705,6.8705,6.8705,6.8539,6.8181,6.7937,6.7491,6.668,6.6199,6.547,6.4429,6.3556,6.288,6.2505,6.1792,6.1194,6.1463,6.1343,6.1194,6.1014,6.0835,6.0685,6.1341,6.1163,6.2385,6.2606,6.2119,6.2015,6.1495,6.0858,0.0,0.0,0.0,6.1135,6.1119,6.1119,6.1218,6.1285,6.1351,6.2047,6.2047,6.155,6.2709,6.3007,6.261,6.3173,6.3537,6.367,6.3637,6.3637,6.367,6.3802,6.42,6.4895,6.5028,6.5757,6.7082,6.8142,6.704,6.3809,6.323,6.3776,6.5359,6.5846,6.464,6.1567,6.4181,6.4167,6.1294,6.2865,6.2732,6.0357,6.019,6.0057,5.961,5.9577,6.0545,6.2515,6.1883,6.2199,6.3962,6.3259,6.357,6.5492,6.5724,6.4697,6.208,6.2842,6.3471,6.3471,6.3338,6.3272,6.3272,6.3272,6.3504,6.4133,6.3736,6.3736,6.4399,6.42,6.4432,6.5525,6.5823,6.622,6.7347,6.7678,6.8009,6.8539,6.8771,6.9069,6.9633,6.9699,6.9666,6.9666,6.9599,6.9732,6.9798,6.9898,6.9699,6.9268,6.9508,6.961,6.8894,6.8691,6.8202,6.6667,6.5633,6.4736,6.415,6.2989,6.2061,6.251,6.2181,6.1972,6.2391,6.2211,6.1822,6.3801,6.5048,6.5229,6.5619,6.6109,6.5407,6.4565,6.3632,6.14,6.068,6.1211,6.1211,6.1186,6.1119,6.1748,6.2013,6.208,6.2775,6.3073,6.2974,6.3173,6.357,6.4067,6.4167,6.4531,6.5094,6.5127,6.5094,6.5194,6.5757,6.6452,6.7148,6.7777,6.8473,6.9235,6.8904,6.8705,6.8639,6.6434,6.5392,6.5603,6.4647,6.3684,6.2649,6.4218,6.4638,6.3467,6.3768,6.3668,6.3267,6.3233,6.3651,6.4581,6.4614,6.5326,6.6609,6.5989,6.5757,6.6022,6.5392,6.5359,6.6287,6.6949,6.6585,6.4995,6.4399,6.42,6.42,6.3769,6.3272,6.3272,6.3372,6.3504,6.3603,6.3968,6.4498,6.5227,6.5724,6.6287,6.7115,6.7314,6.7314,6.7711,6.8208,6.8572,6.8771,6.9202,6.9666,6.9798,6.9798,6.9798,6.9798,6.9798,6.9798,6.9931,7.0361,7.0593,7.0626,7.0403,7.0058,6.911,6.8197,6.7237,6.5784,6.5313,6.4991,6.4874,6.4725,6.4336,6.4395,6.4216,6.4306,6.4395,6.4276,6.3977,6.3799,6.4444,6.4427,6.4653,6.4926,6.4585,6.4381,6.4343,6.3494,6.2809,6.2379,6.2297,6.2366,6.2278,6.261,6.3007,6.3405,6.3703,6.4067,6.4465,6.4862,6.5227,6.5558,6.5955,6.632,6.6585,6.6618,6.6618,6.6684,6.7347,6.7877,6.8241,6.8937,6.9864,7.0891,7.0659,7.1057,7.2084,6.9362,6.7903,6.7903,6.7729,6.7488,6.7155,6.8219,6.8652,6.8286,6.7887,6.7488,6.7089,6.6689,6.659,6.6675,6.6709,6.7007,6.7579,6.7314,6.7115,6.7148,6.6817,6.6751,6.7082,6.7446,6.7347,6.6684,6.6287,6.6121,6.6154,6.5823,6.5624,6.5624,6.5624,6.5624,6.5624,6.5955,6.6254,6.6552,6.6883,6.738,6.8042,6.8208,6.8341,6.8771,6.9103,6.9301,6.9301,6.9633,6.9931,7.0328,7.0394,7.0229,6.9931,7.0129,7.0361,7.0428,7.1024,7.1421,7.1488,7.1688,7.1546,7.0993,6.988,6.8695,6.8073,6.6812,6.5712,6.5562,6.5263,6.5084,6.5024,6.5024,6.5024,6.5024,6.5024,6.4814,6.4218,6.4388,6.4355,6.4371,6.4404,6.4956,6.5256,6.5304,6.6244,6.5786,6.4341,6.4133,6.39,6.3537,6.367,6.4067,6.4564,6.4763,6.5194,6.5922,6.6519,6.6949,6.7281,6.7877,6.8274,6.8539,6.8473,6.8374,6.844,6.8904,6.9368,6.9699,7.0262,7.1189,7.2448,7.2316,7.2879,7.3972,7.2084,7.0958,7.0792,7.1355,7.1554,7.1455,7.1918,7.2183,7.1985,7.1455,7.0891,7.0328,6.9732,6.9169,6.8639,6.8606,6.8606,6.8606,6.8473,6.8274,6.8142,6.8274,6.8374,6.8374,6.8374,6.8374,6.8341,6.8208,6.7943,6.7711,6.7512,6.7546,6.7479,6.7512,6.7612,6.7612,6.7777,6.7811,6.7844,6.8009,6.8307,6.8837,6.8937,6.9169,6.9633,6.9798,6.9864,6.9997,7.0163,7.056,7.1024,7.1156,7.0891,7.0626,7.0792,7.1123,7.1189,7.1786,7.2183,7.225,7.2846,7.2909,7.2634,7.1703,7.0648,6.9879,6.8249,6.6824,6.6462,6.6131,6.5951,6.6101,6.6251,6.6101,6.6161,6.6161,6.5622,6.6806,6.7512,6.7475,6.7679,6.778,6.9774,6.9401,6.781,6.9056,6.8812,6.7255,6.6704,6.5759,6.454,6.4962,6.5326,6.5492,6.6022,6.6751,6.7413,6.7479,6.8208,6.9368,6.9566,7.0295,7.1289,7.0825,7.0461,7.0461,7.0626,7.1355,7.2548,7.278,7.3144,7.3807,7.3343,7.3409,7.4171,7.4568,7.4436,7.3807,7.384,7.3575,7.2945,7.2978,7.268,7.2216,7.1918,7.1885,7.1819,7.172,7.1653,7.1587,7.1587,7.1587,7.1554,7.0958,7.0328,6.9732,7.0229,7.056,7.0593,7.0527,7.0527,7.0494,6.9964,6.9003,6.8109,6.7711,6.7744,6.7645,6.7678,6.7777,6.7844,6.8274,6.8572,6.8705,6.9202,6.9633,6.9666,6.9765,6.9732,6.9931,6.9964,7.0163,7.0726,7.1223,7.162,7.1852,7.1885,7.1951,7.1819,7.1918,7.1918,7.2018,7.2515,7.2945,7.3078,7.3575,7.3569,7.2776,7.2282,7.1625,6.9765,6.8889,6.8211,6.7877,6.7717,6.7837,6.7926,6.8166,6.8465,6.8585,6.8405,6.7597,6.7175,6.8024,6.8023,6.8315,6.8794,6.9164,6.922,6.9301,7.0923,7.1131,7.0591,7.1222,6.9947,6.704,6.7214,6.7579,6.8009,6.8307,6.8871,6.9533,6.9566,7.0129,7.1024,7.1123,7.1455,7.1951,7.1686,7.1554,7.162,7.1985,7.2713,7.3575,7.3343,7.3707,7.4668,7.4105,7.427,7.5397,7.5728,7.5529,7.4966,7.5231,7.5297,7.5032,7.4999,7.4867,7.4502,7.374,7.3475,7.384,7.3111,7.2846,7.3276,7.3276,7.3276,7.3276,7.3011,7.2515,7.1819,7.2051,7.2018,7.1587,7.1554,7.1554,7.1554,7.1256,7.0825,7.0262,6.9434,6.8904,6.8937,6.8904,6.8904,6.8937,6.9169,6.95,6.9964,7.0262,7.0593,7.1024,7.109,7.109,7.109,7.109,7.1223,7.1521,7.1885,7.2183,7.2548,7.2647,7.2846,7.3177,7.3276,7.3078,7.2813,7.3276,7.3641,7.3773,7.3972,7.3698,7.2794,7.2119,7.1312,6.9618,6.9212,6.894,6.859,6.8585,6.8704,6.9034,6.9004,6.9004,6.9004,6.9004,6.8375,6.7624,6.8261,6.867,6.9679,7.0723,7.0293,7.0565,7.1542,7.2942,7.3344,7.3126,7.4083,7.2999,7.0523,6.9903,7.0003,7.0409,7.0192,7.0494,7.1156,7.1189,7.1587,7.225,7.2316,7.2415,7.2581,7.2614,7.2713,7.2912,7.3409,7.4072,7.4568,7.4237,7.4436,7.5132,7.4701,7.4867,7.5628,7.5927,7.5794,7.543,7.596,7.6125,7.5794,7.5728,7.5728,7.5695,7.4734,7.4502,7.5198,7.427,7.4038,7.4701,7.4767,7.4734,7.4767,7.4767,7.4535,7.4005,7.3972,7.3773,7.3243,7.3045,7.2912,7.2879,7.2713,7.2614,7.2481,7.1587,7.0924,7.0428,7.0394,7.0394,7.0394,7.0394,7.0659,7.109,7.1189,7.1388,7.1918,7.1852,7.2018,7.2018,7.2117,7.2283,7.2316,7.2515,7.2746,7.3243,7.3409,7.3575,7.4072,7.4138,7.3939,7.3541,7.374,7.4138,7.4136,7.4067,7.3646,7.2842,7.2269,7.1468,7.039,6.9823,6.9441,6.934,6.9273,6.9363,6.9482,6.9512,6.9512,6.9692,6.9572,6.9542,6.8633,6.9027,7.055,7.2573,7.49,7.5423,7.5359,7.4682,7.5649,7.5471,7.4653,7.4069,7.3831,7.4145,7.2858,7.2191,7.2076,7.137,7.1516,7.2147,7.2083,7.2349,7.3045,7.3078,7.3409,7.3939,7.4072,7.4403,7.4999,7.5132,7.5529,7.6092,7.596,7.5761,7.5363,7.5198,7.49,7.4668,7.5165,7.5363,7.5363,7.5927,7.5628,7.4535,7.4337,7.4469,7.4403,7.427,7.4535,7.5264,7.5165,7.543,7.6092,7.6159,7.6125,7.6125,7.6159,7.6125,7.6026,7.5927,7.5894,7.5827,7.5065,7.4999,7.4668,7.4204,7.3873,7.4005,7.3707,7.3144,7.2117,7.1819,7.1753,7.1753,7.1819,7.1852,7.1951,7.1951,7.1951,7.2117,7.2216,7.225,7.215,7.2647,7.2978,7.3177,7.3608,7.4005,7.3939,7.4038,7.4138,7.4204,7.4237,7.4171,7.4138,7.427,7.427,7.44,7.4418,7.349,7.3283,7.2876,7.197,7.1189,7.071,7.0274,7.0037,7.0021,7.0201,7.032,7.047,7.053,7.035,7.0679,7.062,7.2334,7.2858,7.2903,7.4139,7.5861,7.5574,7.5732,7.6538,7.731,7.7495,7.7293,7.746,7.7719,7.7846,7.678,7.5544,7.4484,7.4046,7.4371,7.5043,7.4545,7.4426,7.4631,7.4639,7.4602,7.49,7.533,7.5662,7.5894,7.5927,7.5827,7.5662,7.5867,7.5734,7.5433,7.5502,7.5535,7.5529,7.5827,7.5728,7.5297,7.5734,7.5369,7.4303,7.5065,7.5632,7.5768,7.5234,7.5198,7.5894,7.5529,7.5595,7.6225,7.6291,7.6291,7.6291,7.6291,7.6125,7.5728,7.5628,7.543,7.4966,7.4734,7.4635,7.4535,7.4337,7.4171,7.4171,7.4171,7.384,7.3508,7.2978,7.2515,7.2117,7.2018,7.225,7.2581,7.2713,7.2879,7.3276,7.3376,7.3376,7.3343,7.3641,7.3773,7.3807,7.4005,7.4171,7.4171,7.4171,7.4403,7.4767,7.49,7.5065,7.5529,7.5132,7.4999,7.5327,7.524,7.4204,7.3674,7.3334,7.2582,7.0953,7.0607,7.0754,7.041,7.044,7.0679,7.0709,7.0919,7.0919,7.0889,7.0919,7.0919,7.453,7.5548,7.4868,7.5768,7.7393,7.676,7.7087,7.8176,7.8705,7.8952,7.9034,7.9311,7.9471,7.9196,7.8132,7.7313,7.6445,7.6182,7.6182,7.6386,7.6042,7.5923,7.5836,7.604,7.5971,7.5765,7.6059,7.6291,7.6291,7.6291,7.6059,7.5662,7.5834,7.5701,7.5433,7.5604,7.577,7.5731,7.5834,7.5568,7.517,7.5238,7.5105,7.4772,7.5336,7.5834,7.6038,7.5369,7.5367,7.5897,7.5632,7.5595,7.6225,7.6291,7.6291,7.6291,7.6291,7.6125,7.5695,7.5595,7.543,7.4933,7.4867,7.4867,7.4867,7.4867,7.4867,7.4867,7.4867,7.48,7.4502,7.4105,7.3508,7.2879,7.2713,7.2879,7.3376,7.3442,7.3674,7.3972,7.4072,7.4105,7.4171,7.4138,7.427,7.4469,7.4535,7.4568,7.48,7.4867,7.4999,7.5496,7.5595,7.5927,7.6357,7.6258,7.5794,7.6021,7.5964,7.4917,7.393,7.3601,7.2759,7.1153,7.053,7.0769,7.0919,7.0919,7.0919,7.0919,7.0919,7.0919,7.0919,7.0919,7.0919,7.4769,7.6814,7.6277,7.7473,7.9387,7.9458,7.975,7.9822,7.9857,7.9921,7.9949,7.9175,7.9117,7.8476,7.7505,7.6929,7.7857,7.7623,7.6905,7.5973,7.653,7.6705,7.6573,7.7412,7.7212,7.6324,7.6357,7.6357,7.6424,7.6357,7.6258,7.6258,7.6329,7.5997,7.5264,7.5637,7.5337,7.4904,7.5139,7.5072,7.4639,7.4806,7.4972,7.5134,7.4938,7.4772,7.4706,7.4439,7.4771,7.5471,7.5333,7.5595,7.6026,7.6125,7.6192,7.6125,7.6192,7.6225,7.6225,7.6159,7.6092,7.6059,7.6192,7.6059,7.6026,7.6092,7.6092,7.6059,7.6059,7.5927,7.5397,7.5198,7.4833,7.4303,7.3972,7.4072,7.4072,7.4171,7.4204,7.4303,7.4403,7.4237,7.4237,7.4403,7.4701,7.5132,7.5297,7.543,7.586,7.5927,7.6192,7.6291,7.6357,7.6622,7.7053,7.7351,7.692,7.6584,7.6234,7.5552,7.4371,7.3666,7.2767,7.1262,7.0679,7.0919,7.0919,7.0919,7.0919,7.0919,7.0919,7.0919,7.0919,7.0919,7.0919,7.8258,7.8963,7.8751,7.9143,7.9899,7.9899,8.0185,8.072,8.072,8.1006,8.1319,8.1195,8.1033,8.0917,8.0386,8.0069,8.002,8.0324,7.9635,7.8298,7.8332,7.8434,7.836,7.8545,7.8153,7.7158,7.7053,7.7053,7.692,7.6556,7.6291,7.6324,7.6737,7.6371,7.5637,7.6442,7.6676,7.6341,7.6274,7.6173,7.6038,7.5773,7.5606,7.5572,7.5236,7.5033,7.5033,7.4672,7.4606,7.4972,7.4738,7.4635,7.4833,7.4833,7.4833,7.4833,7.4833,7.5098,7.5529,7.5628,7.586,7.6192,7.6291,7.6291,7.6291,7.6291,7.6291,7.6291,7.6291,7.6192,7.6026,7.5993,7.5463,7.4337,7.4602,7.4734,7.4436,7.4668,7.5132,7.5562,7.5628,7.5628,7.5595,7.5595,7.5628,7.5894,7.5993,7.6159,7.6291,7.6457,7.6589,7.692,7.7053,7.7252,7.7682,7.7947,7.7749,7.7484,7.7148,7.6038,7.4765,7.3917,7.283,7.1728,7.1148,7.0919,7.0919,7.0919,7.0919,7.0919,7.0919,7.0919,7.0919,7.0919,7.0919,7.9599,8.0207,8.0207,8.0483,8.0756,8.0756,8.1041,8.147,8.1505,8.1791,8.2112,8.2183,8.2183,8.2103,8.1861,8.1555,8.1258,8.155,8.1086,8.0202,8.0268,8.0064,7.9522,7.8688,7.8488,7.7984,7.737,7.7134,7.7278,7.6701,7.6266,7.6038,7.6675,7.6709,7.6007,7.6977,7.748,7.7246,7.7246,7.7178,7.7078,7.681,7.6575,7.6475,7.597,7.5833,7.5968,7.5538,7.5072,7.4805,7.4605,7.4568,7.4602,7.4867,7.4966,7.4966,7.4999,7.5231,7.5595,7.5761,7.5827,7.6225,7.6291,7.6291,7.6291,7.6291,7.6291,7.6291,7.6291,7.6291,7.6291,7.6291,7.586,7.5098,7.5397,7.543,7.5098,7.5363,7.5761,7.6125,7.6258,7.6291,7.6291,7.6324,7.6457,7.6622,7.6722,7.692,7.702,7.7152,7.745,7.7682,7.7782,7.8047,7.8378,7.8477,7.8477,7.8378,7.8238,7.6683,7.5168,7.4581,7.3749,7.1855,7.0919,7.0919,7.0919,7.0919,7.0919,7.0919,7.0919,7.0919,7.0919,7.0919,7.0949,7.9443,8.0801,8.0922,8.1355,8.2076,8.204,8.2112,8.2255,8.2255,8.2362,8.2433,8.2576,8.2469,8.2236,8.1886,8.1832,8.1874,8.1539,8.1638,8.1826,8.1942,8.1443,7.996,7.9061,7.8819,7.8688,7.7514,7.6944,7.7273,7.6977,7.6341,7.5706,7.681,7.7045,7.6776,7.7312,7.7816,7.7548,7.7882,7.8049,7.7647,7.7546,7.7545,7.7675,7.6673,7.644,7.6974,7.6541,7.5839,7.5238,7.5337,7.5433,7.543,7.596,7.6159,7.6092,7.6258,7.6258,7.6324,7.6357,7.649,7.6655,7.6689,7.6424,7.6655,7.6722,7.6722,7.6689,7.6655,7.6589,7.6589,7.6622,7.6523,7.6457,7.6291,7.6225,7.6424,7.6424,7.6523,7.6556,7.6457,7.649,7.6655,7.6622,7.692,7.7252,7.7484,7.7715,7.8014,7.8113,7.8378,7.8411,7.8312,7.8345,7.8511,7.8511,7.8511,7.8511,7.8296,7.699,7.5061,7.4351,7.3627,7.1855,7.0919,7.0919,7.0919,7.0919,7.0919,7.0919,7.0919,7.0919,7.1068,7.1218,7.1457,8.1402,8.1825,8.1825,8.1942,8.2183,8.2183,8.2576,8.304,8.3075,8.3397,8.3825,8.3967,8.386,8.3886,8.365,8.3745,8.3648,8.3515,8.367,8.4016,8.4077,8.2559,8.1101,8.1332,8.05,7.8784,7.8473,7.8551,7.7951,7.7313,7.7145,7.7446,7.7749,7.8153,7.822,7.896,7.9161,7.8757,7.9061,7.8657,7.7715,7.7546,7.7277,7.6871,7.6702,7.6834,7.7134,7.7143,7.6944,7.6441,7.6338,7.6266,7.6163,7.6291,7.6457,7.6424,7.639,7.6589,7.702,7.7119,7.7351,7.7881,7.7782,7.7914,7.7914,7.7914,7.7947,7.7947,7.7947,7.7881,7.7914,7.7881,7.7881,7.7815,7.7053,7.6821,7.7517,7.7484,7.7318,7.7815,7.7848,7.7815,7.7782,7.7815,7.7881,7.808,7.8179,7.8212,7.8444,7.8511,7.8511,7.8511,7.8444,7.8477,7.8511,7.8511,7.8511,7.8511,7.8046,7.7213,7.5061,7.3169,7.2204,7.0889,7.0919,7.0919,7.0919,7.0919,7.0919,7.0979,7.1248,7.1457,7.1757,7.1996,7.2295,8.2897,8.3218,8.3218,8.3218,8.3218,8.3218,8.3468,8.3825,8.3896,8.4146,8.4538,8.4692,8.4773,8.4738,8.4819,8.4819,8.4819,8.4819,8.49,8.498,8.4944,8.359,8.1945,8.1977,8.0801,7.9118,7.8428,7.8108,7.7976,7.7277,7.7279,7.7614,7.8185,7.8555,7.8825,7.9364,7.9566,7.9228,7.9331,7.8926,7.788,7.7779,7.7813,7.7376,7.7374,7.7273,7.7644,7.8253,7.8051,7.7311,7.7242,7.734,7.7237,7.74,7.7533,7.7428,7.7428,7.7556,7.7749,7.7881,7.808,7.8411,7.8511,7.8511,7.8477,7.8511,7.8511,7.8477,7.8511,7.8511,7.8511,7.8511,7.8511,7.8345,7.7749,7.7583,7.8477,7.8113,7.8113,7.8378,7.8511,7.8511,7.8511,7.8511,7.8511,7.8511,7.8444,7.8477,7.8511,7.8511,7.8511,7.8511,7.8511,7.8511,7.8511,7.8511,7.8296,7.8296,7.6846,7.6281,7.4826,7.258,7.1631,7.0889,7.0889,7.0919,7.0979,7.1038,7.1128,7.1308,7.1667,7.2056,7.2355,7.2744,7.3043,8.3932,8.461,8.461,8.461,8.462,8.4656,8.4549,8.4656,8.462,8.462,8.4773,8.4819,8.49,8.498,8.506,8.5218,8.5218,8.5139,8.5218,8.5218,8.5147,8.4273,8.2793,8.1624,8.0754,8.0025,7.772,7.7952,7.8347,7.7726,7.7198,7.7668,7.804,7.8382,7.8957,7.916,7.9058,7.8957,7.9126,7.8486,7.7807,7.7773,7.7979,7.8114,7.8116,7.8151,7.8758,7.9365,7.9128,7.7581,7.8151,7.835,7.8484,7.9053,7.9046,7.8769,7.8597,7.8558,7.8477,7.8411,7.8477,7.8511,7.8511,7.8511,7.8511,7.8511,7.8511,7.8511,7.8511,7.8511,7.8511,7.8511,7.8511,7.8477,7.8444,7.8477,7.8511,7.8511,7.8511,7.8511,7.8511,7.8511,7.8511,7.8511,7.8511,7.8511,7.8511,7.8511,7.8511,7.8511,7.8511,7.8511,7.8511,7.8511,7.8511,7.8511,7.8296,7.7938,7.5791,7.4589,7.4231,7.258,7.1503,7.0919,7.0919,7.1038,7.1188,7.1278,7.1338,7.1846,7.2355,7.2624,7.2894,7.3343,7.3702,8.4513,8.4819,8.4819,8.49,8.506,8.506,8.506,8.506,8.506,8.506,8.506,8.5139,8.5139,8.5139,8.5218,8.5218,8.5218,8.5218,8.5297,8.5417,8.5644,8.5111,8.4064,8.3203,8.2383,8.1453,8.1464,8.1205,8.0638,7.9668,7.9608,7.9411,7.8332,7.8348,7.8991,7.8957,7.8788,7.845,7.8754,7.8044,7.6961,7.7435,7.7807,7.7739,7.8317,7.9128,7.9702,8.0006,7.9939,7.9635,7.9431,7.9363,7.9224,7.9392,7.9251,7.9041,7.8936,7.883,7.8511,7.8511,7.8511,7.8511,7.8511,7.8511,7.8511,7.8511,7.8511,7.8511,7.8511,7.8511,7.8511,7.8511,7.8511,7.8511,7.8511,7.8511,7.8511,7.8511,7.8511,7.8511,7.8511,7.8511,7.8544,7.861,7.861,7.8544,7.8577,7.8544,7.8544,7.8544,7.8577,7.861,7.8511,7.8511,7.8403,7.8155,7.7577,7.699,7.4944,7.3292,7.2922,7.2455,7.1247,7.0919,7.0919,7.1068,7.1218,7.1487,7.1577,7.2295,7.2984,7.3253,7.3522,7.3941,7.433,8.4819,8.506,8.506,8.5139,8.5218,8.5218,8.5218,8.5218,8.5218,8.5218,8.5218,8.5261,8.5339,8.5375,8.5453,8.5567,8.5567,8.5567,8.5567,8.5721,8.5797,8.5608,8.5067,8.4431,8.3479,8.2401,8.1857,8.1628,8.1061,8.0155,7.9166,7.9338,7.8088,7.8209,7.8754,7.8517,7.8077,7.801,7.7976,7.7401,7.6657,7.6995,7.7841,7.8044,7.8991,7.9837,8.0141,8.0175,8.0209,8.0209,8.0107,7.9904,7.9801,7.9801,7.9596,7.9284,7.9146,7.8936,7.8617,7.8511,7.8511,7.8511,7.8511,7.8511,7.8511,7.8511,7.8511,7.8511,7.8511,7.8511,7.8511,7.8511,7.8511,7.8511,7.8544,7.8511,7.8544,7.8511,7.8511,7.8511,7.8511,7.8742,7.8875,7.8809,7.8974,7.9041,7.9537,7.9471,7.8742,7.8742,7.8742,7.8709,7.8577,7.8403,7.8296,7.7796,7.6734,7.5791,7.4231,7.2798,7.1855,7.1503,7.0889,7.0919,7.0919,7.0979,7.1158,7.1457,7.1936,7.2535,7.3133,7.3672,7.421,7.4689,7.5048,8.4952,8.5218,8.5075,8.5189,8.5297,8.5297,8.5297,8.5297,8.5297,8.5375,8.5297,8.5531,8.5608,8.5608,8.5797,8.5909,8.5909,8.5909,8.5833,8.5909,8.5909,8.5608,8.5339,8.4872,8.4231,8.312,8.2275,8.1555,8.0701,7.9406,7.8979,7.8236,7.7169,7.7333,7.8111,7.7841,7.7502,7.7908,7.7807,7.7468,7.7198,7.7367,7.8111,7.9092,7.9667,8.0073,8.0175,8.0209,8.0209,8.0209,8.0209,8.0209,8.0209,8.0209,8.0006,7.9388,7.9388,7.9074,7.8617,7.8511,7.8511,7.8511,7.8511,7.861,7.8676,7.8776,7.8809,7.8776,7.8776,7.8776,7.8709,7.9007,7.8908,7.8776,7.8709,7.8742,7.8809,7.8776,7.8742,7.8511,7.8544,7.8709,7.8974,7.9074,7.9306,7.9571,8.0067,8.0134,7.9306,7.8842,7.8776,7.8742,7.8577,7.7938,7.7687,7.6846,7.5906,7.4707,7.3292,7.233,7.1247,7.1148,7.0919,7.0919,7.0919,7.1009,7.1278,7.1727,7.2206,7.2774,7.3432,7.4091,7.4749,7.5437,7.5707,8.4685,8.5381,8.4732,8.4917,8.5648,8.5797,8.5721,8.5797,8.5721,8.5797,8.5797,8.5797,8.5797,8.5797,8.5873,8.5909,8.5909,8.5909,8.5909,8.5909,8.5909,8.5608,8.5067,8.5339,8.4988,8.4396,8.3685,8.3045,8.1782,8.0753,7.9355,7.8189,7.6828,7.669,7.7401,7.7536,7.7807,7.8145,7.8247,7.8145,7.801,7.8416,7.8957,7.9837,8.0107,8.0175,8.0209,8.0209,8.0209,8.0209,8.0209,8.0209,8.0209,8.0209,7.9904,7.9596,7.9388,7.9179,7.8724,7.8511,7.8511,7.8511,7.8511,7.8842,7.9173,7.9405,7.9339,7.9438,7.9438,7.9438,7.9471,7.9802,7.9902,7.967,7.9471,7.9637,7.9935,7.9736,7.9239,7.8941,7.8742,7.8742,7.9173,7.9405,7.9471,7.9571,7.9769,7.9637,7.8941,7.8676,7.8676,7.861,7.8544,7.7687,7.699,7.5906,7.4707,7.3659,7.2455,7.1728,7.1018,7.0889,7.0919,7.0919,7.1009,7.1128,7.1487,7.1936,7.2624,7.3253,7.3911,7.454,7.5168,7.5736,7.6066,8.4304,8.4455,8.4455,8.482,8.5293,8.5728,8.5909,8.5909,8.5909,8.5909,8.5909,8.5909,8.5909,8.5909,8.5909,8.5909,8.5909,8.5909,8.5909,8.5909,8.5909,8.5721,8.5182,8.5721,8.5608,8.5225,8.5111,8.4201,8.2488,8.0781,7.9566,7.8396,7.7203,7.7096,7.7435,7.7807,7.8213,7.8483,7.8585,7.8619,7.8619,7.9295,7.987,8.0073,8.0209,8.0209,8.0209,8.0209,8.0209,8.0209,8.0209,8.0209,8.0209,8.0209,8.0006,7.9699,7.9596,7.9388,7.9074,7.8969,7.8969,7.8724,7.8724,7.875,7.9041,7.9339,7.9836,8.0101,8.0167,8.0167,8.02,8.0531,8.0465,8.0299,8.0167,8.0366,8.0531,8.0366,8.0001,7.9637,7.9802,7.9869,7.9769,7.9869,7.9736,7.9637,7.9571,7.9173,7.8643,7.8643,7.8709,7.8469,7.8296,7.7434,7.654,7.5306,7.4022,7.2705,7.2098,7.1358,7.0979,7.1038,7.0979,7.0919,7.1038,7.1278,7.1577,7.1996,7.2864,7.3702,7.43,7.4899,7.5497,7.6006,7.6425,8.3732,8.3519,8.4026,8.4388,8.4786,8.5366,8.5764,8.5873,8.5909,8.5909,8.5909,8.5909,8.5909,8.5909,8.5909,8.5909,8.5909,8.5909,8.5909,8.5909,8.5909,8.5909,8.5909,8.5909,8.5797,8.5761,8.5395,8.4685,8.2773,8.1113,7.9548,7.8396,7.8031,7.7976,7.7976,7.8179,7.8619,7.8754,7.8788,7.8822,7.9329,7.987,8.0209,8.0209,8.0209,8.0209,8.0209,8.0209,8.0209,8.0209,8.0209,8.0209,8.0209,8.0209,8.0107,7.9904,7.9801,7.9699,7.9492,7.9388,7.9179,7.8936,7.8902,7.8857,7.9347,7.9935,8.0465,8.0929,8.0962,8.0929,8.0929,8.1094,8.1061,8.0929,8.0929,8.0995,8.1161,8.1128,8.0962,8.0829,8.0995,8.0697,8.0299,7.9968,7.9736,7.9537,7.9438,7.9405,7.8941,7.8875,7.8842,7.8503,7.8046,7.7213,7.6231,7.5024,7.357,7.2109,7.1986,7.1828,7.1457,7.1218,7.1188,7.1248,7.1248,7.1487,7.1757,7.2176,7.3073,7.3911,7.4599,7.5318,7.6006,7.6664,7.7203,8.2903,8.3446,8.2831,8.3374,8.4569,8.4786,8.5257,8.5837,8.5873,8.5909,8.5909,8.5909,8.5909,8.5909,8.5909,8.5909,8.5909,8.5909,8.5909,8.5909,8.5909,8.5909,8.5909,8.5909,8.5909,8.5837,8.5293,8.3789,8.2607,8.1852,8.0379,7.8776,7.849,7.8108,7.8375,7.8982,7.9025,7.9228,7.9634,7.9904,8.0006,8.0141,8.0175,8.0209,8.0209,8.0209,8.0209,8.0209,8.0209,8.0209,8.0209,8.0209,8.0209,8.0209,8.0209,8.0107,7.9904,7.9699,7.9526,7.9492,7.9355,7.9146,7.9041,7.9495,8.0185,8.0973,8.1702,8.2519,8.2088,8.1691,8.179,8.2188,8.2188,8.1923,8.1658,8.1989,8.2221,8.1823,8.1691,8.1757,8.1856,8.0995,8.0332,8.0001,7.967,7.9504,7.9339,7.9239,7.914,7.8974,7.8875,7.8503,7.7719,7.6798,7.5995,7.4885,7.3664,7.1903,7.2059,7.2235,7.2026,7.1787,7.1787,7.1816,7.1757,7.1876,7.2265,7.2804,7.3462,7.43,7.5228,7.5946,7.6604,7.7263,7.7921,8.1817,8.2143,8.2251,8.2686,8.341,8.4279,8.4895,8.5257,8.5692,8.5909,8.5909,8.5909,8.5909,8.5909,8.5909,8.5909,8.5909,8.5909,8.5909,8.5909,8.5909,8.5909,8.5909,8.5909,8.5909,8.5801,8.5508,8.4865,8.3472,8.2382,8.1223,8.0385,8.0075,7.9958,7.9461,8.0145,8.0096,8.0003,8.0006,8.0175,8.0209,8.0209,8.0209,8.0209,8.0209,8.0209,8.0209,8.0209,8.0209,8.0276,8.0513,8.0818,8.0953,8.119,8.1494,8.146,8.1391,8.0883,8.0072,7.9835,7.9699,7.9459,7.9455,8.0024,8.0975,8.18,8.2422,8.3009,8.281,8.261,8.2353,8.2718,8.2651,8.2486,8.2254,8.2453,8.2718,8.2651,8.2453,8.2585,8.2618,8.1823,8.1028,8.0564,8.0167,7.9637,7.9239,7.8875,7.8809,7.8709,7.8643,7.8577,7.7532,7.641,7.5601,7.4714,7.3807,7.2651,7.2529,7.2684,7.2595,7.2475,7.2445,7.2475,7.2475,7.2624,7.2864,7.3313,7.3851,7.4869,7.5976,7.6544,7.7113,7.7861,7.84,8.1092,8.1165,8.1744,8.2106,8.2432,8.3809,8.4533,8.4786,8.5547,8.5909,8.5909,8.5909,8.5909,8.5909,8.5909,8.5909,8.5909,8.5909,8.5909,8.5909,8.5909,8.5909,8.5909,8.5909,8.5909,8.5909,8.5837,8.5345,8.4636,8.3781,8.2938,8.2207,8.1891,8.1443,8.1101,8.1035,8.0994,8.0208,8.0141,8.0209,8.0209,8.0209,8.0209,8.0209,8.0209,8.0209,8.0209,8.0209,8.0209,8.0615,8.0953,8.1257,8.1562,8.1934,8.2171,8.2205,8.2067,8.1866,8.102,8.0648,8.0208,8.0005,7.9968,8.0297,8.1096,8.21,8.2695,8.2932,8.2932,8.271,8.2698,8.2585,8.2453,8.2519,8.2651,8.2784,8.2883,8.285,8.2983,8.3248,8.3248,8.3049,8.2254,8.1459,8.073,7.9968,7.9306,7.8676,7.8577,7.8643,7.8643,7.8569,7.7268,7.6304,7.5649,7.4718,7.3791,7.3364,7.3237,7.3223,7.3193,7.3163,7.3163,7.3163,7.3163,7.3253,7.3402,7.3821,7.43,7.5288,7.6215,7.6933,7.7592,7.834,7.8729,8.1092,8.1092,8.1165,8.1635,8.236,8.3193,8.4026,8.475,8.5547,8.5909,8.5909,8.5909,8.5909,8.5909,8.5909,8.5909,8.5909,8.5909,8.5909,8.5909,8.5909,8.5909,8.5909,8.5909,8.5909,8.5909,8.5909,8.5797,8.5685,8.5278,8.4227,8.3191,8.3273,8.2412,8.184,8.1688,8.1063,8.0376,8.0209,8.0209,8.0209,8.0209,8.0209,8.0209,8.0209,8.0209,8.0209,8.0276,8.0513,8.1054,8.146,8.1832,8.2272,8.2611,8.278,8.2813,8.278,8.2543,8.2103,8.1494,8.0783,8.0239,8.0371,8.0871,8.1303,8.21,8.2561,8.2509,8.2499,8.2322,8.2067,8.1923,8.2221,8.2386,8.2684,8.285,8.295,8.3082,8.3281,8.3745,8.3844,8.3711,8.3181,8.2287,8.1227,8.0432,7.9504,7.8875,7.8875,7.8908,7.8842,7.8475,7.7087,7.6228,7.5819,7.506,7.4263,7.4058,7.3956,7.3881,7.3881,7.3881,7.3821,7.3821,7.3821,7.3881,7.3941,7.418,7.4659,7.5587,7.6425,7.7113,7.7771,7.843,7.8699,8.1092,8.1092,8.1092,8.1563,8.236,8.312,8.3953,8.475,8.5547,8.5909,8.5909,8.5909,8.5909,8.5909,8.5909,8.5909,8.5909,8.5909,8.5909,8.5909,8.5909,8.5909,8.5909,8.5909,8.5909,8.5909,8.5909,8.5909,8.5909,8.5909,8.5608,8.4872,8.463,8.4148,8.347,8.213,8.1063,8.0476,8.0209,8.0209,8.0209,8.0209,8.0209,8.0209,8.0209,8.0209,8.0276,8.0682,8.0987,8.1426,8.2137,8.2644,8.3084,8.3422,8.3592,8.3625,8.3625,8.3422,8.2983,8.2441,8.1763,8.1763,8.1892,8.2157,8.1811,8.2617,8.2603,8.2452,8.22,8.2123,8.1935,8.2188,8.2585,8.2585,8.2684,8.2883,8.3115,8.3347,8.3745,8.4308,8.444,8.444,8.3778,8.3082,8.1923,8.0829,7.9935,7.9239,7.9272,7.9405,7.9438,7.9101,7.7815,7.7023,7.664,7.5833,7.4922,7.4691,7.448,7.442,7.439,7.451,7.448,7.448,7.445,7.442,7.442,7.448,7.4929,7.5587,7.6395,7.7233,7.7891,7.8549,7.8699,8.1273,8.1454,8.1454,8.178,8.236,8.3157,8.3953,8.475,8.5547,8.5909,8.5909,8.5909,8.5909,8.5909,8.5909,8.5909,8.5909,8.5909,8.5909,8.5909,8.5909,8.5909,8.5909,8.5909,8.5909,8.5909,8.5909,8.5909,8.5909,8.5909,8.5797,8.5797,8.5833,8.5182,8.4065,8.2586,8.116,8.0476,8.0209,8.0209,8.0209,8.0209,8.0412,8.0479,8.0615,8.0818,8.1021,8.1426,8.1765,8.2238,8.2847,8.349,8.3896,8.4268,8.4573,8.4606,8.4539,8.4336,8.3795,8.2983,8.2475,8.2306,8.2611,8.2773,8.2903,8.2965,8.2778,8.2309,8.22,8.2123,8.1935,8.2154,8.232,8.2254,8.3115,8.3446,8.3645,8.3877,8.4374,8.4871,8.5037,8.5302,8.4904,8.4142,8.2353,8.1293,8.0498,7.9968,7.9968,8.0101,8.0299,7.9734,7.8907,7.8235,7.771,7.632,7.4976,7.4857,7.4689,7.4749,7.4779,7.4869,7.4869,7.4749,7.4719,7.4839,7.4809,7.4719,7.4988,7.5407,7.6305,7.7263,7.813,7.8729,7.8729,8.1563,8.2251,8.2251,8.2287,8.2541,8.3157,8.4026,8.4859,8.5547,8.5909,8.5909,8.5909,8.5909,8.5909,8.5909,8.5909,8.5909,8.5909,8.5909,8.5909,8.5909,8.5909,8.5909,8.5909,8.5909,8.5909,8.5909,8.5909,8.5909,8.5909,8.5909,8.5982,8.5942,8.5447,8.4349,8.2586,8.116,8.0376,8.0209,8.0209,8.0209,8.0276,8.0648,8.0953,8.1224,8.1494,8.1866,8.2205,8.2577,8.305,8.3389,8.393,8.4403,8.4505,8.4606,8.4606,8.4606,8.4573,8.4471,8.3219,8.278,8.2746,8.3152,8.2945,8.2566,8.2696,8.2886,8.2452,8.2309,8.2123,8.2046,8.1956,8.2266,8.2419,8.3394,8.3811,8.3976,8.4374,8.4838,8.5434,8.5931,8.6229,8.5964,8.5202,8.3082,8.1757,8.0995,8.0697,8.0697,8.0995,8.1227,8.0734,7.9983,7.8931,7.806,7.6292,7.5158,7.5006,7.4869,7.4869,7.4869,7.4869,7.4869,7.4869,7.4869,7.4869,7.4899,7.4899,7.5318,7.5826,7.6425,7.7293,7.819,7.8789,7.8789,8.2034,8.2324,8.2867,8.341,8.3881,8.4171,8.475,8.5438,8.5764,8.5909,8.5909,8.5909,8.5909,8.5909,8.5909,8.5909,8.5909,8.5909,8.5909,8.5909,8.5909,8.5909,8.5909,8.5909,8.5909,8.5909,8.5909,8.5909,8.5909,8.5982,8.5945,8.5945,8.6186,8.5419,8.3783,8.213,8.116,8.0376,8.0209,8.0209,8.0276,8.0648,8.1054,8.1359,8.1799,8.2205,8.2577,8.2915,8.3321,8.3625,8.3862,8.4302,8.4573,8.4606,8.4606,8.4606,8.4606,8.4606,8.4573,8.4065,8.393,8.3828,8.3727,8.3621,8.3504,8.3134,8.2953,8.2737,8.2586,8.2586,8.2485,8.3265,8.3487,8.3108,8.3607,8.3778,8.4109,8.4672,8.5235,8.5898,8.6461,8.6097,8.5832,8.5401,8.3678,8.2552,8.1823,8.1492,8.1426,8.1956,8.2353,8.1868,8.1211,7.9878,7.8408,7.6538,7.5218,7.5006,7.4869,7.4869,7.4869,7.4869,7.4869,7.4869,7.4869,7.4869,7.4958,7.5138,7.5736,7.6305,7.6874,7.7502,7.84,7.8789,7.8789,8.2867,8.3193,8.37,8.4352,8.5004,8.4823,8.5149,8.5801,8.5909,8.5909,8.5909,8.5909,8.5909,8.5909,8.5909,8.5909,8.5909,8.5909,8.5909,8.5909,8.5909,8.5909,8.5909,8.5945,8.5909,8.5909,8.5945,8.5982,8.6344,8.6308,8.6525,8.6733,8.6521,8.5464,8.4035,8.3102,8.2129,8.1322,8.0987,8.0818,8.1088,8.146,8.1832,8.2171,8.2543,8.2949,8.3253,8.3592,8.3896,8.4031,8.4268,8.4606,8.4606,8.4606,8.4606,8.4606,8.4606,8.4606,8.4573,8.4573,8.4437,8.4471,8.4606,8.4533,8.4285,8.3739,8.3624,8.3515,8.3172,8.3239,8.3397,8.4244,8.3865,8.3453,8.3952,8.4157,8.4688,8.5252,8.6098,8.6762,8.6928,8.6463,8.5683,8.5003,8.4142,8.338,8.2651,8.2386,8.2121,8.2519,8.2656,8.1984,8.1101,7.9404,7.8028,7.6599,7.5489,7.5006,7.4869,7.4869,7.4869,7.4869,7.4869,7.4869,7.4869,7.4899,7.5048,7.5347,7.5916,7.6574,7.7233,7.7921,7.8639,7.8789,7.8789,8.399,8.4642,8.4714,8.5185,8.5656,8.5112,8.5221,8.5909,8.5909,8.5909,8.5909,8.5909,8.5909,8.5909,8.5909,8.5909,8.5909,8.5909,8.5909,8.5982,8.6054,8.6054,8.6126,8.6199,8.6416,8.6199,8.6235,8.6706,8.7032,8.7068,8.743,8.7552,8.6895,8.5922,8.5179,8.4516,8.3382,8.2342,8.1629,8.1596,8.19,8.2306,8.2678,8.3016,8.3389,8.3795,8.4099,8.4403,8.4471,8.4539,8.4606,8.4606,8.4606,8.4606,8.4606,8.4606,8.4606,8.4606,8.4606,8.4606,8.4606,8.4606,8.4606,8.4426,8.4285,8.4184,8.4177,8.4203,8.4027,8.4143,8.4322,8.3944,8.3677,8.3965,8.4564,8.495,8.5334,8.6114,8.7145,8.7612,8.7795,8.7245,8.6014,8.5201,8.4489,8.3693,8.3142,8.3121,8.2776,8.2618,8.251,8.1251,8.0231,7.8628,7.7284,7.6263,7.5519,7.4869,7.4869,7.4869,7.4869,7.4869,7.4869,7.4869,7.4869,7.4929,7.4988,7.5437,7.6066,7.6724,7.7352,7.8011,7.8669,7.8759,7.8789,8.4497,8.475,8.5293,8.5692,8.5837,8.5656,8.5692,8.5873,8.5909,8.5909,8.5909,8.5909,8.5909,8.5909,8.5909,8.5909,8.5909,8.5909,8.5909,8.6054,8.6416,8.6597,8.6851,8.7141,8.743,8.7467,8.7503,8.7503,8.7829,8.7901,8.7974,8.792,8.7813,8.7157,8.6415,8.5912,8.4322,8.3057,8.2272,8.2374,8.2644,8.2983,8.3321,8.3592,8.4031,8.437,8.4539,8.4606,8.4606,8.4606,8.4606,8.4606,8.4606,8.4606,8.4606,8.4606,8.4606,8.4606,8.4606,8.4606,8.4606,8.464,8.4674,8.464,8.45,8.4527,8.4662,8.479,8.4648,8.4674,8.4665,8.4354,8.3975,8.4099,8.4768,8.5357,8.5744,8.6493,8.7525,8.806,8.8161,8.7242,8.6045,8.5464,8.4717,8.4031,8.3532,8.351,8.3332,8.3108,8.2133,8.0863,7.9745,7.8376,7.7023,7.5893,7.5384,7.4869,7.4869,7.4869,7.4869,7.4869,7.4869,7.4869,7.4869,7.4869,7.4899,7.5377,7.5886,7.6694,7.7322,7.8011,7.8549,7.8699,7.8789,8.5149,8.5221,8.5692,8.5909,8.5909,8.5909,8.5909,8.5909,8.5909,8.5909,8.5909,8.5909,8.5909,8.5909,8.5909,8.5909,8.5909,8.5909,8.6054,8.6561,8.6887,8.7177,8.7575,8.7974,8.8046,8.8227,8.83,8.8227,8.8626,8.906,8.9205,8.9199,8.9158,8.8026,8.6987,8.5915,8.4826,8.3738,8.3118,8.305,8.3321,8.3659,8.3862,8.3998,8.4471,8.4573,8.4606,8.4606,8.4606,8.4606,8.4606,8.4606,8.4606,8.4606,8.4606,8.4606,8.4606,8.4606,8.4606,8.4606,8.4606,8.4708,8.4877,8.5114,8.5114,8.5215,8.5344,8.5547,8.5243,8.504,8.4966,8.4824,8.448,8.406,8.49,8.5594,8.6276,8.6813,8.7598,8.827,8.7854,8.6855,8.6106,8.5591,8.5023,8.4122,8.3654,8.3731,8.3554,8.3332,8.1951,8.032,7.9344,7.8249,7.6892,7.5654,7.5248,7.4869,7.4869,7.4869,7.4869,7.4869,7.4869,7.4869,7.4869,7.4869,7.4869,7.5138,7.5617,7.6425,7.7173,7.7771,7.831,7.8729,7.8789,8.5873,8.5873,8.5909,8.5909,8.5909,8.5909,8.5909,8.5909,8.5909,8.5909,8.5909,8.5909,8.5982,8.6126,8.6163,8.6271,8.6416,8.6489,8.6742,8.7141,8.7503,8.7829,8.8191,8.8408,8.8843,8.8589,8.8626,8.9096,8.9567,8.9893,9.0103,9.0385,8.8877,8.7699,8.6916,8.5849,8.4967,8.4378,8.3896,8.3795,8.4234,8.4539,8.4606,8.4573,8.4606,8.4606,8.4606,8.4606,8.4606,8.4606,8.4606,8.4606,8.4606,8.4606,8.4606,8.4606,8.4606,8.4606,8.4606,8.4606,8.4606,8.4843,8.5249,8.5452,8.5452,8.552,8.5723,8.5757,8.5486,8.504,8.4865,8.5034,8.4824,8.4858,8.5254,8.5927,8.6466,8.6981,8.7318,8.779,8.7442,8.6478,8.5974,8.546,8.5147,8.421,8.3884,8.3884,8.3775,8.3554,8.1951,8.0046,7.9221,7.8122,7.613,7.5142,7.5006,7.4869,7.4869,7.4869,7.4869,7.4869,7.4869,7.4869,7.4869,7.4869,7.4929,7.5108,7.5467,7.6215,7.6933,7.7472,7.8011,7.8579,7.8789,8.5909,8.5909,8.5909,8.5909,8.5909,8.5909,8.5909,8.5909,8.5909,8.5945,8.5909,8.5945,8.6271,8.6742,8.6778,8.6959,8.743,8.7358,8.772,8.8082,8.8372,8.8662,8.9169,8.9531,8.9821,9.0038,9.0074,8.9929,9.0183,9.0393,9.0222,8.9569,8.8544,8.7967,8.6741,8.5753,8.517,8.4573,8.4471,8.4302,8.4539,8.4606,8.4606,8.4606,8.4606,8.4606,8.4606,8.4606,8.4606,8.4606,8.4606,8.4606,8.4606,8.464,8.464,8.464,8.4809,8.4843,8.4877,8.4911,8.4911,8.4809,8.5046,8.5351,8.5554,8.5689,8.579,8.5757,8.5587,8.5142,8.4905,8.5108,8.5277,8.5371,8.5607,8.6113,8.6586,8.6932,8.7245,8.7101,8.6745,8.6341,8.5725,8.5422,8.5144,8.4774,8.427,8.4102,8.3884,8.3554,8.1836,8.0199,7.9344,7.7995,7.5863,7.4869,7.5006,7.5006,7.5006,7.4869,7.4869,7.4869,7.4869,7.4869,7.4869,7.4869,7.4899,7.4929,7.5377,7.6215,7.6844,7.7472,7.7951,7.8489,7.8669,8.5909,8.5909,8.5909,8.5909,8.5909,8.5909,8.5909,8.5945,8.6235,8.638,8.638,8.6452,8.6815,8.7467,8.7539,8.772,8.8263,8.8191,8.8408,8.8807,8.9169,8.9531,9.0002,9.0364,9.04,9.0581,9.0581,9.0545,9.0618,9.0581,9.0222,8.9569,8.9019,8.7875,8.6581,8.6022,8.517,8.4606,8.4606,8.4606,8.4606,8.4606,8.4606,8.4606,8.4606,8.4606,8.4606,8.4606,8.4606,8.4776,8.4979,8.5148,8.5317,8.5587,8.5689,8.5723,8.5723,8.5621,8.5587,8.5554,8.552,8.552,8.5993,8.6704,8.6264,8.6366,8.6061,8.5993,8.5757,8.5418,8.4804,8.4838,8.4871,8.4973,8.5513,8.6054,8.6493,8.6865,8.7042,8.6974,8.6628,8.6155,8.554,8.5135,8.4966,8.4757,8.4352,8.4102,8.3993,8.3631,8.1919,8.0352,7.9499,7.777,7.5624,7.5006,7.5142,7.5006,7.5006,7.5006,7.5006,7.4869,7.4869,7.4869,7.4869,7.4869,7.4899,7.4958,7.5587,7.6425,7.7023,7.7562,7.7981,7.837,7.8639,8.5909,8.5909,8.5909,8.5909,8.5909,8.5909,8.5982,8.6163,8.6742,8.7177,8.7394,8.7394,8.7793,8.8155,8.8372,8.8444,8.8626,8.8915,8.9169,8.9422,8.9603,8.9966,9.0292,9.0581,9.0618,9.0618,9.0618,9.0618,9.0618,9.0421,9.0022,8.9821,8.8721,8.7316,8.6776,8.5719,8.4606,8.4606,8.4606,8.4606,8.4606,8.4606,8.4606,8.4606,8.4606,8.4606,8.4606,8.4606,8.4606,8.4877,8.5283,8.5689,8.5993,8.6298,8.6501,8.6569,8.6535,8.6569,8.667,8.6602,8.667,8.6907,8.7617,8.7583,8.7042,8.6738,8.6433,8.6196,8.5926,8.5452,8.4945,8.4843,8.4877,8.4911,8.5486,8.5926,8.6332,8.6602,8.6535,8.6501,8.6163,8.5689,8.552,8.5046,8.4843,8.4601,8.4426,8.4102,8.3884,8.341,8.2411,8.0831,7.9622,7.7641,7.5519,7.5142,7.5414,7.5142,7.5142,7.5142,7.5006,7.4869,7.4869,7.4869,7.4869,7.4869,7.4988,7.5108,7.5856,7.6425,7.6904,7.7322,7.7741,7.816,7.8609,8.5909,8.5909,8.5909,8.5909,8.5909,8.5909,8.6235,8.6778,8.6959,8.7684,8.8626,8.8915,8.906,8.9169,8.9169,8.935,8.9748,8.9857,9.0074,9.0364,9.0219,9.04,9.0545,9.0618,9.0618,9.0618,9.0618,9.0618,9.0501,8.9857,8.8984,8.8419,8.7316,8.6187,8.5274,8.4606,8.4606,8.4606,8.4606,8.4606,8.4606,8.4606,8.4606,8.4606,8.4606,8.4606,8.4606,8.4606,8.4606,8.4843,8.5418,8.6129,8.6569,8.6907,8.7144,8.7279,8.7245,8.7211,8.7245,8.7279,8.7313,8.7245,8.7617,8.7482,8.711,8.7042,8.6738,8.6501,8.6095,8.5384,8.4979,8.5351,8.5452,8.5351,8.5655,8.5689,8.5892,8.5587,8.5283,8.5283,8.5182,8.5249,8.5587,8.5215,8.4979,8.4736,8.4561,8.4312,8.4102,8.3487,8.2897,8.1336,7.9867,7.8185,7.6324,7.5819,7.5819,7.555,7.5278,7.5142,7.5142,7.4869,7.4869,7.4869,7.4869,7.4869,7.5018,7.5198,7.5407,7.5946,7.6514,7.7023,7.7532,7.8041,7.8579]},{"header":{"parameterUnit":"m.s-1","parameterCategory":1,"la1":31.0,"la2":29.5877,"lo1":-88.7671,"lo2":-86.6584,"dx":0.0162,"dy":0.0185,"nx":115,"ny":88,"refTime":"2022-12-12T18:00:00:Z","depth":0,"parameterNumber":3,"parameterNumberName":"V-component_of_WINDS"},"data":[0.0,0.0,0.0,0.0,0.0,0.0,0.0,0.0,0.0,0.0,0.0,0.0,0.0,0.0,0.0,0.0,0.0,0.0,0.0,0.0,0.0,0.0,0.0,0.0,0.0,0.0,0.0,0.0,0.0,0.0,0.0,0.0,0.0,0.0,0.0,0.0,0.0,0.0,0.0,0.0,0.0,0.0,0.0,0.0,0.0,0.0,0.0,0.0,0.0,0.0,0.0,0.0,0.0,0.0,0.0,0.0,0.0,0.0,0.0,0.0,0.0,0.0,0.0,0.0,0.0,0.0,0.0,0.0,0.0,0.0,0.0,0.0,0.0,0.0,0.0,0.0,0.0,0.0,0.0,0.0,0.0,0.0,0.0,0.0,0.0,0.0,0.0,0.0,0.0,0.0,0.0,0.0,0.0,0.0,0.0,0.0,0.0,0.0,0.0,0.0,0.0,0.0,0.0,0.0,0.0,0.0,0.0,0.0,0.0,0.0,0.0,0.0,0.0,0.0,0.0,0.0,0.0,0.0,0.0,0.0,0.0,0.0,0.0,0.0,0.0,0.0,0.0,0.0,0.0,0.0,0.0,0.0,0.0,0.0,0.0,0.0,0.0,0.0,0.0,0.0,0.0,0.0,0.0,0.0,0.0,0.0,0.0,0.0,0.0,0.0,0.0,0.0,0.0,0.0,0.0,0.0,0.0,0.0,0.0,0.0,0.0,0.0,0.0,0.0,0.0,0.0,0.0,0.0,0.0,0.0,0.0,0.0,0.0,0.0,0.0,0.0,0.0,0.0,0.0,0.0,0.0,0.0,0.0,0.0,0.0,0.0,0.0,0.0,0.0,0.0,0.0,0.0,0.0,0.0,0.0,0.0,0.0,0.0,0.0,0.0,0.0,0.0,0.0,0.0,0.0,0.0,0.0,0.0,0.0,0.0,0.0,0.0,0.0,0.0,0.0,0.0,0.0,0.0,0.0,0.0,0.0,0.0,0.0,0.0,0.0,0.0,0.0,0.0,0.0,0.0,0.0,0.0,0.0,0.0,0.0,0.0,0.0,0.0,0.0,0.0,0.0,0.0,0.0,0.0,0.0,0.0,0.0,0.0,0.0,0.0,0.0,0.0,0.0,0.0,0.0,0.0,0.0,0.0,0.0,0.0,0.0,0.0,0.0,0.0,0.0,0.0,0.0,0.0,0.0,0.0,0.0,0.0,0.0,0.0,0.0,0.0,0.0,0.0,0.0,0.0,0.0,0.0,0.0,0.0,0.0,0.0,0.0,0.0,0.0,0.0,0.0,0.0,0.0,0.0,0.0,0.0,0.0,0.0,0.0,0.0,0.0,0.0,0.0,0.0,0.0,0.0,0.0,0.0,0.0,0.0,0.0,0.0,0.0,0.0,0.0,0.0,0.0,0.0,0.0,0.0,0.0,0.0,0.0,0.0,0.0,0.0,0.0,0.0,0.0,0.0,0.0,0.0,0.0,0.0,0.0,0.0,0.0,0.0,0.0,0.0,0.0,0.0,0.0,0.0,0.0,0.0,0.0,0.0,0.0,0.0,0.0,0.0,0.0,0.0,0.0,0.0,0.0,0.0,0.0,0.0,0.0,0.0,0.0,0.0,0.0,0.0,0.0,0.0,0.0,0.0,0.0,0.0,0.0,0.0,0.0,0.0,0.0,0.0,0.0,0.0,0.0,0.0,0.0,0.0,0.0,0.0,0.0,0.0,0.0,0.0,0.0,0.0,0.0,0.0,0.0,0.0,0.0,0.0,0.0,0.0,0.0,0.0,0.0,0.0,0.0,0.0,0.0,0.0,0.0,0.0,0.0,0.0,0.0,0.0,0.0,0.0,0.0,0.0,0.0,0.0,0.0,0.0,0.0,0.0,0.0,0.0,0.0,0.0,0.0,0.0,0.0,0.0,0.0,0.0,0.0,0.0,0.0,0.0,0.0,0.0,0.0,0.0,0.0,0.0,0.0,0.0,0.0,0.0,0.0,0.0,0.0,0.0,0.0,0.0,0.0,0.0,0.0,0.0,0.0,0.0,0.0,0.0,0.0,0.0,0.0,0.0,0.0,0.0,0.0,0.0,0.0,0.0,0.0,0.0,0.0,0.0,0.0,0.0,0.0,0.0,0.0,0.0,0.0,0.0,0.0,0.0,0.0,0.0,0.0,0.0,0.0,0.0,0.0,0.0,0.0,0.0,0.0,0.0,0.0,0.0,0.0,0.0,0.0,0.0,0.0,0.0,0.0,0.0,0.0,0.0,0.0,0.0,0.0,0.0,0.0,0.0,0.0,0.0,0.0,0.0,0.0,0.0,0.0,0.0,0.0,0.0,0.0,0.0,0.0,0.0,0.0,0.0,0.0,0.0,0.0,0.0,0.0,0.0,0.0,0.0,0.0,0.0,0.0,0.0,0.0,0.0,0.0,0.0,0.0,0.0,0.0,0.0,0.0,0.0,0.0,0.0,0.0,0.0,0.0,0.0,0.0,0.0,0.0,0.0,0.0,0.0,0.0,0.0,0.0,0.0,0.0,0.0,0.0,0.0,0.0,0.0,0.0,0.0,0.0,0.0,0.0,0.0,0.0,0.0,0.0,0.0,0.0,0.0,0.0,0.0,0.0,0.0,0.0,0.0,0.0,0.0,0.0,0.0,0.0,0.0,0.0,0.0,0.0,0.0,0.0,0.0,0.0,0.0,0.0,0.0,0.0,0.0,0.0,0.0,0.0,0.0,0.0,0.0,0.0,0.0,0.0,0.0,0.0,0.0,0.0,0.0,0.0,0.0,0.0,0.0,0.0,0.0,0.0,0.0,0.0,0.0,0.0,0.0,0.0,0.0,0.0,0.0,0.0,0.0,0.0,0.0,0.0,0.0,0.0,0.0,0.0,0.0,0.0,0.0,0.0,0.0,0.0,0.0,0.0,0.0,0.0,0.0,0.0,0.0,0.0,0.0,0.0,0.0,0.0,0.0,0.0,0.0,0.0,0.0,0.0,0.0,0.0,0.0,0.0,0.0,0.0,0.0,0.0,0.0,0.0,0.0,0.0,0.0,0.0,0.0,0.0,0.0,0.0,0.0,0.0,0.0,0.0,0.0,0.0,0.0,0.0,0.0,0.0,0.0,0.0,0.0,0.0,0.0,0.0,0.0,0.0,0.0,0.0,0.0,0.0,0.0,0.0,0.0,0.0,0.0,0.0,0.0,0.0,0.0,0.0,0.0,0.0,0.0,0.0,0.0,0.0,0.0,0.0,0.0,0.0,0.0,0.0,0.0,0.0,0.0,0.0,0.0,0.0,0.0,0.0,0.0,0.0,0.0,0.0,0.0,0.0,0.0,0.0,0.0,0.0,0.0,0.0,0.0,0.0,0.0,0.0,0.0,0.0,0.0,0.0,0.0,0.0,0.0,0.0,0.0,0.0,0.0,0.0,0.0,0.0,0.0,0.0,0.0,0.0,0.0,0.0,0.0,0.0,0.0,0.0,0.0,0.0,0.0,0.0,0.0,0.0,0.0,0.0,0.0,0.0,0.0,0.0,0.0,0.0,0.0,0.0,0.0,0.0,0.0,0.0,0.0,0.0,0.0,0.0,0.0,0.0,0.0,0.0,0.0,0.0,0.0,0.0,0.0,0.0,0.0,0.0,0.0,0.0,0.0,0.0,0.0,0.0,0.0,0.0,0.0,0.0,0.0,0.0,0.0,0.0,0.0,0.0,0.0,0.0,0.0,0.0,0.0,0.0,0.0,0.0,0.0,0.0,0.0,0.0,0.0,0.0,0.0,0.0,0.0,0.0,0.0,0.0,0.0,0.0,0.0,0.0,0.0,0.0,0.0,0.0,0.0,0.0,0.0,0.0,0.0,0.0,0.0,0.0,0.0,0.0,0.0,0.0,0.0,0.0,0.0,0.0,0.0,0.0,0.0,0.0,0.0,0.0,0.0,0.0,0.0,0.0,0.0,0.0,0.0,0.0,0.0,0.0,0.0,0.0,0.0,0.0,0.0,0.0,0.0,0.0,0.0,0.0,0.0,0.0,0.0,0.0,0.0,0.0,0.0,0.0,0.0,0.0,0.0,0.0,0.0,0.0,0.0,0.0,0.0,0.0,0.0,0.0,0.0,0.0,0.0,0.0,0.0,0.0,0.0,0.0,0.0,0.0,0.0,0.0,0.0,0.0,0.0,0.0,0.0,0.0,0.0,0.0,0.0,0.0,0.0,0.0,0.0,0.0,0.0,0.0,0.0,0.0,0.0,0.0,0.0,0.0,0.0,-2.052,0.0,0.0,0.0,-2.0198,0.0,0.0,0.0,0.0,0.0,0.0,0.0,0.0,0.0,0.0,0.0,0.0,0.0,0.0,0.0,0.0,0.0,0.0,0.0,0.0,0.0,0.0,0.0,0.0,0.0,0.0,0.0,0.0,0.0,0.0,0.0,0.0,0.0,0.0,0.0,0.0,0.0,0.0,0.0,0.0,0.0,0.0,0.0,0.0,0.0,0.0,0.0,0.0,0.0,0.0,0.0,0.0,0.0,0.0,0.0,0.0,0.0,0.0,0.0,0.0,0.0,0.0,0.0,0.0,0.0,0.0,0.0,0.0,0.0,0.0,0.0,0.0,0.0,0.0,0.0,0.0,0.0,0.0,0.0,0.0,0.0,0.0,0.0,0.0,0.0,0.0,0.0,0.0,0.0,0.0,0.0,0.0,0.0,0.0,0.0,0.0,0.0,0.0,0.0,0.0,0.0,0.0,0.0,0.0,0.0,0.0,0.0,0.0,0.0,0.0,-2.0703,-2.0741,-2.0879,-2.0683,-2.0242,0.0,0.0,0.0,0.0,0.0,0.0,0.0,0.0,0.0,0.0,0.0,0.0,0.0,0.0,0.0,0.0,0.0,0.0,0.0,0.0,0.0,0.0,0.0,0.0,0.0,0.0,0.0,0.0,0.0,0.0,0.0,0.0,0.0,0.0,0.0,0.0,0.0,0.0,0.0,0.0,0.0,0.0,0.0,0.0,0.0,0.0,0.0,0.0,0.0,0.0,0.0,0.0,0.0,0.0,0.0,0.0,0.0,0.0,0.0,0.0,0.0,0.0,0.0,0.0,0.0,0.0,0.0,0.0,0.0,0.0,0.0,0.0,0.0,0.0,0.0,0.0,0.0,0.0,0.0,0.0,0.0,0.0,0.0,0.0,0.0,0.0,0.0,0.0,0.0,0.0,0.0,0.0,0.0,0.0,0.0,0.0,0.0,0.0,0.0,0.0,0.0,0.0,0.0,0.0,0.0,0.0,0.0,0.0,0.0,0.0,0.0,0.0,-2.1094,-2.0958,-2.0068,0.0,0.0,0.0,0.0,0.0,0.0,0.0,0.0,0.0,0.0,0.0,0.0,0.0,0.0,0.0,0.0,0.0,0.0,0.0,0.0,0.0,0.0,0.0,0.0,0.0,0.0,0.0,0.0,0.0,0.0,0.0,0.0,0.0,0.0,0.0,0.0,0.0,0.0,0.0,0.0,0.0,0.0,0.0,0.0,0.0,0.0,0.0,0.0,0.0,0.0,0.0,0.0,0.0,0.0,0.0,0.0,0.0,0.0,0.0,0.0,0.0,0.0,0.0,0.0,0.0,0.0,0.0,0.0,0.0,0.0,0.0,0.0,0.0,0.0,0.0,0.0,0.0,0.0,0.0,0.0,0.0,0.0,0.0,0.0,0.0,0.0,0.0,0.0,0.0,0.0,0.0,0.0,0.0,0.0,0.0,0.0,0.0,0.0,0.0,0.0,0.0,0.0,0.0,0.0,0.0,0.0,0.0,0.0,0.0,0.0,-2.1426,-2.0605,-2.1367,0.0,-1.9806,0.0,0.0,0.0,0.0,0.0,0.0,0.0,0.0,0.0,0.0,0.0,0.0,0.0,0.0,0.0,0.0,0.0,0.0,0.0,0.0,0.0,0.0,0.0,0.0,0.0,0.0,0.0,0.0,0.0,0.0,0.0,0.0,0.0,0.0,0.0,0.0,0.0,0.0,0.0,0.0,0.0,0.0,0.0,0.0,0.0,0.0,0.0,0.0,0.0,0.0,0.0,0.0,0.0,0.0,0.0,0.0,0.0,0.0,0.0,0.0,0.0,0.0,0.0,0.0,0.0,0.0,0.0,0.0,0.0,0.0,0.0,0.0,0.0,0.0,0.0,0.0,0.0,0.0,0.0,0.0,0.0,0.0,0.0,0.0,0.0,0.0,0.0,0.0,0.0,0.0,0.0,0.0,0.0,0.0,0.0,0.0,0.0,0.0,0.0,0.0,0.0,0.0,0.0,0.0,0.0,0.0,0.0,0.0,0.0,0.0,-2.1191,-2.0586,-2.0918,-2.0624,0.0,0.0,0.0,0.0,0.0,0.0,0.0,0.0,0.0,0.0,0.0,0.0,0.0,0.0,0.0,0.0,0.0,0.0,0.0,0.0,0.0,0.0,0.0,0.0,0.0,0.0,0.0,0.0,0.0,0.0,0.0,0.0,0.0,0.0,0.0,0.0,0.0,0.0,0.0,0.0,0.0,0.0,0.0,0.0,0.0,0.0,0.0,0.0,0.0,0.0,0.0,0.0,0.0,0.0,0.0,0.0,0.0,0.0,0.0,0.0,0.0,0.0,0.0,0.0,0.0,0.0,0.0,0.0,0.0,0.0,0.0,0.0,0.0,0.0,0.0,0.0,0.0,0.0,0.0,0.0,0.0,0.0,0.0,0.0,0.0,0.0,0.0,0.0,0.0,0.0,0.0,0.0,0.0,0.0,0.0,0.0,0.0,0.0,0.0,0.0,0.0,0.0,0.0,0.0,0.0,0.0,0.0,0.0,0.0,0.0,-2.1191,-2.125,-2.0937,-2.0684,-2.0232,-1.9409,0.0,0.0,0.0,0.0,0.0,0.0,0.0,0.0,0.0,0.0,0.0,0.0,0.0,0.0,0.0,0.0,0.0,0.0,0.0,0.0,0.0,0.0,0.0,0.0,0.0,0.0,0.0,0.0,0.0,0.0,0.0,0.0,0.0,0.0,0.0,0.0,0.0,0.0,0.0,0.0,0.0,0.0,0.0,0.0,0.0,0.0,0.0,0.0,0.0,0.0,0.0,0.0,0.0,0.0,0.0,0.0,0.0,0.0,0.0,0.0,0.0,0.0,0.0,0.0,0.0,0.0,0.0,0.0,0.0,0.0,0.0,0.0,0.0,0.0,0.0,0.0,0.0,0.0,0.0,0.0,0.0,0.0,0.0,0.0,0.0,0.0,0.0,0.0,0.0,0.0,0.0,0.0,0.0,0.0,0.0,0.0,0.0,0.0,0.0,0.0,0.0,0.0,0.0,0.0,0.0,0.0,0.0,0.0,-2.1191,-2.1621,-2.1836,-2.1777,-2.1016,-2.0252,0.0,0.0,0.0,0.0,0.0,0.0,0.0,0.0,0.0,0.0,0.0,0.0,0.0,0.0,0.0,0.0,0.0,0.0,0.0,0.0,0.0,0.0,0.0,0.0,0.0,0.0,0.0,0.0,0.0,0.0,0.0,0.0,0.0,0.0,0.0,0.0,0.0,0.0,0.0,0.0,0.0,0.0,0.0,0.0,0.0,0.0,0.0,0.0,0.0,0.0,0.0,0.0,0.0,0.0,0.0,0.0,0.0,0.0,0.0,0.0,0.0,0.0,0.0,0.0,0.0,0.0,0.0,0.0,0.0,0.0,0.0,0.0,0.0,0.0,0.0,0.0,0.0,0.0,0.0,0.0,0.0,0.0,0.0,0.0,0.0,0.0,0.0,0.0,0.0,0.0,0.0,0.0,0.0,0.0,0.0,0.0,0.0,0.0,0.0,0.0,0.0,0.0,0.0,0.0,0.0,0.0,0.0,0.0,0.0,-2.0801,-2.0957,-2.1172,-2.1426,-2.0605,-2.0095,0.0,0.0,0.0,0.0,0.0,0.0,0.0,0.0,0.0,0.0,0.0,0.0,0.0,0.0,0.0,0.0,0.0,0.0,0.0,0.0,0.0,0.0,0.0,0.0,0.0,0.0,0.0,0.0,0.0,0.0,0.0,0.0,0.0,0.0,0.0,0.0,0.0,0.0,0.0,0.0,0.0,0.0,0.0,0.0,0.0,0.0,0.0,0.0,0.0,0.0,0.0,0.0,0.0,0.0,0.0,0.0,0.0,0.0,0.0,0.0,0.0,0.0,0.0,0.0,0.0,0.0,0.0,0.0,0.0,0.0,0.0,0.0,0.0,0.0,0.0,0.0,0.0,0.0,0.0,0.0,0.0,0.0,0.0,0.0,0.0,0.0,0.0,0.0,0.0,0.0,0.0,0.0,0.0,0.0,0.0,0.0,0.0,0.0,0.0,0.0,0.0,0.0,0.0,0.0,0.0,0.0,0.0,0.0,0.0,-2.0781,-2.1055,-2.1269,-2.1406,-2.0586,-2.0075,0.0,0.0,0.0,0.0,0.0,0.0,0.0,0.0,0.0,0.0,0.0,0.0,0.0,0.0,0.0,0.0,0.0,0.0,0.0,0.0,0.0,0.0,0.0,0.0,0.0,0.0,0.0,0.0,0.0,0.0,0.0,0.0,0.0,0.0,0.0,0.0,0.0,0.0,0.0,0.0,0.0,0.0,0.0,0.0,0.0,0.0,0.0,0.0,0.0,0.0,0.0,0.0,0.0,0.0,0.0,0.0,0.0,0.0,0.0,0.0,0.0,0.0,0.0,0.0,0.0,0.0,0.0,0.0,0.0,0.0,0.0,0.0,0.0,0.0,0.0,0.0,0.0,0.0,0.0,0.0,0.0,0.0,0.0,0.0,0.0,0.0,0.0,0.0,0.0,0.0,0.0,0.0,0.0,0.0,0.0,0.0,0.0,0.0,0.0,0.0,0.0,0.0,0.0,0.0,0.0,0.0,0.0,0.0,-2.0352,-2.1191,-2.2012,-2.2227,-2.1894,-2.1016,-2.0328,0.0,0.0,0.0,0.0,0.0,0.0,0.0,0.0,0.0,0.0,0.0,0.0,0.0,0.0,0.0,0.0,0.0,0.0,0.0,0.0,0.0,0.0,0.0,0.0,0.0,0.0,0.0,0.0,0.0,0.0,0.0,0.0,0.0,0.0,0.0,0.0,0.0,0.0,0.0,0.0,0.0,0.0,0.0,0.0,0.0,0.0,0.0,0.0,0.0,0.0,0.0,0.0,0.0,0.0,0.0,0.0,0.0,0.0,0.0,0.0,0.0,0.0,0.0,0.0,0.0,0.0,0.0,0.0,0.0,0.0,0.0,0.0,0.0,0.0,0.0,0.0,0.0,0.0,0.0,0.0,0.0,0.0,0.0,0.0,0.0,0.0,0.0,0.0,0.0,0.0,0.0,0.0,0.0,0.0,0.0,0.0,0.0,0.0,0.0,0.0,0.0,0.0,0.0,0.0,0.0,0.0,0.0,0.0,0.0,-2.0781,-2.1621,-2.2148,-2.2285,-2.1172,-2.0526,0.0,0.0,0.0,0.0,0.0,0.0,0.0,0.0,0.0,0.0,0.0,0.0,0.0,0.0,0.0,0.0,0.0,0.0,0.0,0.0,0.0,0.0,0.0,0.0,0.0,0.0,0.0,0.0,0.0,0.0,0.0,0.0,0.0,0.0,0.0,0.0,0.0,0.0,0.0,0.0,0.0,0.0,0.0,0.0,0.0,0.0,0.0,0.0,0.0,0.0,0.0,0.0,0.0,0.0,0.0,0.0,0.0,0.0,0.0,0.0,0.0,0.0,0.0,0.0,0.0,0.0,0.0,0.0,0.0,0.0,0.0,0.0,0.0,0.0,0.0,0.0,0.0,0.0,0.0,0.0,0.0,0.0,0.0,0.0,0.0,0.0,0.0,0.0,0.0,0.0,0.0,0.0,0.0,0.0,0.0,0.0,0.0,0.0,0.0,0.0,0.0,0.0,0.0,0.0,0.0,0.0,0.0,0.0,0.0,-2.1489,-2.2316,-2.2808,-2.2926,-2.1804,-2.1036,-2.0722,0.0,0.0,0.0,0.0,0.0,0.0,0.0,0.0,0.0,0.0,0.0,0.0,0.0,0.0,0.0,0.0,0.0,0.0,0.0,0.0,0.0,0.0,0.0,0.0,0.0,0.0,0.0,0.0,0.0,0.0,0.0,0.0,0.0,0.0,0.0,0.0,0.0,0.0,0.0,0.0,0.0,0.0,0.0,0.0,0.0,0.0,0.0,0.0,0.0,0.0,0.0,0.0,0.0,0.0,0.0,0.0,0.0,0.0,0.0,0.0,0.0,0.0,0.0,0.0,0.0,0.0,0.0,0.0,0.0,0.0,0.0,0.0,0.0,0.0,0.0,0.0,0.0,0.0,0.0,0.0,0.0,0.0,0.0,0.0,0.0,0.0,0.0,0.0,0.0,0.0,0.0,0.0,0.0,0.0,0.0,0.0,0.0,0.0,0.0,0.0,0.0,0.0,0.0,0.0,0.0,0.0,0.0,0.0,-2.3063,-2.3939,-2.4157,-2.3593,-2.2681,-2.1727,0.0,0.0,0.0,0.0,0.0,0.0,0.0,0.0,0.0,0.0,0.0,0.0,0.0,0.0,0.0,0.0,0.0,0.0,0.0,0.0,0.0,0.0,0.0,0.0,0.0,0.0,0.0,0.0,0.0,0.0,0.0,0.0,0.0,0.0,0.0,0.0,0.0,0.0,0.0,0.0,0.0,0.0,0.0,0.0,0.0,0.0,0.0,0.0,0.0,0.0,0.0,0.0,0.0,0.0,0.0,0.0,0.0,0.0,0.0,0.0,0.0,0.0,0.0,0.0,0.0,0.0,0.0,0.0,0.0,0.0,0.0,0.0,0.0,0.0,0.0,0.0,0.0,0.0,0.0,0.0,0.0,0.0,0.0,0.0,0.0,0.0,0.0,0.0,0.0,0.0,0.0,0.0,0.0,0.0,0.0,0.0,0.0,0.0,0.0,0.0,0.0,0.0,0.0,0.0,0.0,0.0,0.0,0.0,0.0,-2.4625,-2.602,-2.6121,-2.4776,-2.3381,-2.2403,0.0,0.0,0.0,0.0,0.0,0.0,0.0,0.0,0.0,0.0,0.0,0.0,0.0,0.0,0.0,0.0,0.0,0.0,0.0,0.0,0.0,0.0,0.0,0.0,0.0,0.0,0.0,0.0,0.0,0.0,0.0,0.0,0.0,0.0,0.0,0.0,0.0,0.0,0.0,0.0,0.0,0.0,0.0,0.0,0.0,0.0,0.0,0.0,0.0,0.0,0.0,0.0,0.0,0.0,0.0,0.0,0.0,0.0,0.0,0.0,0.0,0.0,0.0,0.0,0.0,0.0,0.0,0.0,0.0,0.0,0.0,0.0,0.0,0.0,0.0,0.0,0.0,0.0,0.0,0.0,0.0,0.0,0.0,0.0,0.0,0.0,0.0,0.0,0.0,0.0,0.0,0.0,0.0,0.0,0.0,0.0,0.0,0.0,0.0,0.0,0.0,0.0,0.0,0.0,0.0,0.0,0.0,0.0,-2.4456,-2.5691,-2.7227,-2.7549,-2.6696,-2.4806,-2.3547,0.0,0.0,0.0,0.0,0.0,0.0,0.0,0.0,0.0,0.0,0.0,0.0,0.0,0.0,0.0,0.0,0.0,0.0,0.0,0.0,0.0,0.0,0.0,0.0,0.0,0.0,0.0,0.0,0.0,0.0,0.0,0.0,0.0,0.0,0.0,0.0,0.0,0.0,0.0,0.0,0.0,0.0,0.0,0.0,0.0,0.0,0.0,0.0,0.0,0.0,0.0,0.0,0.0,0.0,0.0,0.0,0.0,0.0,0.0,0.0,0.0,0.0,0.0,0.0,0.0,0.0,0.0,0.0,0.0,0.0,0.0,0.0,0.0,0.0,0.0,0.0,0.0,0.0,0.0,0.0,0.0,0.0,0.0,0.0,0.0,0.0,0.0,0.0,0.0,0.0,0.0,0.0,0.0,0.0,0.0,0.0,0.0,0.0,0.0,0.0,0.0,0.0,0.0,0.0,0.0,0.0,0.0,0.0,-2.5805,-2.6714,-2.8,-2.8752,-2.8711,-2.6459,-2.4826,0.0,0.0,0.0,0.0,0.0,0.0,0.0,0.0,0.0,0.0,0.0,0.0,0.0,0.0,0.0,0.0,0.0,0.0,0.0,0.0,0.0,0.0,0.0,0.0,0.0,0.0,0.0,0.0,0.0,0.0,0.0,0.0,0.0,0.0,0.0,0.0,0.0,0.0,0.0,0.0,0.0,0.0,0.0,0.0,0.0,0.0,0.0,0.0,0.0,0.0,0.0,0.0,0.0,0.0,0.0,0.0,0.0,0.0,0.0,0.0,0.0,0.0,0.0,0.0,0.0,0.0,0.0,0.0,0.0,0.0,0.0,0.0,0.0,0.0,0.0,0.0,0.0,0.0,0.0,0.0,0.0,0.0,0.0,0.0,0.0,0.0,0.0,0.0,0.0,0.0,0.0,0.0,0.0,0.0,0.0,0.0,0.0,0.0,0.0,0.0,0.0,0.0,0.0,0.0,0.0,0.0,0.0,0.0,-2.683,-2.7921,-2.9126,-2.9704,-2.9684,-2.711,-2.543,0.0,0.0,0.0,0.0,0.0,0.0,0.0,0.0,0.0,0.0,0.0,0.0,0.0,0.0,0.0,0.0,0.0,0.0,0.0,0.0,0.0,0.0,0.0,0.0,0.0,0.0,0.0,0.0,0.0,0.0,0.0,0.0,0.0,0.0,0.0,0.0,0.0,0.0,0.0,0.0,0.0,0.0,0.0,0.0,0.0,0.0,0.0,0.0,-2.3826,0.0,0.0,0.0,0.0,0.0,0.0,0.0,0.0,0.0,0.0,0.0,0.0,0.0,0.0,0.0,0.0,0.0,0.0,0.0,0.0,0.0,0.0,0.0,0.0,0.0,0.0,0.0,0.0,0.0,0.0,0.0,0.0,0.0,0.0,0.0,0.0,0.0,0.0,0.0,0.0,0.0,0.0,0.0,0.0,0.0,0.0,0.0,0.0,0.0,0.0,0.0,0.0,0.0,0.0,0.0,0.0,0.0,0.0,0.0,-2.7621,-2.9229,-2.9951,-3.0325,-3.0263,-2.8309,-2.6769,0.0,0.0,0.0,0.0,0.0,0.0,0.0,0.0,0.0,0.0,0.0,0.0,0.0,0.0,0.0,0.0,0.0,0.0,0.0,0.0,0.0,0.0,0.0,0.0,0.0,0.0,0.0,0.0,0.0,0.0,0.0,0.0,0.0,0.0,0.0,0.0,0.0,0.0,0.0,0.0,0.0,0.0,0.0,0.0,0.0,0.0,0.0,0.0,0.0,0.0,0.0,0.0,0.0,0.0,0.0,0.0,0.0,0.0,0.0,0.0,0.0,0.0,0.0,0.0,0.0,0.0,0.0,0.0,0.0,0.0,0.0,0.0,0.0,0.0,0.0,0.0,0.0,0.0,0.0,0.0,0.0,0.0,0.0,0.0,0.0,0.0,0.0,0.0,0.0,0.0,0.0,0.0,0.0,0.0,0.0,0.0,0.0,0.0,0.0,0.0,0.0,0.0,0.0,0.0,0.0,0.0,0.0,-2.6396,-2.835,-3.0355,-3.0673,-3.0801,-3.0781,-2.9661,-2.8025,-2.6067,0.0,0.0,0.0,0.0,0.0,0.0,0.0,0.0,0.0,0.0,0.0,0.0,0.0,0.0,0.0,0.0,0.0,0.0,0.0,0.0,0.0,0.0,0.0,0.0,0.0,0.0,0.0,0.0,0.0,0.0,0.0,0.0,0.0,0.0,0.0,0.0,0.0,0.0,-2.2128,-2.3308,0.0,0.0,0.0,0.0,0.0,0.0,0.0,0.0,-2.4157,0.0,0.0,0.0,0.0,0.0,0.0,0.0,0.0,0.0,0.0,0.0,0.0,0.0,0.0,0.0,0.0,0.0,0.0,0.0,0.0,0.0,0.0,0.0,0.0,0.0,0.0,0.0,0.0,0.0,0.0,0.0,0.0,0.0,0.0,0.0,0.0,0.0,0.0,0.0,0.0,0.0,0.0,0.0,0.0,0.0,0.0,0.0,0.0,0.0,0.0,0.0,0.0,0.0,0.0,0.0,0.0,-2.6754,-2.7097,-2.8493,-3.1086,-3.1257,-3.1257,-3.1236,-3.0134,-2.8493,-2.6552,0.0,0.0,0.0,0.0,0.0,0.0,0.0,0.0,0.0,0.0,0.0,0.0,0.0,0.0,0.0,0.0,0.0,0.0,0.0,0.0,0.0,0.0,0.0,0.0,0.0,0.0,0.0,0.0,0.0,0.0,0.0,0.0,0.0,0.0,0.0,0.0,0.0,0.0,0.0,-2.4612,-2.5088,0.0,0.0,0.0,0.0,0.0,0.0,0.0,0.0,-2.4985,0.0,0.0,0.0,0.0,0.0,0.0,0.0,0.0,0.0,0.0,0.0,0.0,0.0,0.0,0.0,0.0,0.0,0.0,0.0,0.0,0.0,0.0,0.0,0.0,0.0,0.0,0.0,0.0,0.0,0.0,0.0,0.0,0.0,0.0,0.0,0.0,0.0,0.0,0.0,0.0,0.0,0.0,0.0,0.0,0.0,0.0,0.0,0.0,0.0,0.0,0.0,0.0,0.0,0.0,0.0,-2.6814,-2.8573,-3.0478,-3.2333,-3.2188,-3.2085,-3.2043,-3.0504,-2.8615,0.0,0.0,0.0,0.0,0.0,0.0,0.0,0.0,0.0,0.0,0.0,0.0,0.0,0.0,0.0,0.0,0.0,0.0,0.0,0.0,0.0,0.0,0.0,0.0,0.0,0.0,0.0,0.0,0.0,0.0,0.0,0.0,0.0,0.0,0.0,0.0,0.0,0.0,0.0,0.0,-2.5275,-2.5916,-2.6848,0.0,0.0,0.0,0.0,0.0,0.0,-2.5647,-2.5523,0.0,0.0,0.0,0.0,0.0,0.0,0.0,0.0,0.0,0.0,0.0,0.0,0.0,0.0,0.0,0.0,0.0,0.0,0.0,0.0,0.0,0.0,0.0,0.0,0.0,0.0,0.0,0.0,0.0,0.0,0.0,0.0,0.0,0.0,0.0,0.0,0.0,0.0,0.0,0.0,0.0,0.0,0.0,0.0,0.0,0.0,0.0,0.0,0.0,0.0,0.0,0.0,0.0,0.0,0.0,-2.6855,-2.9876,-3.2189,-3.343,-3.3078,-3.2851,-3.283,-3.0663,-2.8655,0.0,0.0,0.0,0.0,0.0,0.0,0.0,0.0,0.0,0.0,0.0,0.0,0.0,0.0,0.0,0.0,0.0,0.0,0.0,0.0,0.0,0.0,0.0,0.0,0.0,0.0,0.0,0.0,0.0,0.0,0.0,0.0,0.0,0.0,0.0,0.0,0.0,0.0,0.0,0.0,0.0,-2.6827,-2.8255,-2.7158,0.0,0.0,0.0,0.0,-2.6061,-2.6413,0.0,0.0,0.0,0.0,0.0,0.0,0.0,0.0,0.0,0.0,0.0,0.0,0.0,0.0,0.0,0.0,0.0,0.0,0.0,0.0,0.0,0.0,0.0,0.0,0.0,0.0,0.0,0.0,0.0,0.0,0.0,0.0,0.0,0.0,0.0,0.0,0.0,0.0,0.0,0.0,0.0,0.0,0.0,0.0,0.0,0.0,0.0,0.0,0.0,0.0,0.0,0.0,0.0,0.0,0.0,0.0,-2.7803,-2.9982,-3.2046,-3.3865,-3.3534,-3.3306,-3.3265,-3.0717,-2.8591,0.0,0.0,0.0,0.0,0.0,0.0,0.0,0.0,0.0,0.0,0.0,0.0,0.0,0.0,0.0,0.0,0.0,0.0,0.0,0.0,0.0,0.0,0.0,0.0,0.0,0.0,0.0,0.0,0.0,0.0,0.0,0.0,0.0,0.0,0.0,0.0,0.0,0.0,0.0,0.0,0.0,-2.7759,-2.7966,-2.7489,-2.7096,0.0,0.0,-2.7966,-2.8711,-2.9208,0.0,0.0,0.0,0.0,0.0,0.0,0.0,0.0,0.0,0.0,0.0,0.0,0.0,0.0,0.0,0.0,0.0,0.0,0.0,0.0,0.0,0.0,0.0,0.0,0.0,0.0,0.0,0.0,0.0,0.0,0.0,0.0,0.0,0.0,0.0,0.0,0.0,0.0,0.0,0.0,0.0,0.0,0.0,0.0,0.0,0.0,0.0,0.0,0.0,0.0,0.0,0.0,0.0,0.0,0.0,-2.5825,-2.8046,-3.1379,-3.354,-3.4424,-3.4258,-3.4155,-3.4155,-3.1401,-2.9258,0.0,0.0,0.0,0.0,0.0,0.0,0.0,0.0,0.0,0.0,0.0,0.0,0.0,0.0,0.0,0.0,0.0,0.0,0.0,0.0,0.0,0.0,0.0,0.0,0.0,0.0,0.0,0.0,0.0,0.0,0.0,0.0,0.0,0.0,0.0,0.0,0.0,0.0,0.0,0.0,0.0,0.0,-2.9021,-2.8483,0.0,0.0,0.0,-2.8959,-2.8566,0.0,0.0,0.0,0.0,0.0,0.0,0.0,0.0,0.0,0.0,0.0,0.0,0.0,0.0,0.0,0.0,0.0,0.0,0.0,0.0,0.0,0.0,0.0,0.0,0.0,0.0,0.0,0.0,0.0,0.0,0.0,0.0,0.0,0.0,0.0,0.0,0.0,0.0,0.0,0.0,0.0,0.0,0.0,0.0,0.0,0.0,0.0,0.0,0.0,0.0,0.0,0.0,0.0,0.0,0.0,0.0,0.0,-2.8391,-3.2662,-3.4921,-3.4921,-3.4817,-3.4755,-3.4714,-3.2309,0.0,0.0,0.0,0.0,0.0,0.0,0.0,0.0,0.0,0.0,0.0,0.0,0.0,0.0,0.0,0.0,0.0,0.0,0.0,0.0,0.0,0.0,0.0,0.0,0.0,0.0,0.0,-1.8754,0.0,0.0,0.0,0.0,0.0,0.0,0.0,0.0,0.0,0.0,0.0,0.0,0.0,0.0,-2.8959,-2.987,-2.9311,-2.9104,0.0,0.0,-2.9787,-2.9228,-3.105,-3.1567,0.0,0.0,0.0,0.0,0.0,0.0,0.0,0.0,0.0,0.0,0.0,0.0,0.0,0.0,0.0,0.0,0.0,0.0,0.0,0.0,0.0,0.0,0.0,0.0,0.0,0.0,0.0,0.0,-1.7871,0.0,0.0,0.0,0.0,0.0,0.0,0.0,0.0,0.0,0.0,0.0,0.0,0.0,0.0,0.0,0.0,0.0,0.0,0.0,0.0,0.0,0.0,0.0,0.0,0.0,-2.7519,-2.9303,-3.3279,-3.5376,-3.5355,-3.4983,-3.4755,-3.4734,-3.3135,-3.0811,0.0,0.0,0.0,0.0,0.0,0.0,0.0,0.0,0.0,0.0,0.0,0.0,0.0,0.0,0.0,0.0,0.0,0.0,0.0,0.0,0.0,0.0,0.0,0.0,0.0,0.0,0.0,0.0,0.0,0.0,0.0,0.0,0.0,0.0,0.0,0.0,0.0,0.0,0.0,0.0,0.0,-2.8959,-2.987,-2.958,-3.0036,0.0,-3.1071,-3.0553,-3.2147,-3.3244,-3.2851,-2.9725,0.0,0.0,0.0,0.0,0.0,0.0,0.0,0.0,0.0,0.0,0.0,0.0,0.0,0.0,0.0,0.0,0.0,0.0,0.0,0.0,0.0,0.0,0.0,0.0,0.0,-1.6843,0.0,0.0,-1.7456,0.0,0.0,0.0,0.0,0.0,0.0,0.0,0.0,0.0,0.0,0.0,0.0,0.0,0.0,0.0,0.0,0.0,0.0,0.0,0.0,0.0,0.0,0.0,0.0,-2.7864,-2.9363,-3.3341,-3.5418,-3.5418,-3.5252,-3.5169,-3.5169,-3.3875,-3.1942,0.0,0.0,0.0,0.0,0.0,0.0,0.0,0.0,0.0,0.0,0.0,0.0,0.0,0.0,0.0,0.0,0.0,0.0,0.0,0.0,0.0,0.0,0.0,0.0,0.0,0.0,0.0,0.0,-2.4157,-2.4612,-2.4322,0.0,0.0,0.0,0.0,0.0,0.0,0.0,0.0,0.0,0.0,-3.0325,-3.1505,-3.1526,0.0,0.0,-3.2354,-3.2126,-3.2271,-3.283,-3.2354,-2.9725,-2.869,0.0,0.0,0.0,0.0,0.0,0.0,0.0,0.0,0.0,0.0,0.0,0.0,0.0,0.0,0.0,0.0,0.0,0.0,0.0,0.0,0.0,0.0,0.0,0.0,0.0,0.0,0.0,0.0,0.0,0.0,0.0,0.0,0.0,0.0,0.0,0.0,0.0,0.0,0.0,0.0,0.0,0.0,0.0,0.0,0.0,0.0,0.0,0.0,0.0,0.0,0.0,0.0,-2.8026,-2.9363,-3.3341,-3.55,-3.5625,-3.5625,-3.5687,-3.5811,-3.5108,-3.3469,0.0,0.0,0.0,0.0,0.0,0.0,0.0,0.0,0.0,0.0,0.0,0.0,0.0,0.0,0.0,0.0,0.0,0.0,0.0,0.0,0.0,0.0,0.0,0.0,0.0,0.0,0.0,0.0,-2.544,-2.5606,-2.4547,0.0,0.0,0.0,0.0,0.0,0.0,0.0,0.0,0.0,0.0,-3.1422,-3.2375,-3.2292,-3.2209,-3.2478,-3.2313,-3.2085,-3.1878,-3.223,-3.194,-3.0201,0.0,0.0,0.0,0.0,0.0,0.0,0.0,0.0,0.0,0.0,0.0,0.0,0.0,0.0,0.0,0.0,0.0,0.0,0.0,0.0,0.0,0.0,0.0,0.0,0.0,0.0,0.0,-1.6959,0.0,0.0,-1.8008,0.0,0.0,0.0,0.0,0.0,0.0,0.0,0.0,0.0,0.0,0.0,0.0,0.0,0.0,0.0,0.0,0.0,0.0,0.0,0.0,0.0,0.0,-2.8046,-2.9384,-3.3361,-3.5645,-3.608,-3.6101,-3.6308,-3.6722,-3.6742,-3.5521,-3.2998,0.0,0.0,0.0,0.0,0.0,0.0,0.0,0.0,0.0,0.0,0.0,0.0,0.0,0.0,0.0,0.0,0.0,0.0,0.0,0.0,0.0,0.0,0.0,0.0,0.0,0.0,-2.219,-2.3536,-2.4592,0.0,0.0,0.0,0.0,0.0,0.0,0.0,0.0,0.0,0.0,-3.0553,-3.2002,-3.2064,-3.1319,-3.1174,-3.2002,-3.0657,-2.9932,-3.1278,-3.1774,-3.1899,0.0,0.0,0.0,0.0,0.0,0.0,0.0,0.0,0.0,0.0,0.0,0.0,0.0,0.0,0.0,0.0,0.0,0.0,0.0,0.0,0.0,0.0,0.0,0.0,0.0,0.0,0.0,-1.8841,-1.8638,0.0,0.0,0.0,0.0,0.0,0.0,0.0,0.0,0.0,0.0,0.0,-2.6496,-2.71,0.0,0.0,0.0,0.0,0.0,0.0,0.0,0.0,0.0,0.0,0.0,0.0,-2.9059,-2.9931,-3.4101,-3.6411,-3.6556,-3.6577,-3.6639,-3.6804,-3.6804,-3.5603,-3.3217,0.0,0.0,0.0,0.0,0.0,0.0,0.0,0.0,0.0,0.0,0.0,0.0,0.0,0.0,0.0,0.0,0.0,0.0,0.0,0.0,0.0,0.0,0.0,0.0,0.0,-2.4467,0.0,0.0,0.0,0.0,0.0,0.0,0.0,0.0,0.0,0.0,0.0,-2.8566,-3.0243,-3.0843,-3.1464,-3.2375,-3.225,-3.2478,0.0,0.0,0.0,0.0,0.0,0.0,0.0,0.0,0.0,0.0,0.0,0.0,0.0,0.0,-3.1433,-3.048,-3.1505,-3.2592,-3.3252,0.0,0.0,0.0,0.0,0.0,0.0,0.0,0.0,0.0,0.0,0.0,0.0,0.0,0.0,-2.0953,0.0,-2.1579,0.0,0.0,0.0,0.0,0.0,0.0,0.0,0.0,-2.7562,-2.8857,-2.955,-3.012,-2.9937,0.0,-2.8512,-2.6657,0.0,0.0,0.0,0.0,0.0,0.0,0.0,0.0,-2.9728,-3.0599,-3.4635,-3.6887,-3.7032,-3.7053,-3.7115,-3.7281,-3.7281,-3.6577,-3.4984,-3.3248,-3.1284,0.0,0.0,0.0,0.0,0.0,0.0,0.0,0.0,0.0,0.0,0.0,0.0,0.0,0.0,0.0,0.0,0.0,0.0,0.0,0.0,0.0,0.0,0.0,-2.5523,0.0,0.0,0.0,0.0,0.0,0.0,0.0,0.0,0.0,-2.7076,-2.8524,-3.0139,-3.165,-3.2002,-3.2147,-3.225,0.0,0.0,0.0,0.0,0.0,0.0,0.0,-3.105,-3.136,-3.0946,-3.0781,-3.134,-3.2064,-3.2931,-3.4032,0.0,0.0,-3.435,-3.5014,-3.6039,-3.6478,-3.6601,-3.6823,-3.6823,-3.7517,-3.8241,0.0,0.0,0.0,0.0,0.0,0.0,0.0,0.0,-2.4431,-2.3561,0.0,-2.4238,0.0,0.0,0.0,0.0,0.0,-2.5953,0.0,0.0,-3.2231,-3.3458,-3.2465,-3.2445,-3.2445,-3.2248,-3.0782,-2.9951,-2.9465,-2.8249,0.0,0.0,0.0,0.0,0.0,0.0,-3.0093,-3.1491,-3.5026,-3.7074,-3.7488,-3.7529,-3.7736,-3.815,-3.8171,-3.815,-3.8067,-3.5745,-3.4247,-3.3793,-2.9157,0.0,0.0,0.0,0.0,0.0,0.0,0.0,0.0,0.0,0.0,0.0,0.0,0.0,0.0,0.0,0.0,0.0,0.0,0.0,0.0,-2.5937,0.0,0.0,0.0,0.0,0.0,0.0,0.0,0.0,0.0,0.0,-2.8235,-2.9973,-3.1692,-3.254,0.0,0.0,0.0,0.0,-3.2602,-3.0574,-3.018,-3.0243,-3.0346,-3.1692,-3.3058,-3.3927,0.0,0.0,-3.5542,-3.5188,-3.5233,-3.6107,-3.922,-4.0968,-3.8743,-3.7073,-3.627,-3.7176,-3.7843,-3.7813,-3.7959,-4.0542,-4.2735,-2.6022,0.0,0.0,0.0,0.0,-2.3845,-2.5442,-2.8153,-2.8301,-2.7746,-2.6937,-2.7811,0.0,0.0,0.0,0.0,0.0,0.0,-2.9225,-3.0819,-3.2199,-3.3423,-3.451,-3.4531,-3.451,-3.451,-3.3998,-3.3916,-3.4101,-3.3731,-3.0595,-2.4794,0.0,0.0,0.0,0.0,-3.1917,-3.3534,-3.6366,-3.786,-3.7984,-3.7984,-3.8046,-3.8191,-3.8191,-3.8191,-3.8171,-3.755,-3.6243,-3.4247,-3.2534,0.0,0.0,0.0,0.0,0.0,0.0,0.0,0.0,0.0,0.0,0.0,0.0,0.0,0.0,0.0,0.0,0.0,0.0,0.0,-2.5378,-2.7158,-2.7552,0.0,0.0,0.0,0.0,0.0,0.0,0.0,0.0,0.0,-3.0905,-3.1133,-3.1464,0.0,0.0,-3.1629,-3.0967,-3.2043,-3.3016,-3.3348,-3.3389,0.0,-3.4714,-3.4196,-3.3989,-3.4879,-3.5749,-3.6225,-3.5956,-3.6915,-3.8095,-3.916,-4.1038,-4.2543,-4.2791,-4.3689,-4.4067,-4.4153,-4.3995,-4.3696,-4.3373,-4.3851,-4.4166,-3.0313,-2.7912,-2.5852,-2.5897,-2.7163,-2.6937,-2.8765,-3.1732,-3.1586,-3.0897,-2.9892,-3.081,-2.9194,-2.5952,-2.6454,0.0,0.0,0.0,-3.1187,-3.3135,-3.3608,-3.4531,-3.5666,-3.5894,-3.5976,-3.5956,-3.579,-3.5935,-3.639,-3.5706,-3.3059,-2.8551,0.0,0.0,-2.8565,-3.1451,-3.3615,-3.4943,-3.7068,-3.8191,-3.8191,-3.8357,-3.844,-3.846,-3.8626,-3.873,-3.873,-3.873,-3.8088,-3.6444,-3.5273,-3.3452,0.0,0.0,0.0,0.0,0.0,0.0,0.0,0.0,0.0,0.0,0.0,-2.5378,-2.3577,0.0,0.0,0.0,-2.72,-2.7365,-2.7655,-2.8649,0.0,0.0,0.0,0.0,0.0,0.0,0.0,-2.9456,-3.1443,-3.283,-3.2851,-3.2602,-3.2582,-3.2934,-3.2892,-3.2644,-3.2106,0.0,-3.4507,-3.4962,-3.519,-3.5645,-3.6618,-3.6328,-3.6266,-3.7177,-3.7384,-3.755,-3.7715,-3.8456,-3.9844,-4.1647,-4.2855,-4.4151,-4.5889,-4.7556,-4.7983,-4.6502,-4.6075,-4.5874,-4.5547,-4.5547,-4.5623,-3.3916,-3.3452,-2.8823,-2.8276,-3.0581,-3.06,-3.1892,-3.4155,-3.4176,-3.297,-3.1309,-3.3309,-3.1576,-2.7233,-2.7872,0.0,-3.2128,-3.2445,-3.3628,-3.5438,-3.5894,-3.6121,-3.6142,-3.6577,-3.6804,-3.6804,-3.637,-3.6411,-3.6784,-3.5355,-3.437,-3.3919,-3.3779,-3.317,-3.2064,-3.3595,-3.4841,-3.5804,-3.7336,-3.8171,-3.8295,-3.8688,-3.8916,-3.8916,-3.9309,-3.9537,-3.9537,-3.9537,-3.9537,-3.9475,-3.7267,-3.5783,-3.521,0.0,0.0,0.0,0.0,0.0,0.0,0.0,0.0,0.0,0.0,0.0,0.0,0.0,0.0,-2.9891,-3.105,0.0,-3.1443,-3.0346,0.0,0.0,0.0,-2.9373,-3.076,-3.2126,-3.2913,-3.2851,0.0,0.0,-3.4279,-3.4279,-3.4631,-3.5583,-3.5914,-3.5604,-3.4341,-3.5687,-3.6597,-3.5832,-3.608,-3.6556,-3.7156,-3.8005,-3.8895,-3.9661,-3.9827,-3.9558,-4.0125,-4.0097,-4.1151,-4.3887,-4.4671,-4.555,-4.8255,-4.8937,-4.851,-4.5598,-4.5472,-4.5824,-4.5824,-4.6476,-4.7079,-3.1917,-3.1879,-3.0655,-3.152,-3.3735,-3.3735,-3.4224,-3.5086,-3.5107,-3.4738,-3.4289,-3.4881,-3.4534,-3.3781,-3.4268,-3.4677,-3.5026,-3.5129,-3.5232,-3.5459,-3.5894,-3.6121,-3.6142,-3.6597,-3.6804,-3.6784,-3.668,-3.6887,-3.7301,-3.6882,-3.6342,-3.5656,-3.4684,-3.3624,-3.2509,-3.3538,-3.4777,-3.6126,-3.691,-3.7904,-3.9164,-3.9309,-3.9371,-3.9392,-3.9475,-3.9537,-3.9537,-3.9537,-3.9537,-3.9516,-3.8883,-3.8089,-3.7135,-3.2824,0.0,0.0,0.0,0.0,0.0,0.0,0.0,0.0,0.0,-2.809,-2.5585,0.0,-2.8545,0.0,-3.2913,-3.3762,-3.2043,-3.2188,0.0,0.0,-3.0967,-3.1257,-3.2582,-3.3948,-3.4507,-3.3824,-3.4859,-3.5749,-3.6101,-3.6142,-3.6618,-3.7819,-3.6618,-3.5459,-3.5169,-3.668,-3.7798,-3.7653,-3.8191,-3.875,-3.8874,-3.9123,-3.9495,-3.9661,-3.962,-3.9992,-4.1151,-4.2103,-4.339,-4.5208,-4.6415,-4.7329,-4.8058,-4.8234,-4.8109,-4.733,-4.7606,-4.7857,-4.7431,-4.7556,-4.7707,-3.2388,-3.2237,-3.1764,-3.2256,-3.3277,-3.4117,-3.4983,-3.5749,-3.5956,-3.6039,-3.6039,-3.6039,-3.6183,-3.6432,-3.668,-3.6556,-3.6142,-3.6328,-3.6163,-3.5769,-3.6411,-3.6722,-3.6742,-3.7198,-3.7425,-3.7425,-3.7425,-3.755,-3.7798,-3.7798,-3.7625,-3.7452,-3.6749,-3.5912,-3.4814,-3.3828,-3.3948,-3.5265,-3.6432,-3.775,-3.9495,-3.9744,-3.9234,-3.8244,-3.8849,-3.8767,-3.7647,-3.82,-3.8241,-3.7647,-3.7606,-3.7248,-3.6587,-3.3437,-3.1767,0.0,0.0,0.0,0.0,0.0,0.0,0.0,0.0,0.0,0.0,0.0,-3.0532,-3.0967,-3.3886,-3.4797,-3.2561,-3.3161,-3.3699,-3.3762,-3.3596,-3.4093,-3.5645,-3.6308,-3.6535,-3.6225,-3.6867,-3.7508,-3.7964,-3.8026,-3.8357,-3.933,-3.8543,-3.7695,-3.7446,-3.8502,-3.9454,-3.9682,-4.0116,-4.053,-4.0696,-4.0737,-4.0675,-4.0489,-4.0448,-4.0646,-4.1252,-4.2051,-4.3395,-4.5552,-4.661,-4.7645,-4.9057,-4.8962,-4.8736,-4.8987,-4.9063,-4.8812,-4.8083,-4.7908,-4.7908,-3.3591,-3.3193,-3.2115,-3.1538,-3.1617,-3.3081,-3.4487,-3.5787,-3.6325,-3.666,-3.6722,-3.6784,-3.6825,-3.6887,-3.6949,-3.6722,-3.6328,-3.6701,-3.6639,-3.6266,-3.7094,-3.7488,-3.7508,-3.7964,-3.8191,-3.8191,-3.8233,-3.8274,-3.8274,-3.8336,-3.8502,-3.8615,-3.8479,-3.8057,-3.735,-3.4277,-3.3272,-3.4285,-3.6038,-3.7709,-3.9192,-3.9502,-3.8562,-3.6582,-3.7922,-3.7746,-3.5598,-3.6607,-3.6708,-3.5557,-3.5477,-3.5517,-3.5598,-3.3957,-3.2894,0.0,-3.101,0.0,0.0,0.0,0.0,0.0,0.0,0.0,0.0,-3.343,-3.3223,-3.2002,-3.4507,-3.5418,-3.3513,-3.4051,-3.5107,-3.6597,-3.6494,-3.6949,-3.8523,-3.846,-3.844,-3.8874,-3.8937,-3.9123,-3.9495,-3.9661,-3.9868,-4.0241,-4.0717,-4.0634,-4.0096,-4.051,-4.111,-4.1607,-4.1648,-4.1669,-4.2,-4.2166,-4.2021,-4.171,-4.1855,-4.1937,-4.1947,-4.2465,-4.3577,-4.6081,-4.6998,-4.7869,-5.0772,-5.0444,-4.9992,-5.0368,-5.0117,-4.954,-4.8636,-4.8385,-4.8259,-3.26,-3.271,-3.1336,-3.1318,-3.2198,-3.1791,-3.2464,-3.4021,-3.5126,-3.5894,-3.6266,-3.6639,-3.7011,-3.7384,-3.7757,-3.7674,-3.7239,-3.7322,-3.7115,-3.6701,-3.7239,-3.7488,-3.7529,-3.7964,-3.8191,-3.8212,-3.8543,-3.873,-3.873,-3.9102,-3.8821,-3.7913,-3.6909,-3.6176,-3.5638,0.0,0.0,0.0,-3.6779,-3.7381,-3.7934,-3.7136,-3.6476,-3.6091,-3.693,0.0,-3.689,-3.7112,-3.7132,-3.687,-3.685,0.0,0.0,0.0,0.0,0.0,0.0,0.0,0.0,0.0,0.0,0.0,-3.3969,-3.3906,-3.4362,-3.5128,-3.5335,-3.4755,-3.5894,-3.666,-3.6618,-3.6742,-3.6825,-3.6804,-3.7053,-3.7529,-3.8233,-3.8543,-3.8895,-3.9351,-3.9413,-3.9599,-4.0075,-4.0386,-4.0655,-4.0841,-4.1772,-4.2269,-4.1793,-4.1855,-4.2021,-4.2124,-4.2166,-4.2166,-4.2249,-4.229,-4.2311,-4.2271,-4.3252,-4.4199,-4.5252,-4.6564,-4.8045,-4.9756,-5.027,-5.032,-5.1164,-5.1096,-5.0946,-5.1096,-5.1021,-5.0745,-5.0092,-4.9941,-5.0067,-3.3728,0.0,-3.2349,-3.2196,0.0,-3.2955,-3.3462,-3.4171,-3.5122,-3.6241,-3.7156,-3.7384,-3.7612,-3.7839,-3.8088,-3.8046,-3.7839,-3.8067,-3.7922,-3.7529,-3.8191,-3.8378,-3.8171,-3.8626,-3.8854,-3.8874,-3.9081,-3.9185,-3.9206,-3.9433,-3.9296,-3.8911,-3.832,-3.8041,-3.8425,-3.8326,-3.7986,-3.7482,-3.7616,-3.818,-3.9158,-3.8856,-3.8085,-3.6933,-3.8133,0.0,0.0,0.0,0.0,0.0,0.0,0.0,0.0,0.0,0.0,-3.684,-3.5473,-3.5005,-3.5766,-3.5748,-3.6328,-3.7674,-3.7777,-3.7405,-3.6535,-3.7281,-3.7715,-3.7488,-3.7881,-3.8253,-3.8481,-3.8502,-3.8502,-3.8502,-3.8502,-3.8688,-3.9102,-3.9185,-3.9454,-4.0075,-4.0199,-4.0448,-4.1151,-4.14,-4.1648,-4.1855,-4.2456,-4.2932,-4.2932,-4.2932,-4.2932,-4.2932,-4.2932,-4.2932,-4.2932,-4.2932,-4.2828,-4.2811,-4.3489,-4.4249,-4.4765,-4.6568,-4.8445,-4.9886,-5.0555,-5.1147,-5.2216,-5.185,-5.1348,-5.1574,-5.1473,-5.1348,-5.1197,-5.1046,-5.0921,-3.5237,-3.4604,-3.3521,-3.2939,-3.2856,-3.4199,-3.4969,-3.5137,0.0,0.0,0.0,-3.7647,-3.7822,-3.8191,-3.8253,-3.8295,-3.8336,-3.8771,-3.8771,-3.846,-3.9185,-3.9371,-3.9123,-3.9475,-3.9702,-3.9785,-3.9765,-3.9765,-3.9785,-3.9868,-4.0116,-4.0551,-4.0634,-4.1089,-4.1917,-4.258,-4.1688,-3.9487,-3.8938,-3.9466,-4.0841,-4.0946,-4.0,-3.7913,-3.933,-3.9129,-3.7011,-3.796,-3.7879,-3.6446,-3.6345,-3.6264,-3.6172,-3.6152,-3.674,-3.7935,-3.7922,-3.8303,-3.9388,-3.9337,-3.9723,-4.0924,-4.1069,-4.0427,-3.8792,-3.9268,-3.9661,-3.9661,-3.9578,-3.9537,-3.9537,-3.9537,-3.9682,-4.0075,-3.9827,-3.9827,-4.0241,-4.0116,-4.0261,-4.0944,-4.1131,-4.1379,-4.2083,-4.229,-4.2497,-4.2828,-4.2973,-4.3159,-4.3511,-4.3553,-4.3532,-4.3532,-4.3491,-4.3573,-4.3615,-4.3677,-4.3553,-4.3284,-4.3856,-4.4133,-4.4527,-4.6115,-4.8201,-5.0237,-5.0819,-5.1956,-5.3353,-5.2854,-5.2076,-5.2452,-5.2176,-5.2,-5.2352,-5.2201,-5.1875,-3.573,-3.4587,-3.2878,-3.236,-3.2601,-3.2611,-3.433,-3.6738,-3.5449,-3.5211,-3.5697,-3.5697,-3.6583,-3.8191,-3.8585,-3.875,-3.8792,-3.9226,-3.9413,-3.9351,-3.9475,-3.9723,-4.0034,-4.0096,-4.0323,-4.0675,-4.0696,-4.0675,-4.0737,-4.1089,-4.1524,-4.1959,-4.2352,-4.2787,-4.3263,-4.3056,-4.2932,-4.289,-4.111,-4.0269,-4.0596,-3.9616,-3.8644,-3.8016,-3.8969,-3.903,-3.8324,-3.8505,-3.8445,-3.8203,-3.8182,-3.8624,-3.9575,-3.9596,-4.0228,-4.142,-4.1234,-4.1089,-4.1255,-4.0862,-4.0841,-4.1421,-4.1835,-4.1607,-4.0613,-4.0241,-4.0116,-4.0116,-3.9847,-3.9537,-3.9537,-3.9599,-3.9682,-3.9744,-3.9972,-4.0303,-4.0758,-4.1069,-4.1421,-4.1938,-4.2062,-4.2062,-4.2311,-4.2621,-4.2849,-4.2973,-4.3242,-4.3532,-4.3615,-4.3615,-4.3615,-4.3615,-4.3615,-4.3615,-4.3698,-4.3967,-4.4112,-4.4132,-4.5502,-4.6811,-4.772,-4.9548,-5.136,-5.3271,-5.3601,-5.4052,-5.4436,-5.431,-5.3984,-5.4034,-5.3884,-5.3959,-5.4034,-5.3934,-5.3683,-3.7768,-3.7207,-3.6451,-3.6208,-3.636,-3.6169,-3.6611,-3.7148,-3.5559,-3.5898,-3.7481,-3.7617,-3.8031,-3.8916,-3.9123,-3.9371,-3.962,-3.9806,-4.0034,-4.0282,-4.053,-4.0758,-4.0965,-4.1214,-4.1441,-4.1607,-4.1628,-4.1628,-4.1669,-4.2083,-4.2414,-4.2642,-4.3077,-4.3656,-4.4298,-4.4153,-4.4401,-4.5043,-4.3132,-4.2225,-4.2225,-4.1912,-4.1559,-4.1355,-4.201,-4.2276,-4.2051,-4.1805,-4.1559,-4.1314,-4.1068,-4.1006,-4.1461,-4.1482,-4.1668,-4.2228,-4.2062,-4.1938,-4.1959,-4.1752,-4.171,-4.1917,-4.2145,-4.2083,-4.1669,-4.1421,-4.1317,-4.1338,-4.1131,-4.1007,-4.1007,-4.1007,-4.1007,-4.1007,-4.1214,-4.14,-4.1586,-4.1793,-4.2104,-4.2518,-4.2621,-4.2704,-4.2973,-4.318,-4.3304,-4.3304,-4.3511,-4.3698,-4.3946,-4.3987,-4.3884,-4.3698,-4.3822,-4.3967,-4.4008,-4.4381,-4.4629,-4.467,-4.567,-4.6684,-4.766,-4.9616,-5.1765,-5.2708,-5.3863,-5.4895,-5.5013,-5.4762,-5.4612,-5.4561,-5.4561,-5.4561,-5.4561,-5.4561,-5.4386,-3.8969,-3.8688,-3.8287,-3.8107,-3.8127,-3.7881,-3.7676,-3.7514,-3.6155,-3.722,-3.9815,-3.9109,-3.8966,-3.9702,-3.9785,-4.0034,-4.0344,-4.0468,-4.0737,-4.1193,-4.1565,-4.1835,-4.2042,-4.2414,-4.2663,-4.2828,-4.2787,-4.2725,-4.2766,-4.3056,-4.3346,-4.3553,-4.3905,-4.4484,-4.5271,-4.5188,-4.554,-4.6223,-4.5043,-4.4339,-4.4236,-4.4588,-4.4712,-4.465,-4.494,-4.5105,-4.4981,-4.465,-4.4298,-4.3946,-4.3573,-4.3221,-4.289,-4.287,-4.287,-4.287,-4.2787,-4.2663,-4.258,-4.2663,-4.2725,-4.2725,-4.2725,-4.2725,-4.2704,-4.2621,-4.2456,-4.2311,-4.2186,-4.2207,-4.2166,-4.2186,-4.2249,-4.2249,-4.2352,-4.2373,-4.2393,-4.2497,-4.2683,-4.3014,-4.3077,-4.3221,-4.3511,-4.3615,-4.3656,-4.3739,-4.3842,-4.4091,-4.4381,-4.4463,-4.4298,-4.4132,-4.4236,-4.4443,-4.4484,-4.4857,-4.5105,-4.5147,-4.5519,-4.6225,-4.6944,-4.905,-5.1093,-5.1944,-5.3562,-5.5085,-5.5521,-5.5491,-5.534,-5.5465,-5.5591,-5.5465,-5.5516,-5.5516,-5.5064,-3.7797,-3.6275,-3.4752,-3.3744,-3.3979,-3.328,-3.5362,-3.8561,-3.769,-3.8932,-4.1416,-3.774,-3.7584,-3.9939,-4.0593,-4.082,-4.0924,-4.1255,-4.171,-4.2124,-4.2166,-4.2621,-4.3346,-4.347,-4.3925,-4.4546,-4.4256,-4.4029,-4.4029,-4.4132,-4.4588,-4.5333,-4.5478,-4.5705,-4.6119,-4.583,-4.5871,-4.6347,-4.6596,-4.6513,-4.6119,-4.614,-4.5975,-4.5581,-4.5602,-4.5416,-4.5126,-4.494,-4.4919,-4.4877,-4.4815,-4.4774,-4.4733,-4.4733,-4.4733,-4.4712,-4.4339,-4.3946,-4.3573,-4.3884,-4.4091,-4.4112,-4.407,-4.407,-4.4049,-4.3718,-4.3118,-4.2559,-4.2311,-4.2331,-4.2269,-4.229,-4.2352,-4.2393,-4.2663,-4.2849,-4.2932,-4.3242,-4.3511,-4.3532,-4.3594,-4.3573,-4.3698,-4.3718,-4.3842,-4.4194,-4.4505,-4.4753,-4.4898,-4.4919,-4.496,-4.4877,-4.494,-4.494,-4.5002,-4.5312,-4.5581,-4.5664,-4.5975,-4.6643,-4.7942,-4.8755,-4.992,-5.2811,-5.3822,-5.499,-5.6202,-5.6821,-5.6922,-5.6997,-5.7198,-5.7449,-5.7549,-5.7399,-5.6721,-3.762,-3.5979,-3.5222,-3.4996,-3.5431,-3.7163,-3.8765,-3.981,-3.8508,-3.9429,-4.1168,-3.7869,-3.8176,-4.1688,-4.2,-4.2228,-4.2497,-4.2683,-4.3035,-4.3449,-4.347,-4.3822,-4.4381,-4.4443,-4.465,-4.496,-4.4795,-4.4712,-4.4753,-4.4981,-4.5436,-4.5975,-4.583,-4.6057,-4.6658,-4.6306,-4.6409,-4.7113,-4.732,-4.7196,-4.6844,-4.701,-4.7051,-4.6885,-4.6865,-4.6782,-4.6554,-4.6078,-4.5912,-4.614,-4.5685,-4.5519,-4.5788,-4.5788,-4.5788,-4.5788,-4.5623,-4.5312,-4.4877,-4.5022,-4.5002,-4.4733,-4.4712,-4.4712,-4.4712,-4.4526,-4.4256,-4.3905,-4.3387,-4.3056,-4.3077,-4.3056,-4.3056,-4.3077,-4.3221,-4.3428,-4.3718,-4.3905,-4.4112,-4.4381,-4.4422,-4.4422,-4.4422,-4.4422,-4.4505,-4.4691,-4.4919,-4.5105,-4.5333,-4.5395,-4.5519,-4.5726,-4.5788,-4.5664,-4.5498,-4.5788,-4.6016,-4.6099,-4.6223,-4.6951,-4.841,-5.003,-5.1574,-5.3904,-5.5054,-5.6076,-5.73,-5.7549,-5.765,-5.7926,-5.7901,-5.7901,-5.7901,-5.7901,-5.7374,-3.9043,-3.7838,-3.7091,-3.6272,-3.6035,-3.8764,-3.9721,-3.9249,-3.8377,-3.9203,-4.0743,-3.8977,-3.9842,-4.2584,-4.2627,-4.2688,-4.3147,-4.3648,-4.4049,-4.4463,-4.4484,-4.4733,-4.5147,-4.5188,-4.525,-4.5354,-4.5374,-4.5436,-4.5561,-4.5871,-4.6285,-4.6596,-4.6389,-4.6513,-4.6947,-4.6678,-4.6782,-4.7258,-4.7444,-4.7361,-4.7134,-4.7465,-4.7568,-4.7361,-4.732,-4.732,-4.7299,-4.6699,-4.6554,-4.6989,-4.6409,-4.6264,-4.6678,-4.672,-4.6699,-4.672,-4.672,-4.6575,-4.6244,-4.6223,-4.6099,-4.5768,-4.5643,-4.5561,-4.554,-4.5436,-4.5374,-4.5291,-4.4733,-4.4319,-4.4008,-4.3987,-4.3987,-4.3987,-4.3987,-4.4153,-4.4422,-4.4484,-4.4608,-4.494,-4.4898,-4.5002,-4.5002,-4.5064,-4.5167,-4.5188,-4.5312,-4.5457,-4.5768,-4.5871,-4.5975,-4.6285,-4.6326,-4.6202,-4.5954,-4.6078,-4.6326,-4.655,-4.6733,-4.7826,-4.8902,-5.0839,-5.2883,-5.4502,-5.629,-5.7498,-5.7926,-5.8127,-5.8202,-5.8303,-5.8328,-5.8328,-5.8478,-5.8378,-5.8353,-4.2679,-4.1887,-3.9107,-3.6184,-3.374,-3.4571,-3.5542,-3.7032,-3.7101,-3.8247,-3.9903,-4.1057,-4.2198,-4.2592,-4.1853,-4.168,-4.2034,-4.3522,-4.4255,-4.4646,-4.4824,-4.5209,-4.5643,-4.5664,-4.5871,-4.6202,-4.6285,-4.6492,-4.6865,-4.6947,-4.7196,-4.7548,-4.7465,-4.7341,-4.7092,-4.6989,-4.6803,-4.6658,-4.6968,-4.7092,-4.7092,-4.7444,-4.7258,-4.6575,-4.6451,-4.6533,-4.6492,-4.6409,-4.6575,-4.703,-4.6968,-4.7134,-4.7548,-4.7589,-4.7568,-4.7568,-4.7589,-4.7568,-4.7506,-4.7444,-4.7424,-4.7382,-4.6906,-4.6865,-4.6658,-4.6368,-4.6161,-4.6244,-4.6057,-4.5705,-4.5064,-4.4877,-4.4836,-4.4836,-4.4877,-4.4898,-4.496,-4.496,-4.496,-4.5064,-4.5126,-4.5147,-4.5084,-4.5395,-4.5602,-4.5726,-4.5995,-4.6244,-4.6202,-4.6264,-4.6326,-4.6368,-4.6389,-4.6347,-4.6326,-4.6409,-4.6409,-4.6717,-4.7638,-4.9337,-5.0131,-5.1266,-5.3255,-5.4873,-5.5994,-5.7161,-5.8249,-5.8755,-5.8905,-5.9006,-5.9131,-5.9182,-5.9031,-5.9307,-5.9257,-3.7855,-3.6923,-3.6746,-3.5561,-3.4173,-3.6453,-3.7552,-3.733,-3.7707,-3.8216,-3.8537,-3.8199,-3.8116,-3.8389,-3.9121,-4.0804,-4.2787,-4.3616,-4.3372,-4.2674,-4.3692,-4.4279,-4.4621,-4.5739,-4.6616,-4.6803,-4.7072,-4.7279,-4.7424,-4.7444,-4.7382,-4.7279,-4.6948,-4.6866,-4.6907,-4.6722,-4.6742,-4.7196,-4.7382,-4.732,-4.7051,-4.6866,-4.664,-4.643,-4.6906,-4.7031,-4.6886,-4.6783,-4.6989,-4.7424,-4.7196,-4.7237,-4.7631,-4.7672,-4.7672,-4.7672,-4.7672,-4.7568,-4.732,-4.7258,-4.7134,-4.6844,-4.6699,-4.6637,-4.6575,-4.6451,-4.6347,-4.6347,-4.6347,-4.614,-4.5933,-4.5602,-4.5312,-4.5064,-4.5002,-4.5147,-4.5354,-4.5436,-4.554,-4.5788,-4.585,-4.585,-4.583,-4.6016,-4.6099,-4.6119,-4.6244,-4.6347,-4.6347,-4.6347,-4.6492,-4.672,-4.6803,-4.6906,-4.7196,-4.6947,-4.6865,-4.7298,-4.8164,-4.9816,-5.0872,-5.2309,-5.42,-5.6692,-5.7432,-5.7808,-5.9081,-5.9106,-5.9307,-5.9332,-5.9508,-5.9508,-5.9483,-5.9508,-5.9508,-3.777,-3.6237,-3.6921,-3.6139,-3.4863,-3.7231,-3.7806,-3.7079,-3.733,-3.7447,-3.7275,-3.6773,-3.6427,-3.6929,-3.8955,-4.0892,-4.2812,-4.2882,-4.2882,-4.2997,-4.3682,-4.4277,-4.5118,-4.5916,-4.6555,-4.7113,-4.7527,-4.7672,-4.7672,-4.7672,-4.7527,-4.7279,-4.6927,-4.6845,-4.6907,-4.6557,-4.666,-4.7093,-4.6927,-4.6763,-4.6516,-4.6332,-4.6025,-4.5821,-4.6619,-4.6927,-4.6596,-4.664,-4.6866,-4.7196,-4.7031,-4.7237,-4.7631,-4.7672,-4.7672,-4.7672,-4.7672,-4.7568,-4.7299,-4.7237,-4.7134,-4.6823,-4.6782,-4.6782,-4.6782,-4.6782,-4.6782,-4.6782,-4.6782,-4.674,-4.6554,-4.6306,-4.5933,-4.554,-4.5436,-4.554,-4.585,-4.5892,-4.6037,-4.6223,-4.6285,-4.6306,-4.6347,-4.6326,-4.6409,-4.6533,-4.6575,-4.6596,-4.674,-4.6782,-4.6865,-4.7175,-4.7237,-4.7444,-4.7713,-4.7651,-4.7361,-4.7734,-4.8628,-5.0295,-5.2007,-5.3475,-5.5328,-5.7876,-5.9182,-5.9382,-5.9508,-5.9508,-5.9508,-5.9508,-5.9508,-5.9508,-5.9508,-5.9508,-5.9508,-4.3386,-4.0414,-4.0344,-3.7996,-3.5761,-3.5793,-3.5716,-3.5748,-3.5764,-3.6002,-3.6225,-3.7341,-3.7737,-3.87,-4.0778,-4.2423,-4.1615,-4.1056,-4.2629,-4.5649,-4.4631,-4.5183,-4.6695,-4.5599,-4.6165,-4.7693,-4.7713,-4.7713,-4.7755,-4.7713,-4.7651,-4.7651,-4.7464,-4.7258,-4.703,-4.6578,-4.6393,-4.6352,-4.582,-4.5555,-4.5739,-4.5841,-4.5494,-4.4922,-4.5474,-4.5821,-4.578,-4.6064,-4.627,-4.6475,-4.6845,-4.7237,-4.7506,-4.7568,-4.761,-4.7568,-4.761,-4.7631,-4.7631,-4.7589,-4.7548,-4.7527,-4.761,-4.7527,-4.7506,-4.7548,-4.7548,-4.7527,-4.7527,-4.7444,-4.7113,-4.6989,-4.6761,-4.643,-4.6223,-4.6285,-4.6285,-4.6347,-4.6368,-4.643,-4.6492,-4.6389,-4.6389,-4.6492,-4.6678,-4.6947,-4.7051,-4.7134,-4.7403,-4.7444,-4.761,-4.7672,-4.7713,-4.7879,-4.8148,-4.8334,-4.8065,-4.8088,-4.9507,-5.0961,-5.2804,-5.451,-5.6089,-5.8483,-5.9307,-5.9508,-5.9508,-5.9508,-5.9508,-5.9508,-5.9508,-5.9508,-5.9508,-5.9508,-5.9508,-3.8169,-3.7241,-3.7141,-3.6485,-3.5573,-3.5573,-3.5701,-3.5939,-3.5939,-3.6066,-3.6418,-3.6789,-3.7143,-3.7303,-3.8342,-3.9268,-3.9896,-3.8744,-4.014,-4.3178,-4.3197,-4.3253,-4.4109,-4.4892,-4.6265,-4.798,-4.8148,-4.8148,-4.8065,-4.7838,-4.7672,-4.7693,-4.7025,-4.68,-4.6578,-4.6158,-4.6072,-4.6325,-4.6284,-4.645,-4.6596,-4.598,-4.5653,-4.5633,-4.5207,-4.4862,-4.4862,-4.5535,-4.5943,-4.5943,-4.6249,-4.6637,-4.6761,-4.6761,-4.6761,-4.6761,-4.6761,-4.6927,-4.7196,-4.7258,-4.7403,-4.761,-4.7672,-4.7672,-4.7672,-4.7672,-4.7672,-4.7672,-4.7672,-4.761,-4.7506,-4.7486,-4.7154,-4.6451,-4.6616,-4.6699,-4.6513,-4.6658,-4.6947,-4.7217,-4.7258,-4.7258,-4.7237,-4.7237,-4.7258,-4.7424,-4.7486,-4.7589,-4.7672,-4.7775,-4.7858,-4.8065,-4.8148,-4.8272,-4.8541,-4.8707,-4.8583,-4.8417,-4.9386,-5.1288,-5.3329,-5.4696,-5.6646,-5.8344,-5.9173,-5.9508,-5.9508,-5.9508,-5.9508,-5.9508,-5.9508,-5.9508,-5.9508,-5.9508,-5.9508,-3.7541,-3.6976,-3.6976,-3.6466,-3.5955,-3.5955,-3.6082,-3.6273,-3.6288,-3.6416,-3.6559,-3.659,-3.659,-3.677,-3.7306,-3.8247,-3.9413,-3.8897,-4.0207,-4.2196,-4.1563,-4.2123,-4.3627,-4.566,-4.6003,-4.6396,-4.7413,-4.7499,-4.6663,-4.7233,-4.7195,-4.6596,-4.6527,-4.632,-4.6122,-4.5797,-4.5867,-4.6185,-4.6185,-4.6373,-4.6313,-4.5924,-4.5784,-4.5724,-4.5197,-4.4892,-4.4972,-4.5388,-4.5555,-4.5617,-4.6167,-4.6596,-4.6616,-4.6782,-4.6844,-4.6844,-4.6865,-4.701,-4.7237,-4.7341,-4.7382,-4.7631,-4.7672,-4.7672,-4.7672,-4.7672,-4.7672,-4.7672,-4.7672,-4.7672,-4.7672,-4.7672,-4.7403,-4.6927,-4.7113,-4.7134,-4.6927,-4.7092,-4.7341,-4.7568,-4.7651,-4.7672,-4.7672,-4.7693,-4.7775,-4.7879,-4.7941,-4.8065,-4.8127,-4.821,-4.8396,-4.8541,-4.8603,-4.8769,-4.8976,-4.9038,-4.9038,-4.8976,-4.9126,-5.1238,-5.337,-5.4186,-5.5574,-5.8187,-5.9508,-5.9508,-5.9508,-5.9508,-5.9508,-5.9508,-5.9508,-5.9508,-5.9508,-5.9508,-5.9533,-4.026,-3.9192,-3.9032,-3.7937,-3.6543,-3.6527,-3.6559,-3.6622,-3.6622,-3.667,-3.6702,-3.6765,-3.6717,-3.7045,-3.8184,-3.9032,-3.9933,-4.0876,-4.1373,-4.1693,-4.0855,-4.1497,-4.5009,-4.6107,-4.5277,-4.3842,-4.5887,-4.6233,-4.5064,-4.6253,-4.6325,-4.5714,-4.6152,-4.6065,-4.5904,-4.5768,-4.5837,-4.6136,-4.5647,-4.5517,-4.5738,-4.5678,-4.545,-4.5072,-4.539,-4.5477,-4.5341,-4.5537,-4.5569,-4.5431,-4.6393,-4.6907,-4.7134,-4.7465,-4.7589,-4.7548,-4.7651,-4.7651,-4.7693,-4.7713,-4.7796,-4.79,-4.792,-4.7755,-4.79,-4.7941,-4.7941,-4.792,-4.79,-4.7858,-4.7858,-4.7879,-4.7817,-4.7775,-4.7672,-4.7631,-4.7755,-4.7755,-4.7817,-4.7838,-4.7775,-4.7796,-4.79,-4.7879,-4.8065,-4.8272,-4.8417,-4.8562,-4.8748,-4.881,-4.8976,-4.8997,-4.8935,-4.8955,-4.9059,-4.9059,-4.9059,-4.9059,-4.9401,-5.1201,-5.3788,-5.4766,-5.5734,-5.8187,-5.9508,-5.9508,-5.9508,-5.9508,-5.9508,-5.9508,-5.9508,-5.9508,-5.9633,-5.9759,-5.996,-3.7742,-3.729,-3.729,-3.7127,-3.659,-3.659,-3.6765,-3.6972,-3.6988,-3.7131,-3.7321,-3.7385,-3.7337,-3.7568,-3.7901,-3.8165,-3.8562,-3.8944,-3.8794,-3.851,-3.8095,-4.0044,-4.2669,-4.2565,-4.2803,-4.3671,-4.4624,-4.5351,-4.6146,-4.6225,-4.6353,-4.6534,-4.6256,-4.6265,-4.6075,-4.6048,-4.5934,-4.593,-4.6339,-4.6102,-4.5777,-4.5678,-4.552,-4.5055,-4.4956,-4.4808,-4.4758,-4.544,-4.6004,-4.6386,-4.678,-4.7195,-4.7361,-4.7672,-4.7775,-4.7755,-4.7734,-4.7858,-4.8127,-4.8189,-4.8334,-4.8666,-4.8603,-4.8686,-4.8686,-4.8686,-4.8707,-4.8707,-4.8707,-4.8666,-4.8686,-4.8666,-4.8666,-4.8624,-4.8148,-4.8003,-4.8438,-4.8417,-4.8314,-4.8624,-4.8645,-4.8624,-4.8603,-4.8624,-4.8666,-4.879,-4.8852,-4.8873,-4.9017,-4.9059,-4.9059,-4.9059,-4.9017,-4.9038,-4.9059,-4.9059,-4.9059,-4.9059,-4.9721,-5.0864,-5.3788,-5.6399,-5.7692,-5.9483,-5.9508,-5.9508,-5.9508,-5.9508,-5.9508,-5.9558,-5.9784,-5.996,-6.0211,-6.0412,-6.0663,-3.6908,-3.7051,-3.7051,-3.7051,-3.7051,-3.7051,-3.7162,-3.7321,-3.7353,-3.7464,-3.7639,-3.7486,-3.7301,-3.7285,-3.71,-3.71,-3.71,-3.71,-3.6915,-3.673,-3.6715,-3.8315,-4.0411,-4.0872,-4.2062,-4.2734,-4.4147,-4.4869,-4.5019,-4.552,-4.5748,-4.5718,-4.5825,-4.5812,-4.5969,-4.6052,-4.5937,-4.5742,-4.6264,-4.6028,-4.5418,-4.5359,-4.5379,-4.5351,-4.5123,-4.5064,-4.5281,-4.5865,-4.6436,-4.6683,-4.6872,-4.7162,-4.7331,-4.7663,-4.7745,-4.7914,-4.7914,-4.8227,-4.8583,-4.8666,-4.879,-4.8997,-4.9059,-4.9059,-4.9038,-4.9059,-4.9059,-4.9038,-4.9059,-4.9059,-4.9059,-4.9059,-4.9059,-4.8955,-4.8583,-4.8479,-4.9038,-4.881,-4.881,-4.8976,-4.9059,-4.9059,-4.9059,-4.9059,-4.9059,-4.9059,-4.9017,-4.9038,-4.9059,-4.9059,-4.9059,-4.9059,-4.9059,-4.9059,-4.9059,-4.9059,-4.9401,-4.9401,-5.1347,-5.2182,-5.4115,-5.7218,-5.8525,-5.9483,-5.9483,-5.9508,-5.9558,-5.9608,-5.9684,-5.9834,-6.0136,-6.0462,-6.0713,-6.104,-6.1291,-3.7369,-3.7671,-3.7671,-3.7671,-3.7454,-3.747,-3.7423,-3.747,-3.7454,-3.7454,-3.7301,-3.71,-3.6915,-3.673,-3.6545,-3.6173,-3.6173,-3.6359,-3.6173,-3.6173,-3.6143,-3.7081,-3.8827,-4.1142,-4.1814,-4.1437,-4.3972,-4.3879,-4.3652,-4.4199,-4.457,-4.4616,-4.483,-4.5254,-4.5586,-4.5703,-4.5644,-4.5586,-4.5683,-4.5542,-4.4922,-4.4902,-4.5248,-4.5327,-4.5556,-4.5805,-4.6161,-4.6516,-4.661,-4.6385,-4.6726,-4.7078,-4.7158,-4.75,-4.7966,-4.827,-4.8401,-4.8613,-4.9038,-4.8997,-4.9038,-4.9059,-4.9059,-4.9059,-4.9059,-4.9059,-4.9059,-4.9059,-4.9059,-4.9059,-4.9059,-4.9059,-4.9059,-4.9038,-4.9017,-4.9038,-4.9059,-4.9059,-4.9059,-4.9059,-4.9059,-4.9059,-4.9059,-4.9059,-4.9059,-4.9059,-4.9059,-4.9059,-4.9059,-4.9059,-4.9059,-4.9059,-4.9059,-4.9059,-4.9059,-4.9059,-4.9401,-4.9891,-5.2823,-5.4441,-5.4928,-5.7218,-5.8681,-5.9508,-5.9508,-5.9608,-5.9734,-5.9809,-5.9859,-6.0286,-6.0713,-6.0939,-6.1165,-6.1542,-6.1843,-3.7407,-3.71,-3.71,-3.6915,-3.6545,-3.6545,-3.6545,-3.6545,-3.6545,-3.6545,-3.6545,-3.6359,-3.6359,-3.6359,-3.6173,-3.6173,-3.6173,-3.6173,-3.5987,-3.56,-3.5256,-3.6127,-3.7648,-3.9241,-3.9959,-4.0611,-4.1284,-4.2048,-4.2876,-4.3031,-4.3224,-4.3341,-4.4318,-4.5234,-4.5605,-4.5586,-4.5488,-4.5293,-4.5469,-4.5058,-4.4433,-4.4707,-4.4922,-4.4883,-4.5444,-4.5915,-4.6248,-4.6425,-4.6385,-4.6442,-4.6789,-4.6982,-4.7368,-4.7468,-4.7854,-4.8199,-4.8372,-4.8544,-4.9059,-4.9059,-4.9059,-4.9059,-4.9059,-4.9059,-4.9059,-4.9059,-4.9059,-4.9059,-4.9059,-4.9059,-4.9059,-4.9059,-4.9059,-4.9059,-4.9059,-4.9059,-4.9059,-4.9059,-4.9059,-4.9059,-4.9059,-4.9059,-4.908,-4.9121,-4.9121,-4.908,-4.91,-4.908,-4.908,-4.908,-4.91,-4.9121,-4.9059,-4.9059,-4.923,-4.9551,-5.0379,-5.1201,-5.3952,-5.6239,-5.6717,-5.7376,-5.8993,-5.9508,-5.9508,-5.9633,-5.9759,-5.9985,-6.006,-6.0663,-6.124,-6.1466,-6.1692,-6.2044,-6.237,-3.71,-3.6545,-3.6545,-3.6359,-3.6173,-3.6173,-3.6173,-3.6173,-3.6173,-3.6173,-3.6173,-3.5972,-3.5786,-3.5801,-3.5615,-3.5443,-3.5443,-3.5443,-3.5443,-3.5069,-3.4882,-3.5241,-3.6328,-3.7591,-3.8927,-4.019,-4.0146,-4.0698,-4.1302,-4.1949,-4.2315,-4.2407,-4.3955,-4.4927,-4.5469,-4.5332,-4.5078,-4.5039,-4.5019,-4.4687,-4.4258,-4.4453,-4.4941,-4.5058,-4.5605,-4.6094,-4.6269,-4.6289,-4.6308,-4.6308,-4.6483,-4.6832,-4.7007,-4.7007,-4.7354,-4.7874,-4.8027,-4.8372,-4.8887,-4.9059,-4.9059,-4.9059,-4.9059,-4.9059,-4.9059,-4.9059,-4.9059,-4.9059,-4.9059,-4.9059,-4.9059,-4.9059,-4.9059,-4.9059,-4.908,-4.9059,-4.908,-4.9059,-4.9059,-4.9059,-4.9059,-4.9204,-4.9287,-4.9245,-4.9349,-4.939,-4.9701,-4.9659,-4.9204,-4.9204,-4.9204,-4.9183,-4.91,-4.923,-4.9401,-5.004,-5.1514,-5.2823,-5.4928,-5.6876,-5.8187,-5.8681,-5.9483,-5.9508,-5.9508,-5.9558,-5.9709,-5.996,-6.0362,-6.0864,-6.1366,-6.1818,-6.227,-6.2672,-6.2973,-3.6498,-3.6173,-3.6112,-3.5942,-3.5987,-3.5987,-3.5987,-3.5987,-3.5987,-3.5801,-3.5987,-3.5428,-3.5241,-3.5241,-3.4882,-3.471,-3.471,-3.471,-3.4897,-3.471,-3.471,-3.5241,-3.5786,-3.6684,-3.7943,-3.9869,-3.9464,-3.9338,-4.0017,-4.0678,-4.1333,-4.1818,-4.3438,-4.4648,-4.5098,-4.4941,-4.4746,-4.498,-4.4922,-4.4726,-4.457,-4.4668,-4.5098,-4.5664,-4.5996,-4.623,-4.6289,-4.6308,-4.6308,-4.6308,-4.6308,-4.6308,-4.6308,-4.6308,-4.6658,-4.7701,-4.7701,-4.822,-4.8887,-4.9059,-4.9059,-4.9059,-4.9059,-4.9121,-4.9162,-4.9224,-4.9245,-4.9224,-4.9224,-4.9224,-4.9183,-4.9369,-4.9307,-4.9224,-4.9183,-4.9204,-4.9245,-4.9224,-4.9204,-4.9059,-4.908,-4.9183,-4.9349,-4.9411,-4.9556,-4.9721,-5.0032,-5.0073,-4.9556,-4.9266,-4.9224,-4.9204,-4.91,-4.9891,-5.021,-5.1347,-5.2658,-5.4278,-5.6239,-5.7534,-5.8993,-5.9173,-5.9508,-5.9508,-5.9508,-5.9583,-5.9809,-6.0186,-6.0588,-6.1065,-6.1617,-6.2169,-6.2722,-6.3299,-6.3525,-3.5729,-3.5584,-3.5314,-3.5174,-3.504,-3.4882,-3.5069,-3.4882,-3.5069,-3.4882,-3.4882,-3.4882,-3.4882,-3.4882,-3.4695,-3.471,-3.471,-3.471,-3.471,-3.471,-3.471,-3.5241,-3.6328,-3.5786,-3.6514,-3.7575,-3.7917,-3.8284,-3.9227,-3.9823,-4.0433,-4.1574,-4.3246,-4.4277,-4.4687,-4.4766,-4.4922,-4.5117,-4.5176,-4.5117,-4.5039,-4.5273,-4.5586,-4.6094,-4.625,-4.6289,-4.6308,-4.6308,-4.6308,-4.6308,-4.6308,-4.6308,-4.6308,-4.6308,-4.6832,-4.7354,-4.7701,-4.8047,-4.8716,-4.9059,-4.9059,-4.9059,-4.9059,-4.9266,-4.9473,-4.9618,-4.9576,-4.9638,-4.9638,-4.9638,-4.9659,-4.9866,-4.9928,-4.9783,-4.9659,-4.9763,-4.9949,-4.9825,-4.9514,-4.9328,-4.9204,-4.9204,-4.9473,-4.9618,-4.9659,-4.9721,-4.9845,-4.9763,-4.9328,-4.9162,-4.9162,-4.9121,-4.908,-5.021,-5.1201,-5.2658,-5.4278,-5.5758,-5.7376,-5.8344,-5.9328,-5.9483,-5.9508,-5.9508,-5.9583,-5.9684,-5.9985,-6.0362,-6.0939,-6.1466,-6.2019,-6.2546,-6.3073,-6.355,-6.3827,-3.492,-3.4552,-3.4552,-3.4485,-3.4461,-3.4636,-3.471,-3.471,-3.471,-3.471,-3.471,-3.471,-3.471,-3.471,-3.471,-3.471,-3.471,-3.471,-3.471,-3.471,-3.471,-3.5069,-3.6158,-3.5069,-3.5241,-3.5957,-3.6127,-3.7049,-3.8465,-3.8964,-4.0104,-4.1684,-4.3457,-4.4512,-4.4707,-4.4922,-4.5156,-4.5312,-4.5371,-4.5391,-4.5391,-4.5781,-4.6113,-4.623,-4.6308,-4.6308,-4.6308,-4.6308,-4.6308,-4.6308,-4.6308,-4.6308,-4.6308,-4.6308,-4.6658,-4.7181,-4.7354,-4.7701,-4.822,-4.8392,-4.8392,-4.8716,-4.8716,-4.897,-4.939,-4.9576,-4.9887,-5.0052,-5.0094,-5.0094,-5.0115,-5.0322,-5.028,-5.0177,-5.0094,-5.0218,-5.0322,-5.0218,-4.999,-4.9763,-4.9866,-4.9908,-4.9845,-4.9908,-4.9825,-4.9763,-4.9721,-4.9473,-4.9142,-4.9142,-4.9183,-4.9272,-4.9401,-5.0527,-5.187,-5.3715,-5.5275,-5.7059,-5.8384,-5.9348,-5.9558,-5.9608,-5.9558,-5.9508,-5.9608,-5.9809,-6.006,-6.0412,-6.114,-6.1843,-6.2345,-6.2847,-6.335,-6.3776,-6.4128,-3.4256,-3.3744,-3.3949,-3.4095,-3.4256,-3.449,-3.4651,-3.4695,-3.471,-3.471,-3.471,-3.471,-3.471,-3.471,-3.471,-3.471,-3.471,-3.471,-3.471,-3.471,-3.471,-3.471,-3.471,-3.471,-3.4882,-3.4867,-3.4936,-3.5729,-3.794,-3.8906,-4.0313,-4.2345,-4.4373,-4.5019,-4.5019,-4.5137,-4.5391,-4.5469,-4.5488,-4.5508,-4.5801,-4.6113,-4.6308,-4.6308,-4.6308,-4.6308,-4.6308,-4.6308,-4.6308,-4.6308,-4.6308,-4.6308,-4.6308,-4.6308,-4.6483,-4.6832,-4.7007,-4.7181,-4.7528,-4.7701,-4.8047,-4.8372,-4.8351,-4.8798,-4.9341,-4.9949,-5.028,-5.057,-5.0591,-5.057,-5.057,-5.0673,-5.0653,-5.057,-5.057,-5.0611,-5.0715,-5.0694,-5.0591,-5.0508,-5.0611,-5.0425,-5.0177,-4.997,-4.9825,-4.9701,-4.9638,-4.9618,-4.9328,-4.9287,-4.9266,-4.9292,-4.9721,-5.0864,-5.2392,-5.4508,-5.6197,-5.7873,-5.9078,-6.0004,-5.996,-5.9759,-5.9734,-5.9784,-5.9784,-5.9985,-6.0211,-6.0563,-6.1316,-6.2019,-6.2596,-6.3199,-6.3776,-6.4329,-6.4781,-3.3495,-3.3715,-3.3466,-3.3685,-3.4168,-3.4256,-3.4446,-3.468,-3.4695,-3.471,-3.471,-3.471,-3.471,-3.471,-3.471,-3.471,-3.471,-3.471,-3.471,-3.471,-3.471,-3.471,-3.471,-3.471,-3.471,-3.468,-3.4461,-3.6432,-3.8301,-3.9261,-4.1176,-4.3442,-4.3957,-4.4869,-4.4795,-4.4914,-4.5625,-4.5742,-4.5976,-4.6133,-4.6191,-4.6269,-4.6289,-4.6308,-4.6308,-4.6308,-4.6308,-4.6308,-4.6308,-4.6308,-4.6308,-4.6308,-4.6308,-4.6308,-4.6308,-4.6483,-4.6832,-4.7181,-4.7548,-4.7528,-4.7681,-4.8027,-4.8199,-4.8954,-4.962,-5.0352,-5.0806,-5.1564,-5.1294,-5.1046,-5.1108,-5.1357,-5.1357,-5.1191,-5.1025,-5.1232,-5.1377,-5.1129,-5.1046,-5.1087,-5.115,-5.0611,-5.0197,-4.999,-4.9783,-4.968,-4.9576,-4.9514,-4.9452,-4.9349,-4.9287,-4.9292,-5.0231,-5.1558,-5.3213,-5.516,-5.7037,-5.8748,-5.9665,-6.0613,-6.0437,-6.0236,-6.0236,-6.0261,-6.0211,-6.0311,-6.0638,-6.109,-6.1642,-6.2345,-6.3124,-6.3726,-6.4279,-6.4831,-6.5383,-3.3056,-3.3188,-3.3232,-3.3407,-3.37,-3.4051,-3.43,-3.4446,-3.4622,-3.471,-3.471,-3.471,-3.471,-3.471,-3.471,-3.471,-3.471,-3.471,-3.471,-3.471,-3.471,-3.471,-3.471,-3.471,-3.471,-3.4666,-3.4764,-3.5805,-3.7821,-3.8415,-3.9396,-4.1846,-4.2353,-4.2739,-4.3819,-4.4197,-4.5086,-4.5725,-4.6191,-4.6289,-4.6308,-4.6308,-4.6308,-4.6308,-4.6308,-4.6308,-4.6308,-4.6308,-4.6308,-4.6348,-4.6484,-4.666,-4.6738,-4.6875,-4.7051,-4.7031,-4.7228,-4.717,-4.6931,-4.7026,-4.7181,-4.7508,-4.7742,-4.8084,-4.9379,-5.0127,-5.0756,-5.1367,-5.1244,-5.1121,-5.146,-5.1688,-5.1646,-5.1543,-5.1398,-5.1522,-5.1688,-5.1646,-5.1522,-5.1605,-5.1626,-5.1129,-5.0632,-5.0342,-5.0094,-4.9763,-4.9514,-4.9287,-4.9245,-4.9183,-4.9142,-4.91,-5.0591,-5.227,-5.4175,-5.6046,-5.8185,-5.9623,-6.0322,-6.0989,-6.0914,-6.0814,-6.0788,-6.0814,-6.0814,-6.0939,-6.114,-6.1517,-6.1969,-6.2822,-6.3751,-6.4228,-6.4705,-6.5333,-6.5785,-3.2763,-3.2793,-3.3027,-3.3173,-3.3305,-3.3861,-3.4154,-3.4256,-3.4563,-3.471,-3.471,-3.471,-3.471,-3.471,-3.471,-3.471,-3.471,-3.471,-3.471,-3.471,-3.471,-3.471,-3.471,-3.471,-3.471,-3.471,-3.468,-3.5569,-3.6144,-3.6647,-3.7579,-3.9873,-4.0607,-4.1497,-4.2669,-4.3542,-4.4435,-4.6075,-4.6269,-4.6308,-4.6308,-4.6308,-4.6308,-4.6308,-4.6308,-4.6308,-4.6308,-4.6308,-4.6308,-4.6543,-4.6738,-4.6914,-4.709,-4.7305,-4.7441,-4.7461,-4.762,-4.7266,-4.7013,-4.6797,-4.6776,-4.6892,-4.734,-4.8009,-4.8727,-4.9331,-4.9934,-5.0821,-5.0821,-5.1182,-5.1425,-5.1605,-5.1522,-5.1564,-5.1646,-5.1729,-5.1791,-5.1771,-5.1853,-5.2019,-5.2019,-5.1895,-5.1398,-5.0901,-5.0446,-4.997,-4.9556,-4.9162,-4.91,-4.9142,-4.9142,-4.9334,-5.1629,-5.3181,-5.471,-5.6817,-5.8959,-6.0477,-6.1181,-6.1441,-6.1416,-6.1391,-6.1391,-6.1391,-6.1391,-6.1466,-6.1592,-6.1943,-6.2345,-6.3174,-6.3952,-6.4555,-6.5107,-6.5735,-6.6061,-3.2763,-3.2763,-3.2793,-3.2983,-3.3276,-3.3612,-3.3949,-3.4241,-3.4563,-3.471,-3.471,-3.471,-3.471,-3.471,-3.471,-3.471,-3.471,-3.471,-3.471,-3.471,-3.471,-3.471,-3.471,-3.471,-3.471,-3.471,-3.471,-3.4882,-3.5054,-3.5323,-3.7281,-3.9903,-3.9274,-4.1314,-4.2603,-4.2978,-4.4473,-4.5939,-4.6308,-4.6308,-4.6308,-4.6308,-4.6308,-4.6308,-4.6308,-4.6308,-4.6308,-4.6348,-4.6484,-4.6797,-4.7031,-4.7246,-4.75,-4.7695,-4.7793,-4.7812,-4.7793,-4.7656,-4.7402,-4.7051,-4.6875,-4.7264,-4.7579,-4.8113,-4.861,-4.9331,-4.9853,-5.0315,-5.0556,-5.0695,-5.1033,-5.1191,-5.1377,-5.1481,-5.1667,-5.1771,-5.1833,-5.1915,-5.204,-5.2329,-5.2392,-5.2309,-5.1978,-5.1419,-5.0756,-5.0259,-4.968,-4.9287,-4.9287,-4.9307,-4.9266,-4.9994,-5.2733,-5.4373,-5.5339,-5.7336,-5.9869,-6.1048,-6.1782,-6.1994,-6.1994,-6.1994,-6.1943,-6.1943,-6.1943,-6.1994,-6.2044,-6.2245,-6.2647,-6.3425,-6.4128,-6.4705,-6.5258,-6.581,-6.6036,-3.2763,-3.2763,-3.2763,-3.2954,-3.3276,-3.3583,-3.3919,-3.4241,-3.4563,-3.471,-3.471,-3.471,-3.471,-3.471,-3.471,-3.471,-3.471,-3.471,-3.471,-3.471,-3.471,-3.471,-3.471,-3.471,-3.471,-3.471,-3.471,-3.471,-3.471,-3.471,-3.5241,-3.6684,-3.7238,-3.8127,-3.959,-4.23,-4.4473,-4.5763,-4.6308,-4.6308,-4.6308,-4.6308,-4.6308,-4.6308,-4.6308,-4.6308,-4.6348,-4.6582,-4.6758,-4.7012,-4.7422,-4.7715,-4.7969,-4.8164,-4.8262,-4.8281,-4.8281,-4.8164,-4.791,-4.7598,-4.7444,-4.7444,-4.7998,-4.8394,-4.8673,-4.9152,-4.9633,-5.0033,-5.0372,-5.0572,-5.095,-5.1357,-5.1605,-5.1605,-5.1667,-5.1791,-5.1936,-5.2081,-5.2329,-5.2681,-5.2764,-5.2764,-5.235,-5.1915,-5.1191,-5.0508,-4.9949,-4.9514,-4.9535,-4.9618,-4.9638,-5.0393,-5.2983,-5.494,-5.5938,-5.8189,-6.067,-6.157,-6.2496,-6.2446,-6.2421,-6.2521,-6.2496,-6.2496,-6.2471,-6.2446,-6.2446,-6.2496,-6.2873,-6.3425,-6.4103,-6.4806,-6.5358,-6.5911,-6.6036,-3.2837,-3.291,-3.291,-3.3041,-3.3276,-3.3597,-3.3919,-3.4241,-3.4563,-3.471,-3.471,-3.471,-3.471,-3.471,-3.471,-3.471,-3.471,-3.471,-3.471,-3.471,-3.471,-3.471,-3.471,-3.471,-3.471,-3.471,-3.471,-3.471,-3.471,-3.471,-3.4882,-3.4882,-3.4897,-3.6158,-3.831,-4.1401,-4.4296,-4.5763,-4.6308,-4.6308,-4.6308,-4.6308,-4.6426,-4.6465,-4.6543,-4.666,-4.6777,-4.7012,-4.7207,-4.748,-4.7832,-4.8203,-4.8437,-4.8652,-4.8828,-4.8848,-4.8808,-4.8691,-4.8379,-4.791,-4.7617,-4.7519,-4.7695,-4.8272,-4.859,-4.887,-4.9492,-5.0193,-5.0372,-5.0572,-5.095,-5.1336,-5.1439,-5.1398,-5.1936,-5.2143,-5.2267,-5.2412,-5.2723,-5.3033,-5.3137,-5.3302,-5.3054,-5.2578,-5.146,-5.0798,-5.0301,-4.997,-4.997,-5.0052,-5.0177,-5.1287,-5.2973,-5.4781,-5.6459,-5.9093,-6.1531,-6.1982,-6.2672,-6.2722,-6.2747,-6.2822,-6.2822,-6.2722,-6.2697,-6.2797,-6.2772,-6.2697,-6.2923,-6.3274,-6.4028,-6.4831,-6.5559,-6.6061,-6.6061,-3.2954,-3.3232,-3.3232,-3.3246,-3.3349,-3.3597,-3.3949,-3.4285,-3.4563,-3.471,-3.471,-3.471,-3.471,-3.471,-3.471,-3.471,-3.471,-3.471,-3.471,-3.471,-3.471,-3.471,-3.471,-3.471,-3.471,-3.471,-3.471,-3.471,-3.471,-3.471,-3.471,-3.4739,-3.4941,-3.5831,-3.7775,-4.1401,-4.4296,-4.5939,-4.6308,-4.6308,-4.6308,-4.6348,-4.6562,-4.6738,-4.6894,-4.7051,-4.7266,-4.7461,-4.7676,-4.7949,-4.8144,-4.8457,-4.873,-4.8789,-4.8848,-4.8848,-4.8848,-4.8828,-4.8769,-4.8047,-4.7793,-4.7773,-4.8008,-4.813,-4.8393,-4.8712,-4.9312,-5.0033,-5.0193,-5.0572,-5.0771,-5.1212,-5.1156,-5.1501,-5.1858,-5.2371,-5.2474,-5.2723,-5.3013,-5.3385,-5.3696,-5.3882,-5.3716,-5.324,-5.1915,-5.1087,-5.0611,-5.0425,-5.0425,-5.0611,-5.0756,-5.1681,-5.3191,-5.5012,-5.6974,-6.0144,-6.2231,-6.2659,-6.2822,-6.2822,-6.2822,-6.2822,-6.2822,-6.2822,-6.2822,-6.2822,-6.2847,-6.2847,-6.3199,-6.3626,-6.4128,-6.4856,-6.5609,-6.6112,-6.6112,-3.3144,-3.3261,-3.348,-3.37,-3.389,-3.4007,-3.4241,-3.4519,-3.4651,-3.471,-3.471,-3.471,-3.471,-3.471,-3.471,-3.471,-3.471,-3.471,-3.471,-3.471,-3.471,-3.471,-3.471,-3.471,-3.471,-3.471,-3.471,-3.471,-3.471,-3.4739,-3.4724,-3.4724,-3.5479,-3.6699,-3.9291,-4.23,-4.4296,-4.5939,-4.6308,-4.6308,-4.6348,-4.6562,-4.6797,-4.6973,-4.7226,-4.7461,-4.7676,-4.7871,-4.8105,-4.8281,-4.8418,-4.8672,-4.8828,-4.8848,-4.8848,-4.8848,-4.8848,-4.8848,-4.8828,-4.8535,-4.8457,-4.8398,-4.834,-4.8522,-4.9187,-4.8969,-4.9352,-4.9713,-5.0114,-5.0114,-5.0053,-5.1025,-5.1411,-5.1429,-5.1737,-5.235,-5.2557,-5.2909,-5.3261,-5.3675,-5.4027,-5.3799,-5.3633,-5.3364,-5.2288,-5.1584,-5.1129,-5.0922,-5.088,-5.1212,-5.146,-5.2156,-5.3244,-5.5156,-5.7491,-6.0337,-6.2281,-6.2659,-6.2822,-6.2822,-6.2822,-6.2822,-6.2822,-6.2822,-6.2822,-6.2822,-6.2898,-6.3048,-6.355,-6.4028,-6.4505,-6.5032,-6.5785,-6.6112,-6.6112,-3.348,-3.3612,-3.3817,-3.408,-3.4344,-3.4271,-3.4402,-3.4666,-3.471,-3.471,-3.471,-3.471,-3.471,-3.471,-3.471,-3.471,-3.471,-3.471,-3.471,-3.471,-3.471,-3.471,-3.471,-3.4724,-3.471,-3.471,-3.4724,-3.4739,-3.4885,-3.4871,-3.4958,-3.5483,-3.6503,-3.8723,-4.076,-4.2114,-4.3899,-4.5776,-4.6758,-4.666,-4.6816,-4.7031,-4.7246,-4.7441,-4.7656,-4.7891,-4.8066,-4.8262,-4.8437,-4.8516,-4.8652,-4.8848,-4.8848,-4.8848,-4.8848,-4.8848,-4.8848,-4.8848,-4.8828,-4.8828,-4.875,-4.8769,-4.8848,-4.9052,-4.94,-4.9326,-4.9751,-4.9933,-4.9975,-5.0015,-5.0358,-5.1372,-5.1393,-5.1391,-5.1698,-5.2332,-5.2662,-5.3013,-5.3279,-5.369,-5.3793,-5.3505,-5.3281,-5.3116,-5.2578,-5.2102,-5.1646,-5.1481,-5.1315,-5.1564,-5.2152,-5.2987,-5.419,-5.6377,-5.8266,-6.0386,-6.1952,-6.2659,-6.2822,-6.2822,-6.2822,-6.2822,-6.2822,-6.2822,-6.2822,-6.2847,-6.2973,-6.3224,-6.3701,-6.4254,-6.4806,-6.5383,-6.5986,-6.6112,-6.6112,-3.3934,-3.4197,-3.4227,-3.4417,-3.4607,-3.4388,-3.4432,-3.471,-3.471,-3.471,-3.471,-3.471,-3.471,-3.471,-3.471,-3.471,-3.471,-3.471,-3.471,-3.4739,-3.4768,-3.4768,-3.4797,-3.4827,-3.4914,-3.4827,-3.4841,-3.5031,-3.5163,-3.5178,-3.5324,-3.6265,-3.8008,-4.0066,-4.1086,-4.1908,-4.387,-4.6114,-4.7129,-4.7109,-4.7285,-4.7519,-4.7734,-4.793,-4.8144,-4.8379,-4.8555,-4.873,-4.8769,-4.8808,-4.8848,-4.8848,-4.8848,-4.8848,-4.8848,-4.8848,-4.8848,-4.8848,-4.8848,-4.8848,-4.8848,-4.8848,-4.8848,-4.9236,-4.94,-4.9341,-4.9584,-4.9847,-4.9991,-5.0558,-5.1168,-5.1189,-5.1026,-5.1454,-5.1821,-5.2313,-5.2806,-5.303,-5.3141,-5.3426,-5.3275,-5.3202,-5.2968,-5.2724,-5.2538,-5.2043,-5.145,-5.1186,-5.1224,-5.1626,-5.2312,-5.4034,-5.54,-5.7653,-5.957,-6.0935,-6.1977,-6.2822,-6.2822,-6.2822,-6.2822,-6.2822,-6.2822,-6.2822,-6.2822,-6.2873,-6.2923,-6.3299,-6.3827,-6.4379,-6.4906,-6.5459,-6.6011,-6.6086,-6.6112,-3.4139,-3.4241,-3.4461,-3.4622,-3.468,-3.4607,-3.4622,-3.4695,-3.471,-3.471,-3.471,-3.471,-3.471,-3.471,-3.471,-3.471,-3.471,-3.471,-3.471,-3.4768,-3.4914,-3.4988,-3.509,-3.5207,-3.5324,-3.5339,-3.5353,-3.5353,-3.5485,-3.5514,-3.5544,-3.6193,-3.7954,-3.972,-4.1218,-4.1902,-4.4599,-4.6514,-4.75,-4.7558,-4.7715,-4.791,-4.8105,-4.8262,-4.8516,-4.8711,-4.8808,-4.8848,-4.8848,-4.8848,-4.8848,-4.8848,-4.8848,-4.8848,-4.8848,-4.8848,-4.8848,-4.8848,-4.8848,-4.8848,-4.8848,-4.8867,-4.8887,-4.8867,-4.9032,-4.9295,-4.9374,-4.9697,-4.9862,-5.0126,-5.037,-5.0435,-5.0458,-5.0782,-5.1186,-5.1796,-5.2287,-5.2485,-5.259,-5.2912,-5.2972,-5.268,-5.247,-5.2372,-5.2169,-5.1495,-5.1188,-5.0925,-5.1066,-5.1429,-5.2829,-5.4543,-5.6098,-5.7995,-5.9907,-6.1457,-6.2142,-6.2822,-6.2822,-6.2822,-6.2822,-6.2822,-6.2822,-6.2822,-6.2822,-6.2822,-6.2847,-6.3249,-6.3676,-6.4354,-6.4881,-6.5459,-6.5911,-6.6036,-6.6112,-3.4402,-3.4432,-3.4622,-3.471,-3.471,-3.471,-3.471,-3.471,-3.471,-3.471,-3.471,-3.471,-3.471,-3.471,-3.471,-3.471,-3.471,-3.471,-3.4768,-3.4973,-3.5105,-3.5222,-3.5383,-3.5544,-3.5573,-3.5646,-3.5675,-3.5646,-3.5807,-3.5983,-3.6041,-3.6265,-3.7387,-3.9884,-4.2192,-4.4249,-4.6057,-4.7376,-4.7988,-4.7949,-4.8105,-4.8301,-4.8418,-4.8496,-4.8769,-4.8828,-4.8848,-4.8848,-4.8848,-4.8848,-4.8848,-4.8848,-4.8848,-4.8848,-4.8848,-4.8848,-4.8848,-4.8848,-4.8848,-4.8848,-4.8848,-4.8906,-4.9004,-4.9141,-4.9141,-4.9199,-4.9522,-4.964,-4.9463,-4.9346,-4.9551,-4.9716,-4.9762,-5.0011,-5.051,-5.1176,-5.1329,-5.1648,-5.1857,-5.2255,-5.2268,-5.2188,-5.1993,-5.1938,-5.1594,-5.1046,-5.0763,-5.056,-5.0702,-5.1066,-5.2966,-5.5202,-5.6596,-5.8166,-6.0075,-6.1812,-6.2306,-6.2822,-6.2822,-6.2822,-6.2822,-6.2822,-6.2822,-6.2822,-6.2822,-6.2822,-6.2822,-6.3048,-6.345,-6.4128,-6.4756,-6.5258,-6.571,-6.6061,-6.6112,-3.4695,-3.4695,-3.471,-3.471,-3.471,-3.471,-3.471,-3.471,-3.471,-3.471,-3.471,-3.471,-3.4739,-3.4797,-3.4812,-3.4856,-3.4914,-3.4944,-3.5046,-3.5207,-3.5353,-3.5485,-3.5631,-3.5719,-3.5895,-3.5792,-3.5807,-3.5997,-3.6187,-3.6319,-3.6633,-3.6977,-3.9803,-4.2065,-4.3572,-4.5887,-4.7341,-4.8226,-4.8437,-4.8379,-4.8633,-4.8808,-4.8848,-4.8828,-4.8848,-4.8848,-4.8848,-4.8848,-4.8848,-4.8848,-4.8848,-4.8848,-4.8848,-4.8848,-4.8848,-4.8848,-4.8848,-4.8848,-4.8848,-4.8848,-4.8848,-4.8984,-4.9219,-4.9336,-4.9336,-4.9375,-4.9492,-4.9512,-4.9355,-4.9346,-4.9492,-4.959,-4.9716,-4.9736,-5.0218,-5.0615,-5.0932,-5.098,-5.1178,-5.1454,-5.1507,-5.1449,-5.1149,-5.1096,-5.1162,-5.0598,-5.0154,-5.0154,-5.0337,-5.0702,-5.2966,-5.553,-5.6769,-5.8337,-6.1101,-6.2495,-6.2659,-6.2822,-6.2822,-6.2822,-6.2822,-6.2822,-6.2822,-6.2822,-6.2822,-6.2822,-6.2873,-6.3023,-6.3324,-6.3952,-6.4555,-6.5007,-6.5459,-6.5936,-6.6112,-3.471,-3.471,-3.471,-3.471,-3.471,-3.471,-3.471,-3.471,-3.471,-3.4724,-3.471,-3.4724,-3.4856,-3.5046,-3.5061,-3.5134,-3.5324,-3.5295,-3.5441,-3.5588,-3.5705,-3.5822,-3.6027,-3.6173,-3.629,-3.6378,-3.6392,-3.6334,-3.6436,-3.6751,-3.7371,-3.8714,-4.0819,-4.1958,-4.4436,-4.656,-4.7698,-4.8828,-4.8769,-4.8672,-4.8808,-4.8848,-4.8848,-4.8848,-4.8848,-4.8848,-4.8848,-4.8848,-4.8848,-4.8848,-4.8848,-4.8848,-4.8848,-4.8867,-4.8867,-4.8867,-4.8965,-4.8984,-4.9004,-4.9023,-4.9023,-4.8965,-4.9101,-4.9277,-4.9394,-4.9473,-4.9531,-4.9512,-4.9414,-4.9404,-4.9267,-4.9385,-4.9483,-4.9787,-4.9925,-5.022,-5.0495,-5.0444,-5.0371,-5.0542,-5.0842,-5.0605,-5.0496,-5.0318,-5.0404,-5.0185,-4.9887,-4.9787,-5.0154,-5.0702,-5.3145,-5.5377,-5.6596,-5.8507,-6.1432,-6.2822,-6.2659,-6.2659,-6.2659,-6.2822,-6.2822,-6.2822,-6.2822,-6.2822,-6.2822,-6.2822,-6.2847,-6.2873,-6.3249,-6.3952,-6.4479,-6.5007,-6.5409,-6.586,-6.6011,-3.471,-3.471,-3.471,-3.471,-3.471,-3.471,-3.471,-3.4724,-3.4841,-3.49,-3.49,-3.4929,-3.5075,-3.5339,-3.5368,-3.5441,-3.5661,-3.5631,-3.5719,-3.588,-3.6027,-3.6173,-3.6363,-3.6509,-3.6524,-3.6597,-3.6597,-3.6583,-3.6612,-3.6597,-3.7371,-3.8714,-3.9867,-4.215,-4.4832,-4.5979,-4.7698,-4.8848,-4.8848,-4.8848,-4.8848,-4.8848,-4.8848,-4.8848,-4.8848,-4.8848,-4.8848,-4.8848,-4.8848,-4.8945,-4.9062,-4.916,-4.9258,-4.9414,-4.9473,-4.9492,-4.9492,-4.9433,-4.9414,-4.9394,-4.9375,-4.9375,-4.9648,-5.0058,-4.9805,-4.9863,-4.9687,-4.9648,-4.9512,-4.9316,-4.9208,-4.9228,-4.9248,-4.9306,-4.962,-4.9934,-5.0189,-5.0404,-5.0254,-5.0215,-5.0267,-4.9993,-4.9885,-4.9649,-4.9551,-4.9677,-4.944,-4.9787,-4.9971,-5.0499,-5.2945,-5.5224,-5.6445,-5.887,-6.1787,-6.2659,-6.2495,-6.2659,-6.2659,-6.2659,-6.2659,-6.2822,-6.2822,-6.2822,-6.2822,-6.2822,-6.2847,-6.2898,-6.3425,-6.4128,-6.463,-6.5082,-6.5434,-6.576,-6.5986,-3.471,-3.471,-3.471,-3.471,-3.471,-3.471,-3.4739,-3.4812,-3.5046,-3.5222,-3.531,-3.531,-3.547,-3.5617,-3.5705,-3.5734,-3.5807,-3.5924,-3.6027,-3.6129,-3.6202,-3.6348,-3.648,-3.6597,-3.6612,-3.6612,-3.6612,-3.6612,-3.6612,-3.6992,-3.775,-3.8127,-4.0432,-4.3296,-4.4453,-4.6542,-4.8848,-4.8848,-4.8848,-4.8848,-4.8848,-4.8848,-4.8848,-4.8848,-4.8848,-4.8848,-4.8848,-4.8848,-4.8848,-4.9004,-4.9238,-4.9473,-4.9648,-4.9824,-4.9941,-4.998,-4.9961,-4.998,-5.0039,-5.0,-5.0039,-5.0176,-5.0586,-5.0566,-5.0254,-5.0078,-4.9902,-4.9766,-4.9609,-4.9336,-4.9043,-4.8984,-4.9004,-4.9023,-4.9355,-4.9609,-4.9844,-5.0,-4.9961,-4.9941,-4.9746,-4.9473,-4.9375,-4.9101,-4.8984,-4.9091,-4.9236,-4.9787,-5.0154,-5.0864,-5.2249,-5.4521,-5.6272,-5.904,-6.1977,-6.2495,-6.2167,-6.2495,-6.2495,-6.2495,-6.2659,-6.2822,-6.2822,-6.2822,-6.2822,-6.2822,-6.2923,-6.3023,-6.3651,-6.4128,-6.453,-6.4881,-6.5233,-6.5584,-6.5961,-3.471,-3.471,-3.471,-3.471,-3.471,-3.471,-3.4841,-3.5061,-3.5134,-3.5427,-3.5807,-3.5924,-3.5983,-3.6027,-3.6027,-3.61,-3.6261,-3.6305,-3.6392,-3.6509,-3.6451,-3.6524,-3.6583,-3.6612,-3.6612,-3.6612,-3.6612,-3.6612,-3.6795,-3.8142,-3.9851,-4.0996,-4.3296,-4.5585,-4.7512,-4.8848,-4.8848,-4.8848,-4.8848,-4.8848,-4.8848,-4.8848,-4.8848,-4.8848,-4.8848,-4.8848,-4.8848,-4.8848,-4.8848,-4.8984,-4.9316,-4.9726,-4.998,-5.0176,-5.0312,-5.0391,-5.0371,-5.0351,-5.0371,-5.0391,-5.041,-5.0371,-5.0586,-5.0508,-5.0293,-5.0254,-5.0078,-4.9941,-4.9707,-4.9297,-4.9062,-4.9277,-4.9336,-4.9277,-4.9453,-4.9473,-4.959,-4.9414,-4.9238,-4.9238,-4.918,-4.9219,-4.9414,-4.9199,-4.9062,-4.9169,-4.9315,-4.9663,-4.9787,-5.0661,-5.1548,-5.3835,-5.5924,-5.8383,-6.0983,-6.1672,-6.1672,-6.2002,-6.2331,-6.2495,-6.2495,-6.2822,-6.2822,-6.2822,-6.2822,-6.2822,-6.2948,-6.3099,-6.3274,-6.3726,-6.4203,-6.463,-6.5057,-6.5484,-6.5936]}]]